[[{"header":{"parameterUnit":"m.s-1","parameterCategory":1,"la1":30.6,"la2":28.766,"lo1":-90.7593,"lo2":-88.6598,"dy":0.0162,"dx":0.0183,"nx":116,"ny":114,"refTime":"2024-05-31T06:00:00:Z","depth":0,"parameterNumber":2,"parameterNumberName":"U-component_of_WINDS"},"data":[0.0,0.0,0.0,0.0,0.0,0.0,0.0,0.0,0.0,0.0,0.0,0.0,0.0,0.0,0.0,0.0,0.0,0.0,0.0,0.0,0.0,0.0,0.0,0.0,0.0,0.0,0.0,0.0,0.0,0.0,0.0,0.0,0.0,0.0,0.0,0.0,0.0,0.0,0.0,0.0,0.0,0.0,0.0,0.0,0.0,0.0,0.0,0.0,0.0,0.0,0.0,0.0,0.0,0.0,0.0,0.0,0.0,0.0,0.0,0.0,0.0,0.0,0.0,0.0,0.0,0.0,0.0,0.0,0.0,0.0,0.0,0.0,0.0,0.0,0.0,0.0,0.0,0.0,0.0,0.0,0.0,0.0,0.0,0.0,0.0,0.0,0.0,0.0,0.0,0.0,0.0,0.0,0.0,0.0,0.0,0.0,0.0,0.0,0.0,0.0,0.0,0.0,0.0,0.0,0.0,0.0,0.0,0.0,0.0,0.0,0.0,0.0,0.0,0.0,0.0,0.0,0.0,0.0,0.0,0.0,0.0,0.0,0.0,0.0,0.0,0.0,0.0,0.0,0.0,0.0,0.0,0.0,0.0,0.0,0.0,0.0,0.0,0.0,0.0,0.0,0.0,0.0,0.0,0.0,0.0,0.0,0.0,0.0,0.0,0.0,0.0,0.0,0.0,0.0,0.0,0.0,0.0,0.0,0.0,0.0,0.0,0.0,0.0,0.0,0.0,0.0,0.0,0.0,0.0,0.0,0.0,0.0,0.0,0.0,0.0,0.0,0.0,0.0,0.0,0.0,0.0,0.0,0.0,0.0,0.0,0.0,0.0,0.0,0.0,0.0,0.0,0.0,0.0,0.0,0.0,0.0,0.0,0.0,0.0,0.0,0.0,0.0,0.0,0.0,0.0,0.0,0.0,0.0,0.0,0.0,0.0,0.0,0.0,0.0,0.0,0.0,0.0,0.0,0.0,0.0,0.0,0.0,0.0,0.0,0.0,0.0,0.0,0.0,0.0,0.0,0.0,0.0,0.0,0.0,0.0,0.0,0.0,0.0,0.0,0.0,0.0,0.0,0.0,0.0,0.0,0.0,0.0,0.0,0.0,0.0,0.0,0.0,0.0,0.0,0.0,0.0,0.0,0.0,0.0,0.0,0.0,0.0,0.0,0.0,0.0,0.0,0.0,0.0,0.0,0.0,0.0,0.0,0.0,0.0,0.0,0.0,0.0,0.0,0.0,0.0,0.0,0.0,0.0,0.0,0.0,0.0,0.0,0.0,0.0,0.0,0.0,0.0,0.0,0.0,0.0,0.0,0.0,0.0,0.0,0.0,0.0,0.0,0.0,0.0,0.0,0.0,0.0,0.0,0.0,0.0,0.0,0.0,0.0,0.0,0.0,0.0,0.0,0.0,0.0,0.0,0.0,0.0,0.0,0.0,0.0,0.0,0.0,0.0,0.0,0.0,0.0,0.0,0.0,0.0,0.0,0.0,0.0,0.0,0.0,0.0,0.0,0.0,0.0,0.0,0.0,0.0,0.0,0.0,0.0,0.0,0.0,0.0,0.0,0.0,0.0,0.0,0.0,0.0,0.0,0.0,0.0,0.0,0.0,0.0,0.0,0.0,0.0,0.0,0.0,0.0,0.0,0.0,0.0,0.0,0.0,0.0,0.0,0.0,0.0,0.0,0.0,0.0,0.0,0.0,0.0,0.0,0.0,0.0,0.0,0.0,0.0,0.0,0.0,0.0,0.0,0.0,0.0,0.0,0.0,0.0,0.0,0.0,0.0,0.0,0.0,0.0,0.0,0.0,0.0,0.0,0.0,0.0,0.0,0.0,0.0,0.0,0.0,0.0,0.0,0.0,0.0,0.0,0.0,0.0,0.0,0.0,0.0,0.0,0.0,0.0,0.0,0.0,0.0,0.0,0.0,0.0,0.0,0.0,0.0,0.0,0.0,0.0,0.0,0.0,0.0,0.0,0.0,0.0,0.0,0.0,0.0,0.0,0.0,0.0,0.0,0.0,0.0,0.0,0.0,0.0,0.0,0.0,0.0,0.0,0.0,0.0,0.0,0.0,0.0,0.0,0.0,0.0,0.0,0.0,0.0,0.0,0.0,0.0,0.0,0.0,0.0,0.0,0.0,0.0,0.0,0.0,0.0,0.0,0.0,0.0,0.0,0.0,0.0,0.0,0.0,0.0,0.0,0.0,0.0,0.0,0.0,0.0,0.0,0.0,0.0,0.0,0.0,0.0,0.0,0.0,0.0,0.0,0.0,0.0,0.0,0.0,0.0,0.0,0.0,0.0,0.0,0.0,0.0,0.0,0.0,0.0,0.0,0.0,0.0,0.0,0.0,0.0,0.0,0.0,0.0,0.0,0.0,0.0,0.0,0.0,0.0,0.0,0.0,0.0,0.0,0.0,0.0,0.0,0.0,0.0,0.0,0.0,0.0,0.0,0.0,0.0,0.0,0.0,0.0,0.0,0.0,0.0,0.0,0.0,0.0,0.0,0.0,0.0,0.0,0.0,0.0,0.0,0.0,0.0,0.0,0.0,0.0,0.0,0.0,0.0,0.0,0.0,0.0,0.0,0.0,0.0,0.0,0.0,0.0,0.0,0.0,0.0,0.0,0.0,0.0,0.0,0.0,0.0,0.0,0.0,0.0,0.0,0.0,0.0,0.0,0.0,0.0,0.0,0.0,0.0,0.0,0.0,0.0,0.0,0.0,0.0,0.0,0.0,0.0,0.0,0.0,0.0,0.0,0.0,0.0,0.0,0.0,0.0,0.0,0.0,0.0,0.0,0.0,0.0,0.0,0.0,0.0,0.0,0.0,0.0,0.0,0.0,0.0,0.0,0.0,0.0,0.0,0.0,0.0,0.0,0.0,0.0,0.0,0.0,0.0,0.0,0.0,0.0,0.0,0.0,0.0,0.0,0.0,0.0,0.0,0.0,0.0,0.0,0.0,0.0,0.0,0.0,0.0,0.0,0.0,0.0,0.0,0.0,0.0,0.0,0.0,0.0,0.0,0.0,0.0,0.0,0.0,0.0,0.0,0.0,0.0,0.0,0.0,0.0,0.0,0.0,0.0,0.0,0.0,0.0,0.0,0.0,0.0,0.0,0.0,0.0,0.0,0.0,0.0,0.0,0.0,0.0,0.0,0.0,0.0,0.0,0.0,0.0,0.0,0.0,0.0,0.0,0.0,0.0,0.0,0.0,0.0,0.0,0.0,0.0,0.0,0.0,0.0,0.0,0.0,0.0,0.0,0.0,0.0,0.0,0.0,0.0,0.0,0.0,0.0,0.0,0.0,0.0,0.0,0.0,0.0,0.0,0.0,0.0,0.0,0.0,0.0,0.0,0.0,0.0,0.0,0.0,0.0,0.0,0.0,0.0,0.0,0.0,0.0,0.0,0.0,0.0,0.0,0.0,0.0,0.0,0.0,0.0,0.0,0.0,0.0,0.0,0.0,0.0,0.0,0.0,0.0,0.0,0.0,0.0,0.0,0.0,0.0,0.0,0.0,0.0,0.0,0.0,0.0,0.0,0.0,0.0,0.0,0.0,0.0,0.0,0.0,0.0,0.0,0.0,0.0,0.0,0.0,0.0,0.0,0.0,0.0,0.0,0.0,0.0,0.0,0.0,0.0,0.0,0.0,0.0,0.0,0.0,0.0,0.0,0.0,0.0,0.0,0.0,0.0,0.0,0.0,0.0,0.0,0.0,0.0,0.0,0.0,0.0,0.0,0.0,0.0,0.0,0.0,0.0,0.0,0.0,0.0,0.0,0.0,0.0,0.0,0.0,0.0,0.0,0.0,0.0,0.0,0.0,0.0,0.0,0.0,0.0,0.0,0.0,0.0,0.0,0.0,0.0,0.0,0.0,0.0,0.0,0.0,0.0,0.0,0.0,0.0,0.0,0.0,0.0,0.0,0.0,0.0,0.0,0.0,0.0,0.0,0.0,0.0,0.0,0.0,0.0,0.0,0.0,0.0,0.0,0.0,0.0,0.0,0.0,0.0,0.0,0.0,0.0,0.0,0.0,0.0,0.0,0.0,0.0,0.0,0.0,0.0,0.0,0.0,0.0,0.0,0.0,0.0,0.0,0.0,0.0,0.0,0.0,0.0,0.0,0.0,0.0,0.0,0.0,0.0,0.0,0.0,0.0,0.0,0.0,0.0,0.0,0.0,0.0,0.0,0.0,0.0,0.0,0.0,0.0,0.0,0.0,0.0,0.0,0.0,0.0,0.0,0.0,0.0,0.0,0.0,0.0,0.0,0.0,0.0,0.0,0.0,0.0,0.0,0.0,0.0,0.0,0.0,0.0,0.0,0.0,0.0,0.0,0.0,0.0,0.0,0.0,0.0,0.0,0.0,0.0,0.0,0.0,0.0,0.0,0.0,0.0,0.0,0.0,0.0,0.0,0.0,0.0,0.0,0.0,0.0,0.0,0.0,0.0,0.0,0.0,0.0,0.0,0.0,0.0,0.0,0.0,0.0,0.0,0.0,0.0,0.0,0.0,0.0,0.0,0.0,0.0,0.0,0.0,0.0,0.0,0.0,0.0,0.0,0.0,0.0,0.0,0.0,0.0,0.0,0.0,0.0,0.0,0.0,0.0,0.0,0.0,0.0,0.0,0.0,0.0,0.0,0.0,0.0,0.0,0.0,0.0,0.0,0.0,0.0,0.0,0.0,0.0,0.0,0.0,0.0,0.0,0.0,0.0,0.0,0.0,0.0,0.0,0.0,0.0,0.0,0.0,0.0,0.0,0.0,0.0,0.0,0.0,0.0,0.0,0.0,0.0,0.0,0.0,0.0,0.0,0.0,0.0,0.0,0.0,0.0,0.0,0.0,0.0,0.0,0.0,0.0,0.0,0.0,0.0,0.0,0.0,0.0,0.0,0.0,0.0,0.0,0.0,0.0,0.0,0.0,0.0,0.0,0.0,0.0,0.0,0.0,0.0,0.0,0.0,0.0,0.0,0.0,0.0,0.0,0.0,0.0,0.0,0.0,0.0,0.0,0.0,0.0,0.0,0.0,0.0,0.0,0.0,0.0,0.0,0.0,0.0,0.0,0.0,0.0,0.0,0.0,0.0,0.0,0.0,0.0,0.0,0.0,0.0,0.0,0.0,0.0,0.0,0.0,0.0,0.0,0.0,0.0,0.0,0.0,0.0,0.0,0.0,0.0,0.0,0.0,0.0,0.0,0.0,0.0,0.0,0.0,0.0,0.0,0.0,0.0,0.0,0.0,0.0,0.0,0.0,0.0,0.0,0.0,0.0,0.0,0.0,0.0,0.0,0.0,0.0,0.0,0.0,0.0,0.0,0.0,0.0,0.0,0.0,0.0,0.0,0.0,0.0,0.0,0.0,0.0,0.0,0.0,0.0,0.0,0.0,0.0,0.0,0.0,0.0,0.0,0.0,0.0,0.0,0.0,0.0,0.0,0.0,0.0,0.0,0.0,0.0,0.0,0.0,0.0,0.0,0.0,0.0,0.0,0.0,0.0,0.0,0.0,0.0,0.0,0.0,0.0,0.0,0.0,0.0,0.0,0.0,0.0,0.0,0.0,0.0,0.0,0.0,0.0,0.0,0.0,0.0,0.0,0.0,0.0,0.0,0.0,0.0,0.0,0.0,0.0,0.0,0.0,0.0,0.0,0.0,0.0,0.0,0.0,0.0,0.0,0.0,0.0,0.0,0.0,0.0,0.0,0.0,0.0,0.0,0.0,0.0,0.0,0.0,0.0,0.0,0.0,0.0,0.0,0.0,0.0,0.0,0.0,0.0,0.0,0.0,0.0,0.0,0.0,0.0,0.0,0.0,0.0,0.0,0.0,0.0,0.0,0.0,0.0,0.0,0.0,0.0,0.0,0.0,0.0,0.0,0.0,0.0,0.0,0.0,0.0,0.0,0.0,0.0,0.0,0.0,0.0,0.0,0.0,0.0,0.0,0.0,0.0,0.0,0.0,0.0,0.0,0.0,0.0,0.0,0.0,0.0,0.0,0.0,0.0,0.0,0.0,0.0,0.0,0.0,0.0,0.0,0.0,0.0,0.0,0.0,0.0,0.0,0.0,0.0,0.0,0.0,0.0,0.0,0.0,0.0,0.0,0.0,-4.7011,0.0,0.0,0.0,0.0,0.0,0.0,0.0,0.0,0.0,0.0,0.0,0.0,0.0,0.0,0.0,0.0,0.0,0.0,0.0,0.0,0.0,0.0,0.0,0.0,-2.898,-3.0039,-2.9766,-3.0182,-3.044,-3.0311,0.0,0.0,0.0,0.0,0.0,-2.9737,-2.9313,-2.9506,-3.0352,-3.0183,-3.0806,-3.209,-3.1938,-3.098,-2.9396,0.0,0.0,0.0,0.0,0.0,0.0,0.0,0.0,0.0,0.0,0.0,0.0,0.0,0.0,0.0,0.0,0.0,0.0,0.0,0.0,0.0,0.0,0.0,0.0,0.0,0.0,0.0,0.0,0.0,0.0,0.0,0.0,0.0,0.0,0.0,0.0,0.0,0.0,0.0,0.0,0.0,0.0,0.0,0.0,0.0,0.0,0.0,0.0,0.0,0.0,0.0,0.0,0.0,0.0,0.0,0.0,0.0,0.0,0.0,0.0,0.0,0.0,0.0,0.0,0.0,0.0,0.0,0.0,0.0,0.0,0.0,-4.9537,0.0,0.0,0.0,0.0,0.0,0.0,0.0,0.0,0.0,0.0,0.0,0.0,0.0,0.0,0.0,0.0,0.0,0.0,0.0,0.0,0.0,-2.5485,-2.6984,-2.9269,-3.0455,-2.9926,-3.0697,-3.097,-3.0487,-3.0438,0.0,0.0,0.0,-3.0425,-3.0385,-3.0538,-3.0962,-3.1698,-3.206,-3.2767,-3.3788,-3.4711,-3.3552,-3.0703,-3.0214,0.0,0.0,0.0,0.0,0.0,0.0,0.0,0.0,0.0,0.0,0.0,0.0,0.0,0.0,0.0,0.0,0.0,0.0,0.0,0.0,0.0,0.0,0.0,0.0,0.0,0.0,0.0,0.0,0.0,0.0,0.0,0.0,0.0,0.0,0.0,0.0,0.0,0.0,0.0,0.0,0.0,0.0,0.0,0.0,0.0,0.0,0.0,0.0,0.0,0.0,0.0,0.0,0.0,0.0,0.0,0.0,0.0,0.0,0.0,0.0,0.0,0.0,0.0,-5.5823,-5.5632,-5.5632,-5.5683,-5.567,-5.5594,-5.4918,-5.4115,-5.3123,-5.1476,0.0,0.0,0.0,0.0,0.0,0.0,0.0,0.0,0.0,0.0,0.0,0.0,0.0,0.0,0.0,0.0,0.0,0.0,0.0,-2.6139,-2.6951,-2.917,-3.0613,-3.0567,-3.1427,-3.1704,-3.1116,-3.1255,0.0,-3.0361,-3.0442,-3.0447,-3.0385,-3.1154,-3.1583,-3.1698,-3.4389,-3.5806,-3.5995,-3.717,-3.7054,-3.5799,-3.3473,-3.2412,-3.2221,0.0,0.0,0.0,0.0,0.0,0.0,0.0,0.0,0.0,0.0,0.0,0.0,0.0,0.0,0.0,0.0,0.0,0.0,0.0,0.0,0.0,0.0,0.0,0.0,0.0,0.0,0.0,0.0,0.0,0.0,0.0,0.0,0.0,0.0,0.0,0.0,0.0,0.0,0.0,0.0,0.0,-4.3636,-4.4533,0.0,0.0,0.0,0.0,0.0,0.0,0.0,0.0,0.0,0.0,0.0,0.0,0.0,-5.6193,-5.6359,-5.8486,-5.9671,-5.984,-6.1124,-6.1745,-6.1745,-6.1745,-6.1745,-6.1745,-6.1631,0.0,-5.4906,-5.3199,0.0,0.0,0.0,0.0,0.0,0.0,0.0,0.0,0.0,0.0,0.0,0.0,0.0,0.0,0.0,0.0,0.0,0.0,0.0,0.0,0.0,-2.924,-3.0681,-3.0696,-3.2345,-3.2951,-3.1939,-3.2027,-3.1771,-3.1066,-3.0706,-3.0684,-3.1121,-3.1506,-3.2622,-3.45,-3.7325,-3.8861,-3.9176,-4.0144,-4.0106,-3.9113,-3.7902,-3.6035,-3.3641,-3.1662,0.0,0.0,0.0,0.0,0.0,0.0,0.0,0.0,0.0,0.0,0.0,0.0,0.0,0.0,0.0,0.0,0.0,0.0,0.0,0.0,0.0,0.0,0.0,0.0,0.0,0.0,0.0,0.0,0.0,0.0,0.0,0.0,0.0,0.0,0.0,0.0,0.0,0.0,0.0,-4.4387,-4.6741,-4.5707,-4.771,-4.8492,0.0,0.0,0.0,0.0,0.0,0.0,0.0,0.0,0.0,-5.7581,-5.8345,-5.9428,-6.0909,-6.2003,-6.2792,-6.3279,-6.3976,-6.4305,-6.4305,-6.3847,-6.3618,-6.3579,-6.3121,-6.1669,-5.9453,-5.7237,-5.5594,-5.4256,0.0,0.0,0.0,0.0,-5.1882,-5.212,0.0,0.0,0.0,0.0,0.0,0.0,0.0,0.0,0.0,0.0,0.0,0.0,-2.7403,-2.9804,-3.1432,-3.164,-3.3534,-3.4206,-3.2978,-3.2686,-3.221,-3.1468,-3.0932,-3.0976,-3.161,-3.2526,-3.448,-3.7586,-3.9984,-4.1451,-4.1943,-4.2754,-4.2709,-4.1906,-4.1606,-3.9363,-3.5668,-3.3977,-3.2447,-3.1011,0.0,0.0,0.0,0.0,0.0,0.0,0.0,0.0,0.0,0.0,0.0,0.0,0.0,0.0,0.0,0.0,0.0,0.0,0.0,0.0,0.0,0.0,0.0,0.0,0.0,0.0,0.0,0.0,0.0,0.0,0.0,0.0,0.0,0.0,0.0,0.0,0.0,-4.7184,-4.9307,-4.8024,-5.044,-5.1224,0.0,0.0,0.0,0.0,0.0,0.0,-5.7772,-5.8307,-5.9491,-6.1593,-6.1898,-6.293,-6.4802,-6.5031,-6.5452,-6.6025,-6.6025,-6.6025,-6.6025,-6.5413,-6.5161,-6.5123,-6.4458,-6.4076,-6.3656,-6.0905,-5.888,-5.7428,-5.5938,-5.4728,-5.3899,-5.4753,-5.4715,-5.4599,0.0,0.0,0.0,0.0,0.0,0.0,0.0,0.0,0.0,0.0,0.0,-2.7592,-2.8445,-3.1239,-3.3385,-3.4143,-3.504,-3.5189,-3.4341,-3.3059,-3.1938,-3.1062,-3.108,-3.118,-3.1391,-3.4714,-3.7609,-3.9948,-4.1955,-4.3205,-4.3672,-4.4482,-4.4767,-4.4549,-4.3553,-4.1707,-3.9328,-3.77,-3.6086,-3.4338,-3.1929,0.0,0.0,0.0,0.0,0.0,0.0,0.0,0.0,0.0,0.0,0.0,0.0,0.0,0.0,0.0,0.0,0.0,0.0,0.0,0.0,0.0,0.0,0.0,0.0,0.0,0.0,0.0,0.0,0.0,0.0,0.0,0.0,0.0,0.0,0.0,0.0,0.0,0.0,-5.3005,-5.4109,0.0,0.0,0.0,0.0,-5.6255,-5.7873,-5.9568,-6.1249,-6.293,-6.4229,-6.5108,-6.5948,-6.6445,-6.656,-6.7324,-6.7706,-6.7744,-6.7744,-6.7744,-6.7744,-6.7706,-6.7706,-6.7706,-6.7668,-6.7209,-6.6254,-6.2853,-6.0981,-6.0102,-5.9185,-5.7875,-5.6588,-5.7416,-5.7735,-5.7889,0.0,0.0,0.0,0.0,0.0,-2.0313,-2.1658,-2.2155,-2.2892,-2.4313,-2.6214,-2.7979,-2.9292,-3.1789,-3.3896,-3.5149,-3.5948,-3.6119,-3.5393,-3.384,-3.2921,-3.2803,-3.1835,-3.2163,-3.4009,-3.6703,-3.9047,-4.0931,-4.2738,-4.3989,-4.4646,-4.5065,-4.5191,-4.5121,-4.4737,-4.3775,-4.2324,-3.9965,-3.8097,-3.6537,-3.4486,-3.2952,0.0,0.0,0.0,0.0,0.0,0.0,0.0,0.0,0.0,0.0,0.0,0.0,0.0,0.0,0.0,0.0,0.0,0.0,0.0,0.0,0.0,0.0,0.0,0.0,0.0,0.0,0.0,0.0,0.0,0.0,0.0,0.0,0.0,0.0,0.0,0.0,0.0,-5.4808,-5.6775,0.0,-5.6326,-5.8049,-5.9393,-5.9797,-6.1402,-6.3121,-6.4802,-6.5452,-6.6178,-6.698,-6.7324,-6.7973,-6.9082,-6.9387,-6.9807,-7.0359,-7.0359,-7.0037,-6.9502,-6.8967,-6.8738,-6.8699,-6.8126,-6.7744,-6.7362,-6.6139,-6.4535,-6.2753,-6.1898,-6.1186,-6.0704,-6.1019,-6.1148,-6.1201,0.0,0.0,0.0,0.0,-1.993,-2.0462,-2.2105,-2.2401,-2.3138,-2.5115,-2.6885,-2.8692,-3.0644,-3.3002,-3.5087,-3.6594,-3.6885,-3.681,-3.6405,-3.4425,-3.342,-3.3738,-3.3058,-3.4022,-3.69,-3.8891,-4.0587,-4.1998,-4.3663,-4.4645,-4.4984,-4.5301,-4.5381,-4.5339,-4.5319,-4.5003,-4.4343,-4.2491,-4.0682,-3.8885,-3.7134,-3.606,-3.5177,0.0,0.0,0.0,0.0,0.0,0.0,0.0,0.0,0.0,0.0,0.0,0.0,0.0,0.0,0.0,0.0,0.0,0.0,0.0,0.0,0.0,0.0,0.0,0.0,0.0,0.0,0.0,0.0,0.0,0.0,0.0,0.0,0.0,0.0,0.0,-5.6689,-5.7175,-5.9624,-6.076,-5.9384,-6.1453,-6.3006,-6.3312,-6.4382,-6.5796,-6.7439,-6.7821,-6.8317,-6.9158,-6.9464,-7.0151,-7.1259,-7.1298,-7.1565,-7.2138,-7.2138,-7.168,-7.0839,-7.0304,-6.9884,-6.9578,-6.9005,-6.8585,-6.8317,-6.8317,-6.7209,-6.5337,-6.4496,-6.4,-6.3732,-6.3427,-6.3159,-6.2892,0.0,0.0,0.0,-2.0012,-1.9968,-2.048,-2.2242,-2.2432,-2.3347,-2.598,-2.7826,-2.9917,-3.2431,-3.4901,-3.7045,-3.8632,-3.7709,-3.7128,-3.7237,-3.4758,-3.3381,-3.3637,-3.4704,-3.6725,-3.9754,-4.112,-4.2267,-4.3219,-4.4781,-4.5273,-4.4714,-4.5243,-4.5457,-4.54,-4.539,-4.5408,-4.5408,-4.5309,-4.3874,-4.1466,-3.9775,-3.9051,-3.8595,0.0,0.0,0.0,0.0,0.0,0.0,0.0,0.0,0.0,0.0,0.0,0.0,0.0,0.0,0.0,0.0,0.0,0.0,0.0,0.0,0.0,0.0,0.0,0.0,0.0,0.0,0.0,0.0,0.0,0.0,0.0,0.0,0.0,-5.3247,-5.6403,-5.9125,-6.038,-6.2753,-6.3923,-6.3121,-6.4535,-6.5834,-6.6713,-6.6789,-6.7553,-6.9196,-7.0037,-7.0877,-7.1718,-7.2559,-7.3017,-7.3055,-7.3055,-7.3055,-7.3055,-7.3055,-7.2559,-7.1718,-7.1718,-7.1259,-7.0495,-7.0457,-6.9999,-6.9273,-6.9234,-6.8738,-6.7897,-6.7056,-6.6216,-6.5337,-6.4573,-6.3732,-6.2968,0.0,0.0,-2.0007,-2.0007,-1.9974,-2.0526,-2.2249,-2.2464,-2.3411,-2.6028,-2.8356,-3.0536,-3.2558,-3.5009,-3.6778,-3.7581,-3.6807,-3.627,-3.6222,-3.4363,-3.3723,-3.4721,-3.6644,-3.849,-4.0253,-4.1336,-4.2491,-4.3699,-4.4608,-4.5,-4.4988,-4.5361,-4.5457,-4.54,-4.539,-4.5381,-4.5381,-4.5371,-4.4978,-4.4174,-4.2441,-4.1371,-4.0549,0.0,0.0,0.0,0.0,0.0,0.0,0.0,0.0,0.0,0.0,0.0,0.0,0.0,0.0,0.0,0.0,0.0,0.0,0.0,0.0,0.0,0.0,0.0,0.0,0.0,0.0,0.0,0.0,0.0,0.0,0.0,0.0,-5.6394,-5.6657,-5.853,-6.0948,-6.3694,-6.4649,-6.5452,-6.6445,-6.6942,-6.7553,-6.8432,-6.9043,-6.9846,-7.0954,-7.1833,-7.2406,-7.2635,-7.2864,-7.3284,-7.3858,-7.3858,-7.3858,-7.3858,-7.3858,-7.3437,-7.2635,-7.2635,-7.252,-7.2253,-7.1603,-7.1221,-7.0954,-7.0342,-6.9922,-6.9578,-6.8126,-6.7056,-6.633,-6.6101,-6.5452,-6.4649,0.0,-2.0148,-2.0022,-2.005,-2.0337,-2.0977,-2.2292,-2.2779,-2.3929,-2.6549,-2.8829,-3.1008,-3.316,-3.5353,-3.6757,-3.7007,-3.6435,-3.5789,-3.5049,-3.4425,-3.5075,-3.7309,-3.8694,-4.0176,-4.1881,-4.2567,-4.3361,-4.4276,-4.4848,-4.5148,-4.5159,-4.5419,-4.5532,-4.5466,-4.5448,-4.5438,-4.5438,-4.541,-4.54,-4.5323,-4.4307,-4.3609,-4.2929,-4.0721,-3.9862,-3.9585,-3.8232,-3.7765,-3.7689,-3.7357,0.0,0.0,0.0,0.0,0.0,0.0,0.0,0.0,0.0,0.0,0.0,0.0,0.0,0.0,0.0,0.0,0.0,0.0,0.0,0.0,0.0,0.0,0.0,0.0,-5.5658,-5.8553,-6.0144,-6.1308,-6.2815,-6.5146,-6.6025,-6.698,-6.8317,-6.8738,-6.9311,-7.019,-7.0686,-7.1336,-7.2176,-7.3055,-7.3514,-7.3514,-7.3858,-7.4278,-7.4736,-7.4736,-7.4736,-7.4736,-7.4736,-7.4316,-7.3514,-7.3514,-7.3323,-7.2979,-7.2444,-7.2024,-7.1658,-7.1145,-7.0724,0.0,0.0,0.0,0.0,0.0,-6.6139,-6.5337,0.0,-2.0227,-2.0127,-2.0215,-2.0828,-2.1591,-2.25,-2.3271,-2.4651,-2.7294,-2.9136,-3.1121,-3.3658,-3.5471,-3.6488,-3.6485,-3.6166,-3.5446,-3.4251,-3.5184,-3.7179,-4.0354,-4.0761,-4.1831,-4.3894,-4.4221,-4.4518,-4.4884,-4.5351,-4.5438,-4.5243,-4.5475,-4.5594,-4.5594,-4.555,-4.5532,-4.5523,-4.5438,-4.5419,-4.5419,-4.5419,-4.5438,-4.5227,-4.2737,-4.2259,-4.2738,-4.1005,-4.0401,-4.0297,-3.9584,0.0,0.0,0.0,0.0,0.0,0.0,0.0,0.0,0.0,0.0,0.0,0.0,0.0,0.0,0.0,0.0,0.0,0.0,0.0,0.0,0.0,0.0,0.0,0.0,-5.7604,-5.9716,-6.309,-6.4121,-6.4764,-6.5605,-6.7095,-6.8394,-6.9234,-7.0075,-7.0877,-7.1642,-7.1871,-7.2329,-7.3093,0.0,0.0,0.0,0.0,-7.5518,-7.5518,-7.5518,-7.5518,-7.5518,-7.5518,-7.508,-7.4354,-7.4354,-7.3972,-7.3284,-7.317,-7.2635,-7.1833,-7.1718,-7.1183,-7.0342,-6.9502,-6.9196,-6.9005,-6.7439,-6.6292,-6.5566,0.0,-2.0286,-2.0387,-2.1042,-2.1268,-2.1852,-2.3322,-2.3771,-2.4899,-2.7505,-2.8758,-3.015,-3.2076,-3.3213,-3.4046,-3.4484,-3.445,-3.4856,-3.5856,-3.8006,-3.9614,-4.0469,-4.2238,-4.3551,-4.4217,-4.4537,-4.4936,-4.5438,-4.5313,-4.5371,-4.5541,-4.5577,-4.5594,-4.5594,-4.5586,-4.5577,-4.5577,-4.5568,-4.5568,-4.5559,-4.5485,-4.5448,-4.5381,-4.4882,-4.4393,-4.3951,-4.3576,-4.3461,-4.3422,-4.3277,-4.2689,-4.1963,-4.1619,-4.0433,0.0,0.0,0.0,0.0,0.0,0.0,0.0,0.0,0.0,0.0,0.0,0.0,0.0,0.0,0.0,0.0,0.0,0.0,0.0,-5.6874,-5.9848,-6.2316,-6.3358,-6.5079,-6.6522,-6.7324,-6.8317,-6.9273,-7.0113,-7.0954,-7.1527,-7.168,-7.2941,-7.3781,-7.3972,-7.4775,-7.5233,-7.5233,-7.5386,-7.5518,-7.5518,-7.5518,-7.5518,-7.5518,0.0,0.0,-7.5233,-7.5233,-7.5157,-7.4966,-7.4278,-7.3514,-7.2673,-7.1985,-7.1183,-7.0342,-6.9502,-6.9196,-6.9082,-6.805,-6.7133,-6.6445,-2.1761,-2.1629,-2.1664,-2.2051,-2.2421,-2.2895,-2.3688,-2.4246,-2.538,-2.7629,-2.8289,-2.9361,-3.1555,-3.2179,-3.2557,-3.2859,-3.3168,-3.4397,-3.6889,-3.8665,-4.0428,-4.2316,-4.349,-4.4373,-4.4932,-4.5122,-4.5313,-4.5594,-4.5457,-4.5457,-4.5594,-4.5594,-4.5594,-4.5594,-4.5594,-4.5594,-4.5594,-4.5594,-4.5594,-4.5594,-4.5568,-4.5541,-4.5485,-4.5485,-4.5263,-4.4944,-4.497,-4.494,-4.494,-4.494,-4.4619,-4.4133,-4.3702,-4.2843,-4.1799,0.0,0.0,0.0,0.0,0.0,0.0,0.0,0.0,0.0,0.0,0.0,0.0,0.0,0.0,-5.1536,0.0,0.0,-5.7066,-5.9709,-6.1708,-6.3408,-6.4888,-6.6373,-6.7439,-6.7859,-6.8661,-6.9502,-7.0342,-7.1183,-7.1871,-7.2329,-7.3514,-7.4393,-7.4813,-7.5271,-7.5518,-7.5518,-7.5518,-7.5518,-7.5518,-7.5518,-7.5518,-7.5518,-7.5518,-7.5518,-7.5518,-7.5518,-7.5518,-7.548,-7.5042,-7.4163,-7.2902,-7.1603,-7.0801,-7.0381,-6.996,-6.954,-6.9158,-6.8699,-6.7782,-6.6713,-2.3187,-2.3389,-2.3336,-2.3099,-2.3556,-2.4009,-2.4088,-2.4891,-2.6087,-2.7726,-2.8082,-2.9028,-3.1323,-3.156,-3.1695,-3.199,-3.2909,-3.4757,-3.7827,-3.9146,-4.1123,-4.4162,-4.447,-4.4893,-4.5594,-4.5594,-4.5594,-4.5603,-4.5603,-4.5603,-4.5603,-4.5603,-4.5603,-4.5594,-4.5594,-4.5594,-4.5594,-4.5594,-4.5594,-4.5594,-4.5594,-4.5594,-4.5586,-4.555,-4.5559,-4.5594,-4.5594,-4.5479,-4.5364,-4.5556,-4.5479,-4.5248,-4.4701,-4.4533,-4.4163,-4.2648,-4.2351,0.0,0.0,0.0,0.0,0.0,0.0,0.0,0.0,0.0,-5.0416,-5.1912,-5.2711,-5.3995,-5.6748,-5.7519,-5.8858,-6.2326,-6.3153,-6.4162,-6.6362,-6.755,-6.8126,-6.8126,-6.889,-6.9769,-7.0572,-7.145,-7.2291,-7.317,-7.3972,-7.4775,-7.548,-7.5518,-7.5577,-7.573,-7.573,-7.5806,-7.5959,-7.5806,-7.573,-7.573,-7.5577,-7.5518,-7.5518,-7.5518,-7.5518,-7.548,-7.531,-7.4393,-7.2864,-7.1298,-7.0572,-7.0419,-7.0419,-6.9999,-6.9409,-6.9344,-6.8406,-6.7155,0.0,-2.4778,-2.4953,-2.4195,-2.4121,-2.4374,-2.5042,-2.5966,-2.6947,-2.7886,-2.8655,-2.9549,-3.0636,-3.0714,-3.1308,-3.275,-3.495,-3.7062,-3.8985,-4.133,-4.3145,-4.4239,-4.5056,-4.5518,-4.5594,-4.5594,-4.5612,-4.5693,-4.5693,-4.5693,-4.5693,-4.5693,-4.5667,-4.5594,-4.5594,-4.5594,-4.5594,-4.5594,-4.5594,-4.5594,-4.5594,-4.5594,-4.5594,-4.5586,-4.5586,-4.5594,-4.5594,-4.5094,-4.4547,-4.5325,-4.5094,-4.4547,-4.5248,-4.5432,-4.5252,-4.4239,-4.4284,-4.4498,-4.3684,-4.4322,-4.5801,-4.8153,-4.9461,-5.1072,0.0,0.0,-5.4847,-5.6824,-5.7262,-5.7666,-5.8707,-6.0089,-6.1459,-6.2622,-6.4115,-6.5451,-6.6473,-6.8028,-6.9043,-6.9043,-6.9769,-7.061,-7.145,-7.2329,-7.317,-7.401,-7.4851,-7.5403,-7.548,-7.5518,-7.5806,-7.6532,-7.657,-7.6953,-7.7717,-7.6953,-7.657,-7.657,-7.5844,-7.5518,-7.5518,-7.5518,-7.5518,-7.548,-7.466,-7.3819,-7.2902,-7.1947,-7.1107,-7.0419,-7.0419,-7.0342,-7.0217,-6.9867,-6.9368,-6.8728,0.0,-2.5392,-2.5484,-2.5099,-2.4937,-2.4989,-2.5253,-2.6125,-2.7055,-2.7898,-2.832,-2.9055,-3.0443,-3.0574,-3.1007,-3.2127,-3.4077,-3.6161,-3.8392,-4.0931,-4.2931,-4.4239,-4.5133,-4.5603,-4.5667,-4.5676,-4.5654,-4.5695,-4.5695,-4.5695,-4.5695,-4.5695,-4.5679,-4.5676,-4.5676,-4.5659,-4.5594,-4.5594,-4.5594,-4.5594,-4.5594,-4.5594,-4.5594,-4.5594,-4.5287,-4.4855,-4.4855,-4.4624,0.0,-4.4162,-4.3893,-4.3662,-4.4008,-4.4107,-4.3995,-4.3587,-4.418,-4.5114,-4.5726,-4.75,-4.9428,-5.0469,-5.2119,-5.394,-5.5794,-5.6321,-5.6642,-5.7505,-5.8058,-5.8666,-5.9696,-6.0456,-6.1664,0.0,-6.4919,-6.5855,-6.7161,-6.7986,-6.8432,-6.8432,-6.9196,-7.0037,-7.0877,-7.2176,-7.3132,-7.3476,-7.4736,-7.5518,-7.5518,-7.5518,-7.5844,-7.6685,-7.6685,-7.7105,-7.7984,-7.7144,-7.6685,-7.6685,-7.5883,-7.5518,-7.5518,-7.5518,-7.5518,-7.5442,-7.4584,-7.3743,-7.2941,-7.2062,-7.1183,-7.0419,-7.0419,-7.0419,-7.0402,-7.0213,-6.9752,-6.9065,0.0,-2.5524,-2.5671,-2.5603,-2.5538,-2.543,-2.5374,-2.6322,-2.731,-2.7933,-2.8436,-2.921,-3.0443,-3.0554,-3.0904,-3.1973,-3.339,-3.5398,-3.8161,-4.0277,-4.2316,-4.4201,-4.4893,-4.5381,-4.5701,-4.5701,-4.5726,-4.5743,-4.5743,-4.5743,-4.5743,-4.5743,-4.5711,-4.5701,-4.5701,-4.5676,-4.5594,-4.5594,-4.5594,-4.5594,-4.5594,-4.5594,-4.5556,-4.5325,-4.4855,-4.4316,-4.4316,-4.4008,-4.3508,-4.2931,-4.2739,-4.2739,-4.2739,-4.2868,-4.3103,-4.3481,-4.4651,-4.6118,-4.759,-4.9816,-5.1842,-5.2352,-5.4384,-5.6344,-5.6872,-5.7566,-5.804,-5.7883,-5.8409,-5.9143,-5.9926,-6.0419,-6.1721,-6.4705,-6.5499,-6.6293,-6.7859,-6.8193,-6.8165,-6.7935,-6.847,-6.9158,-6.9999,-7.1642,-7.2826,-7.3284,-7.4469,-7.5233,-7.548,-7.5518,-7.5959,-7.7029,-7.7067,-7.7564,-7.8672,-7.7831,-7.7296,-7.7067,-7.6227,-7.5692,-7.5518,-7.5518,-7.5518,-7.548,-7.4813,-7.3972,-7.2941,-7.2329,-7.1412,-7.0419,-7.0419,-7.0419,-7.0419,-7.0419,-7.0037,-6.9371,0.0,0.0,-2.5665,-2.5613,-2.5598,-2.5586,-2.5515,-2.6912,-2.7972,-2.801,-2.9476,-3.0559,-3.0598,-3.0554,-3.1174,-3.2821,-3.3737,-3.5629,-3.9053,-4.0054,-4.167,-4.4201,-4.4316,-4.4765,-4.5662,-4.5701,-4.5742,-4.5788,-4.5788,-4.5788,-4.5788,-4.5788,-4.5743,-4.5701,-4.5701,-4.5676,-4.5594,-4.5594,-4.5594,-4.5594,-4.5594,-4.5594,-4.5518,-4.4662,-4.4316,-4.4316,-4.4316,-4.3278,-4.1885,-4.1846,-4.1846,-4.1846,-4.1846,-4.2431,-4.3385,-4.4956,-4.659,-4.8084,-4.8928,-5.0434,-5.2198,-5.3809,-5.6149,-5.8145,-5.8535,-5.9262,-5.9592,-5.8817,-5.9243,-5.9662,-5.9278,-6.0529,-6.2266,-6.4396,-6.578,-6.7005,-6.83,-6.8866,-6.8852,-6.8012,-6.7897,-6.8279,0.0,-7.0763,-7.2406,-7.4049,-7.4201,-7.4622,-7.5442,-7.5518,-7.6265,-7.7908,-7.7946,-7.8748,-8.0391,-7.9627,-7.8787,-7.7946,-7.7067,-7.6265,-7.5518,-7.5518,-7.5518,-7.5518,-7.5462,-7.4507,-7.2979,-7.2979,-7.1947,-7.0419,-7.0419,-7.0419,-7.0419,-7.0419,-7.0364,-7.0064,0.0,0.0,0.0,-2.6451,-2.6895,-2.7256,-2.7221,-2.7687,-2.801,-2.801,-2.9515,0.0,0.0,0.0,0.0,0.0,-3.2877,-3.4314,-3.6622,-3.8623,-4.0323,-4.1708,-4.2887,-4.392,-4.4893,-4.4917,-4.5186,-4.5786,-4.5786,-4.5786,-4.5786,-4.5786,-4.5795,-4.5743,-4.5719,-4.5679,-4.5676,-4.5603,-4.5932,-4.6355,-4.5201,-4.5094,-4.5518,-4.4624,-4.3624,-4.2739,0.0,-4.2777,-4.1692,-4.1123,-4.0931,-4.0931,-4.0931,-4.1546,-4.2692,-4.4914,-4.6762,-4.849,-5.045,-5.2267,-5.4111,-5.6379,-5.7993,-5.9199,-5.992,-6.0036,-5.983,-5.9304,-5.9059,-5.9218,-5.989,-6.0015,-6.1315,-6.5304,-6.6345,-6.718,-6.8756,-7.0047,-6.9922,-6.74,-6.8547,0.0,0.0,0.0,0.0,-7.3284,-7.3896,-7.4584,-7.5442,-7.5518,-7.6265,-7.7946,-7.8022,-7.8787,-8.0468,-7.9704,-7.8863,-7.7984,-7.657,-7.5768,-7.5518,-7.5518,-7.5518,-7.5518,-7.5518,-7.4851,-7.3743,-7.3208,-7.2291,-7.1221,-7.0648,-7.0419,-7.0419,-7.0419,-7.0419,-7.0211,0.0,0.0,0.0,0.0,0.0,0.0,0.0,0.0,0.0,0.0,0.0,0.0,0.0,0.0,0.0,0.0,0.0,-3.366,-3.5385,-3.7315,-3.9008,-4.0439,-4.1309,-4.2464,-4.399,-4.3743,-4.4011,-4.491,-4.491,-4.491,-4.491,-4.522,-4.5353,-4.5356,-4.5588,-4.5703,-4.5701,-4.5304,-4.547,-4.5855,-4.4432,-4.4201,-4.4624,-4.3739,-4.2739,0.0,-4.2085,-4.1816,-4.12,-4.0362,-4.0246,-4.0516,-4.0516,-4.17,-4.3547,-4.547,-4.7452,-4.9586,-5.2154,-5.4087,-5.5934,-5.8165,-5.9358,-6.0127,-6.0666,-6.0403,-5.9794,-5.9097,-5.8521,-5.8275,-5.8603,-5.8731,-6.0106,-6.4224,-6.5905,-6.7276,-6.8962,-7.0648,-7.0801,-6.8317,-6.9425,-7.0342,0.0,0.0,0.0,-7.3284,-7.3896,-7.4584,-7.5442,-7.5518,-7.6265,-7.7946,-7.8022,-7.8672,-8.0047,-7.9569,-7.871,-7.7526,-7.615,-7.5518,-7.5518,-7.5518,-7.5518,-7.5518,-7.5518,-7.4851,-7.3743,-7.3208,-7.2291,-7.1183,-7.061,-7.0419,-7.0419,-7.0419,-7.0419,-7.0304,0.0,0.0,0.0,0.0,0.0,0.0,0.0,0.0,0.0,0.0,0.0,0.0,0.0,0.0,0.0,0.0,0.0,0.0,-3.5346,-3.6231,-3.7777,-4.0208,-3.9669,-4.0477,-4.3026,-4.2293,-4.2367,-4.3285,-4.3285,-4.3285,-4.3324,-4.413,-4.4503,-4.446,-4.5241,-4.5587,-4.5508,-4.4611,-4.4239,-4.4239,-4.3393,-4.3047,-4.3008,-4.2124,-4.1769,-4.1623,-4.0854,-4.0554,-4.0439,-3.9708,-3.9977,-4.0708,-4.0785,-4.3094,-4.5941,-4.6855,-4.8933,-5.1443,-5.3933,-5.5857,-5.7522,-5.9165,-6.0204,-6.0781,-6.0742,-6.0351,-5.9627,-5.8396,-5.7716,-5.7031,0.0,0.0,-5.8836,-6.1429,-6.4609,-6.7352,-6.9039,-7.0763,-7.1527,0.0,0.0,0.0,0.0,0.0,0.0,-7.4125,0.0,-7.4584,-7.5442,-7.5518,-7.6227,-7.787,-7.7946,-7.8366,-7.9225,-7.9187,-7.8328,-7.6685,-7.5883,-7.5518,-7.5518,-7.5518,-7.5518,-7.5518,-7.5518,-7.4584,-7.3132,-7.3055,-7.2024,-7.0533,-7.0419,-7.0419,-7.0419,-7.0419,-7.0402,-7.0233,0.0,0.0,0.0,0.0,0.0,0.0,0.0,0.0,0.0,0.0,0.0,0.0,0.0,0.0,0.0,0.0,0.0,0.0,-3.4507,-3.5892,-3.7,-3.7661,-3.8729,-3.9921,-4.1251,-4.1735,-4.2426,-4.3285,-4.3285,-4.3285,-4.3285,-4.3518,-4.3627,-4.3613,-4.3789,-4.3829,-4.3813,-4.3541,-4.3739,-4.4162,-4.2739,-4.2508,-4.3008,-4.2124,-4.1393,-4.0893,-4.1316,-4.147,-4.1431,-4.1239,-4.2124,0.0,0.0,-4.6278,-4.7894,-5.0,-5.201,-5.3933,-5.5868,-5.7588,-5.9127,-6.0204,-6.0627,-6.0627,-5.9973,-5.9688,-5.9093,-5.7557,-5.7093,-5.6846,0.0,0.0,0.0,-6.2198,-6.5474,0.0,-6.9861,-7.2673,0.0,-7.1603,0.0,-7.3093,-7.2711,-7.3208,0.0,0.0,-7.4584,-7.4584,-7.5442,-7.5518,-7.5959,-7.6991,-7.7029,-7.7449,-7.8328,-7.7678,-7.7144,-7.6685,-7.5883,-7.5518,-7.5518,-7.5518,-7.5518,-7.5518,-7.5518,-7.5251,-7.4792,-7.3514,-7.275,-7.2215,-7.0916,-7.0419,-7.0419,-7.0419,-7.0213,-6.9813,0.0,0.0,0.0,0.0,0.0,0.0,0.0,0.0,0.0,0.0,0.0,0.0,0.0,0.0,0.0,0.0,0.0,0.0,0.0,-3.543,-3.6346,-3.6692,-3.7291,-3.8218,-3.9476,-4.003,-4.0726,-4.1622,-4.2009,-4.2202,-4.2202,-4.255,-4.2744,-4.2737,-4.3055,-4.3219,-4.3173,-4.2741,-4.2777,0.0,0.0,-4.1508,-4.1893,-4.1431,-4.0931,-4.0631,-4.1508,-4.2277,-4.297,0.0,0.0,-4.5663,-4.7009,-4.85,-5.0192,-5.2395,0.0,-5.5972,-5.7627,-5.905,-6.0204,-6.0666,-6.0781,-6.045,-5.9086,-5.8819,-5.8148,-5.5621,-5.5446,0.0,-5.4559,-5.6073,0.0,0.0,0.0,0.0,-7.0167,-7.3323,-7.4983,0.0,-7.4201,0.0,-7.4125,-7.4507,-7.4966,0.0,-7.5042,-7.4966,-7.5462,-7.5518,-7.5844,-7.6685,-7.6685,-7.6914,-7.7411,-7.657,-7.615,-7.615,-7.5709,-7.5518,-7.5518,-7.5518,-7.5518,-7.5518,0.0,-7.5271,-7.4813,-7.3514,-7.275,-7.2291,-7.0916,-7.0419,-7.0419,-7.0419,-7.0144,-6.9664,0.0,0.0,0.0,0.0,0.0,0.0,0.0,0.0,0.0,0.0,0.0,0.0,0.0,0.0,0.0,0.0,0.0,0.0,0.0,0.0,-3.5808,-3.65,-3.5962,-3.6388,-3.7894,-3.8164,-3.8659,-3.9501,-4.0352,-4.0816,-4.0816,-4.1506,-4.1854,-4.1854,-4.2553,-4.2833,-4.2787,-4.1971,-4.1623,-4.1546,-4.0785,-4.0516,-4.0516,0.0,-4.0554,-4.0785,-4.1777,-4.3085,0.0,0.0,-4.6509,-4.7394,-4.8317,-5.0346,-5.2731,-5.4472,-5.6088,-5.7676,-5.9242,-6.0204,-6.0781,-6.0781,-6.0704,-6.0119,-5.8157,-5.7779,-5.6886,-5.3386,0.0,-5.3513,-5.175,-5.4216,-5.7047,-5.8476,0.0,-6.8223,-7.0145,-7.3132,-7.5251,-7.548,-7.5518,-7.5518,-7.5518,-7.5518,-7.5518,-7.5518,-7.5518,-7.5518,-7.5518,-7.5518,-7.5806,-7.6532,-7.6532,-7.6532,-7.6532,-7.5844,-7.5518,-7.5518,-7.5518,-7.5518,-7.5518,-7.5518,-7.5518,-7.5518,-7.5518,-7.5004,-7.4125,-7.3323,-7.2482,-7.1603,-7.0724,-7.0419,-7.0419,-7.0419,-7.0144,-6.9664,0.0,0.0,0.0,0.0,0.0,0.0,0.0,0.0,0.0,0.0,-3.2153,-3.205,0.0,0.0,0.0,0.0,0.0,0.0,0.0,0.0,0.0,-3.5692,-3.6192,-3.6657,-3.7,-3.8434,-3.9277,-3.9501,-4.0352,-4.0816,-4.0816,-4.0932,-4.1009,-4.1003,-4.1047,-4.1058,-4.1051,-4.0816,-4.0746,-4.0708,-4.0554,-4.0516,-4.0516,-4.0516,0.0,0.0,-4.3316,0.0,0.0,-4.6894,-4.824,-4.924,-5.0769,-5.301,-5.5395,-5.7126,-5.8319,-5.9281,-6.0281,-6.0666,-6.0781,-6.0781,-6.0242,-5.9269,-5.7532,-5.6629,0.0,0.0,-5.2289,-5.2291,-5.1932,-5.3723,-5.6121,-5.8743,-6.2649,-6.6532,-6.9895,-7.2138,-7.3934,0.0,-7.5518,0.0,0.0,0.0,0.0,0.0,0.0,-7.5518,-7.5518,-7.5518,-7.5539,-7.5692,-7.5692,-7.5692,-7.5692,-7.5577,-7.5518,-7.5518,-7.5518,-7.5518,-7.5518,-7.5518,-7.5518,-7.5518,-7.5518,0.0,-7.4125,-7.3323,-7.2482,-7.1603,-7.0724,-7.0419,-7.0419,-7.0419,-7.0144,-6.9626,0.0,0.0,0.0,0.0,0.0,0.0,0.0,-3.1792,-3.2604,-3.477,-3.4306,-3.3765,-3.3682,-3.4398,-3.4866,0.0,0.0,0.0,0.0,0.0,0.0,0.0,-3.5885,-3.6311,-3.6768,0.0,0.0,0.0,0.0,0.0,0.0,0.0,0.0,0.0,0.0,0.0,-4.0598,-4.0539,-4.0516,-4.0516,-4.0516,-4.0516,0.0,0.0,0.0,0.0,0.0,0.0,0.0,0.0,-4.8048,-4.9086,-5.1231,-5.3664,-5.5934,-5.7242,-5.8511,-5.9704,-6.055,-6.0781,-6.0781,-6.0781,-6.0473,-5.9415,-5.6563,0.0,0.0,0.0,-5.0861,-5.1179,-5.0451,-5.2824,0.0,-5.7335,-6.1279,-6.5293,-6.8613,0.0,0.0,0.0,0.0,0.0,0.0,0.0,0.0,0.0,0.0,-7.496,-7.5483,-7.5518,-7.5518,-7.5518,-7.5518,-7.5518,-7.5518,-7.5518,-7.5518,-7.5518,-7.5518,-7.5518,-7.5518,-7.5518,-7.5518,-7.5518,-7.5518,0.0,-7.4125,-7.3323,-7.2482,-7.1603,-7.0724,-7.0264,-7.0109,-7.0298,-6.9853,-6.8956,0.0,0.0,0.0,0.0,0.0,0.0,0.0,-3.2256,-3.346,-3.6516,-3.6464,-3.5881,-3.518,-3.5502,-3.5769,0.0,0.0,0.0,0.0,0.0,0.0,0.0,0.0,-3.608,0.0,0.0,0.0,0.0,0.0,0.0,0.0,0.0,0.0,0.0,0.0,0.0,0.0,-4.0531,-4.0516,0.0,0.0,0.0,0.0,0.0,0.0,0.0,0.0,0.0,0.0,0.0,-4.7317,-4.824,-5.0385,-5.2972,-5.5318,-5.6214,-5.778,-5.9435,-6.0281,-6.0666,-6.0781,-6.0781,-6.0512,-5.9341,-5.5791,-5.5055,0.0,-4.9594,-4.9602,-5.0079,-4.9158,-5.1714,-5.4463,0.0,-5.9804,-6.3764,0.0,0.0,0.0,0.0,0.0,0.0,0.0,0.0,0.0,0.0,0.0,0.0,-7.5152,-7.5263,-7.5318,-7.5318,-7.5427,-7.5518,-7.5518,-7.5518,-7.5518,-7.5518,-7.5518,-7.5518,-7.5518,-7.5518,-7.5518,-7.5518,-7.5518,0.0,0.0,-7.316,-7.2227,-7.1218,-7.0445,-6.9981,-6.9835,-7.0035,-6.9526,-6.8599,0.0,0.0,0.0,0.0,0.0,0.0,0.0,-3.3654,-3.4814,-3.6671,-3.7531,-3.7925,-3.7778,-3.7049,-3.6577,0.0,0.0,0.0,0.0,0.0,0.0,0.0,0.0,0.0,0.0,0.0,0.0,0.0,0.0,0.0,0.0,0.0,0.0,0.0,0.0,0.0,0.0,0.0,0.0,0.0,0.0,0.0,0.0,0.0,0.0,0.0,0.0,0.0,0.0,0.0,0.0,-4.7192,-4.8163,-5.0741,-5.3587,-5.4472,0.0,0.0,-5.9396,-6.0204,-6.0781,-6.0781,-5.9665,-5.7943,-5.5772,0.0,-5.1888,-4.9524,-4.8879,-4.888,-4.9412,-5.0335,-5.2247,-5.6107,0.0,-6.1206,0.0,0.0,0.0,0.0,0.0,0.0,0.0,0.0,0.0,0.0,0.0,0.0,-7.4169,-7.4561,-7.4766,-7.4766,-7.5245,-7.5518,-7.5518,-7.5518,-7.5518,-7.5518,-7.5518,-7.5518,-7.5518,-7.5518,-7.5518,-7.5518,-7.5518,0.0,0.0,-7.2585,-7.1409,-6.991,-6.9423,-6.9484,-6.974,-6.9344,-6.9405,-6.9451,0.0,0.0,0.0,0.0,0.0,0.0,-3.2836,-3.3378,-3.4775,-3.803,-3.8286,-3.8711,-4.0209,-3.9136,-3.8046,-3.7546,0.0,0.0,0.0,0.0,0.0,0.0,0.0,0.0,0.0,0.0,0.0,0.0,0.0,0.0,0.0,0.0,0.0,0.0,0.0,0.0,0.0,0.0,0.0,0.0,0.0,0.0,0.0,0.0,0.0,0.0,0.0,0.0,0.0,0.0,0.0,0.0,-4.6663,-4.8202,0.0,0.0,-5.5164,-5.7126,-5.9011,-6.0127,-6.0781,-6.0781,-5.979,-5.8119,-5.5614,0.0,-5.1995,-4.9331,-4.8696,-4.8605,-4.8785,-4.9638,-5.1245,-5.4121,-5.6087,-5.8773,-6.3015,0.0,0.0,0.0,0.0,0.0,0.0,0.0,0.0,0.0,0.0,0.0,-7.3616,-7.4287,-7.4705,-7.4705,-7.5226,-7.5518,-7.5518,-7.5518,-7.5518,-7.5518,-7.5518,-7.5518,-7.5518,-7.5518,-7.5518,-7.5462,-7.4927,0.0,0.0,-7.1921,-7.0839,-6.974,-6.9282,-6.9047,-6.9003,-6.9365,-6.9091,-6.8511,0.0,0.0,0.0,0.0,0.0,-3.1178,-3.2836,-3.33,-3.4853,-3.8611,-3.8756,-3.9296,-4.1289,-4.0429,-3.9422,-3.8784,-3.7738,0.0,0.0,0.0,0.0,0.0,0.0,0.0,0.0,0.0,-4.0675,-4.1974,0.0,0.0,0.0,0.0,0.0,0.0,0.0,0.0,0.0,0.0,0.0,0.0,0.0,0.0,0.0,0.0,0.0,0.0,0.0,0.0,0.0,0.0,0.0,0.0,0.0,0.0,0.0,0.0,-5.3433,-5.5472,-5.7742,-5.9204,-6.005,-6.005,-5.9178,-5.7655,0.0,-5.3565,-5.1944,-4.9157,-4.8624,-4.855,-4.8344,-4.9289,-5.0738,-5.2773,-5.4994,-5.7529,-6.0631,-6.2886,0.0,0.0,0.0,0.0,0.0,0.0,0.0,0.0,0.0,0.0,-7.3516,-7.4109,-7.4481,-7.4481,-7.5132,-7.5518,-7.5518,-7.5518,-7.5518,-7.5518,-7.5518,-7.5348,-7.5119,-7.5119,-7.4966,-7.4736,-7.4125,0.0,0.0,-7.1256,-7.0242,-6.9344,-6.9025,-6.8757,-6.8665,-6.9176,-6.8848,-6.8148,0.0,0.0,0.0,0.0,0.0,0.0,-3.2836,-3.3847,-3.5317,-3.7864,-3.8953,-3.9786,-4.0524,-4.0595,-4.0559,-4.0485,-3.8931,0.0,0.0,0.0,0.0,0.0,0.0,0.0,0.0,0.0,-4.1894,-4.1892,-4.2779,-4.3204,0.0,0.0,0.0,0.0,0.0,0.0,0.0,0.0,0.0,0.0,0.0,0.0,0.0,0.0,0.0,0.0,0.0,0.0,0.0,0.0,0.0,0.0,0.0,0.0,0.0,0.0,-5.1241,-5.3587,-5.528,-5.7011,-5.8319,-5.8319,-5.7402,-5.6025,-5.4064,-5.2666,-5.1199,-4.9028,-4.8624,-4.855,-4.8344,-4.9215,-5.0666,-5.2773,-5.5448,-5.7892,-5.9598,-6.2368,0.0,0.0,0.0,0.0,0.0,0.0,0.0,0.0,0.0,0.0,-7.4009,-7.4009,-7.4033,-7.4033,-7.498,-7.5518,-7.5518,-7.5518,-7.5518,-7.5518,-7.5518,-7.5042,-7.4201,-7.4201,-7.3781,0.0,0.0,0.0,0.0,-7.0508,-6.9559,-6.8418,-6.8418,-6.8665,-6.9025,-6.8609,-6.8688,-6.8847,0.0,0.0,0.0,0.0,0.0,0.0,0.0,-3.2952,-3.4234,-3.6245,-3.7736,-3.8904,-3.97,-4.0251,-4.0569,-4.0516,-3.9515,0.0,0.0,0.0,0.0,0.0,0.0,0.0,0.0,0.0,-4.2125,-4.2703,-4.3589,-4.4021,-4.4021,-4.4021,-4.3574,0.0,0.0,0.0,0.0,0.0,0.0,0.0,0.0,0.0,0.0,0.0,0.0,0.0,0.0,0.0,0.0,0.0,0.0,0.0,0.0,0.0,0.0,-4.9086,-5.0394,0.0,-5.4241,-5.5665,-5.6478,-5.6278,-5.5389,-5.4135,-5.2757,-5.149,-5.0276,-4.899,-4.866,-4.8569,-4.8457,-4.8678,-4.9677,-5.2286,-5.4183,0.0,0.0,0.0,0.0,0.0,0.0,0.0,0.0,0.0,0.0,0.0,0.0,0.0,-7.3541,-7.3516,-7.3516,-7.3516,-7.4455,-7.4804,-7.4476,-7.4476,-7.4476,-7.4476,-7.3909,-7.3677,-7.3706,-7.2806,-7.2467,0.0,0.0,0.0,0.0,-6.9424,-6.8785,-6.8394,-6.8394,-6.849,-6.8619,-6.8803,-6.8757,-6.8511,0.0,0.0,0.0,0.0,0.0,0.0,0.0,-3.2527,-3.3726,-3.5472,-3.7156,-3.8517,-3.9315,-4.0142,-4.0723,-4.0977,-4.0246,0.0,0.0,0.0,0.0,0.0,0.0,0.0,-4.0516,-4.197,-4.2871,-4.3088,-4.4281,-4.4867,-4.4867,-4.4867,-4.4581,-4.4008,0.0,0.0,0.0,0.0,0.0,0.0,0.0,0.0,0.0,0.0,0.0,0.0,0.0,0.0,0.0,0.0,0.0,0.0,0.0,0.0,0.0,0.0,-5.0048,-5.0702,0.0,-5.4126,-5.4688,-5.442,-5.3731,-5.2815,-5.1682,-5.0746,-4.9858,-4.8953,-4.8714,-4.8624,-4.8513,-4.8916,-4.9895,-5.1751,-5.3513,0.0,0.0,0.0,0.0,0.0,0.0,0.0,0.0,0.0,0.0,0.0,0.0,0.0,-7.2841,-7.2518,-7.2292,-7.2119,-7.3625,-7.4287,-7.4009,-7.3709,-7.3521,-7.3521,-7.2718,-7.2347,-7.2243,-7.1482,-7.1089,0.0,0.0,0.0,0.0,-6.8724,-6.8394,-6.8418,-6.8572,-6.8757,-6.8959,-6.924,-6.9176,-6.887,0.0,0.0,0.0,0.0,0.0,0.0,0.0,-3.2488,-3.3687,-3.5317,-3.7091,-3.8497,-3.9237,-4.0079,-4.0899,-4.1739,0.0,0.0,0.0,0.0,0.0,0.0,0.0,0.0,-4.0708,-4.3008,-4.3893,-4.3201,-4.4825,-4.5594,-4.5594,-4.5594,-4.5633,-4.5671,-4.4778,-4.4432,0.0,0.0,0.0,0.0,0.0,0.0,0.0,0.0,0.0,0.0,0.0,0.0,0.0,0.0,0.0,0.0,0.0,0.0,0.0,0.0,0.0,0.0,0.0,-5.2433,-5.2958,-5.2674,-5.2334,-5.1817,-5.0732,-5.0226,0.0,-4.8953,-4.8787,-4.877,-4.8605,-4.982,-5.0948,-5.138,-5.346,0.0,0.0,-5.8762,0.0,0.0,0.0,0.0,0.0,0.0,0.0,0.0,0.0,0.0,-7.1872,-7.1155,-7.0528,-7.0101,-7.2435,-7.3729,-7.3729,-7.2979,-7.2604,-7.2604,-7.1764,-7.0998,-7.0248,-7.0151,-6.9738,0.0,0.0,0.0,0.0,-6.8346,-6.837,-6.8442,-6.8915,-6.9402,-6.9816,-6.9816,-6.9816,-6.9662,0.0,0.0,0.0,0.0,0.0,0.0,0.0,0.0,0.0,0.0,-3.6339,-3.8241,-3.8382,-3.9711,-4.0908,0.0,0.0,0.0,0.0,0.0,0.0,0.0,0.0,0.0,-4.247,-4.3085,-4.3585,-4.4008,-4.5094,-4.5594,-4.5594,-4.5594,-4.597,-4.6547,-4.5663,-4.5663,0.0,0.0,0.0,0.0,0.0,0.0,0.0,0.0,0.0,0.0,0.0,-4.6471,0.0,0.0,0.0,0.0,0.0,0.0,0.0,0.0,-5.0558,-5.0481,-5.0894,0.0,-5.1149,-5.0647,-5.0426,-5.0208,0.0,-4.9257,-4.9115,-4.8842,-4.8787,-4.8918,-4.9342,-4.9746,-5.0593,-5.2451,0.0,0.0,0.0,0.0,0.0,-6.8503,0.0,0.0,0.0,0.0,0.0,0.0,0.0,-7.0953,-7.0578,-7.0367,-7.0211,-7.011,-7.0679,-7.1025,-7.1025,-7.084,-7.0702,-7.0729,-6.9917,-6.9642,-6.9729,-6.8765,-6.8383,0.0,0.0,0.0,-6.7863,-6.7863,-6.8084,-6.8442,-6.8915,-6.9402,-6.9816,-6.9816,-6.9816,-6.9701,0.0,0.0,0.0,0.0,0.0,0.0,0.0,0.0,0.0,0.0,0.0,0.0,0.0,0.0,0.0,0.0,0.0,0.0,0.0,0.0,0.0,0.0,0.0,-4.2431,-4.2508,-4.3662,-4.4239,-4.4316,-4.5171,-4.5594,-4.5594,-4.5594,-4.6086,-4.6885,-4.6394,-4.6471,0.0,0.0,0.0,0.0,0.0,0.0,0.0,0.0,0.0,0.0,-4.6317,-4.6009,0.0,-4.6663,-4.6932,-4.7115,0.0,0.0,0.0,0.0,-5.0087,-5.0067,-4.9967,-5.0472,-5.0948,-5.048,-5.026,-5.0063,-4.9606,-4.9187,-4.8892,-4.8822,0.0,0.0,-4.96,0.0,0.0,0.0,-5.4424,0.0,0.0,0.0,0.0,0.0,0.0,0.0,0.0,0.0,0.0,0.0,0.0,-6.9837,-6.9587,-6.9192,-6.9009,-6.9009,-6.9009,-6.9339,-7.0073,-6.9743,-6.9559,-6.9522,-6.8715,-6.8472,-6.8723,-6.8031,-6.7836,0.0,0.0,0.0,-6.7687,-6.7687,-6.8109,-6.8734,-6.9003,-6.9486,-7.0091,-7.0091,-7.0091,-7.0019,0.0,0.0,0.0,0.0,0.0,0.0,0.0,0.0,0.0,0.0,0.0,0.0,0.0,0.0,0.0,0.0,0.0,0.0,0.0,0.0,0.0,0.0,-4.2777,-4.2854,-4.2393,-4.4355,-4.5171,-4.4701,-4.5432,-4.5787,-4.5787,-4.5787,-4.6106,-4.6656,-4.6952,-4.7068,0.0,0.0,0.0,0.0,0.0,0.0,0.0,0.0,0.0,0.0,0.0,0.0,0.0,-4.5594,-4.624,-4.7192,-4.774,0.0,0.0,0.0,0.0,0.0,-4.9237,-5.0412,-5.1459,-5.0889,-5.0689,-5.0504,-5.0093,0.0,0.0,0.0,0.0,0.0,0.0,-5.0745,0.0,0.0,0.0,0.0,0.0,0.0,0.0,0.0,0.0,0.0,0.0,0.0,0.0,0.0,0.0,-6.8715,-6.8715,-6.8054,-6.7687,-6.7687,-6.7687,-6.8348,-6.9706,-6.9045,-6.8715,-6.8715,-6.8017,-6.7687,-6.7687,-6.7687,-6.7687,-6.7687,0.0,0.0,-6.7687,-6.7687,-6.8247,-6.9091,-6.9091,-6.9625,-7.0419,-7.0419,-7.0369,-7.0247,0.0,0.0,0.0,0.0,0.0,0.0,0.0,0.0,0.0,0.0,0.0,0.0,0.0,0.0,0.0,0.0,0.0,0.0,0.0,0.0,0.0,-4.3893,-4.3393,-4.3701,-4.4979,-4.4662,-4.5163,-4.6509,-4.6624,-4.6701,-4.6701,-4.6701,-4.6263,-4.5531,-4.7165,-4.7799,-4.7646,-4.875,0.0,0.0,0.0,0.0,0.0,0.0,0.0,0.0,0.0,0.0,0.0,-4.5594,-4.6624,-4.7817,-4.7269,0.0,0.0,0.0,0.0,0.0,-5.0048,-5.124,-5.1703,-5.0079,-5.0144,-5.0354,-4.9348,-4.9002,0.0,0.0,0.0,0.0,0.0,-5.2013,-5.3484,0.0,0.0,0.0,0.0,0.0,0.0,0.0,0.0,0.0,0.0,0.0,0.0,0.0,0.0,-6.7871,-6.7871,-6.776,-6.7687,-6.7687,-6.7687,-6.7824,-6.8054,-6.7944,-6.7871,-6.7871,-6.7787,-6.7687,-6.7687,-6.7687,-6.7687,-6.7687,0.0,-6.7687,-6.7687,-6.7687,-6.8247,-6.9091,-6.9091,-6.9625,-7.0419,-7.0419,-7.0179,-6.9816,0.0,0.0,0.0,0.0,0.0,0.0,0.0,0.0,0.0,0.0,0.0,0.0,0.0,0.0,0.0,0.0,0.0,0.0,0.0,0.0,-4.3893,-4.4278,-4.3932,-4.4316,-4.5556,-4.5663,-4.6317,-4.7548,-4.7115,-4.7115,-4.7548,-4.7077,-4.6608,-4.6148,-4.704,-4.7876,-4.8652,-4.9163,0.0,0.0,0.0,0.0,0.0,0.0,0.0,0.0,0.0,0.0,0.0,0.0,-4.6432,-4.7471,-4.7548,0.0,0.0,0.0,0.0,0.0,-4.8795,-4.9617,-5.0312,-5.0845,-5.1989,-5.262,-5.123,-5.1231,0.0,0.0,0.0,0.0,0.0,0.0,-5.47,0.0,0.0,0.0,0.0,0.0,0.0,0.0,0.0,0.0,0.0,0.0,0.0,0.0,0.0,0.0,-6.7687,-6.7687,-6.7687,-6.7687,-6.7687,-6.7687,-6.7687,-6.7687,-6.7687,-6.7687,-6.7687,-6.7687,-6.7687,-6.7687,-6.7687,-6.7687,0.0,-6.7687,-6.7687,-6.7687,-6.8247,-6.9091,-6.9091,-6.9625,-7.0386,-7.0161,-6.9797,-6.9344,0.0,0.0,0.0,0.0,0.0,0.0,0.0,0.0,0.0,0.0,0.0,0.0,0.0,0.0,0.0,0.0,0.0,0.0,0.0,0.0,-4.4393,-4.4586,-4.4816,-4.5124,-4.5594,-4.6432,-4.7269,-4.8086,-4.7702,-4.7817,-4.8394,-4.7548,-4.7135,-4.7089,-4.7366,-4.8174,-4.9326,-4.9606,-5.0087,0.0,0.0,0.0,0.0,0.0,0.0,0.0,0.0,0.0,0.0,0.0,0.0,0.0,0.0,0.0,0.0,-4.8086,-4.7548,-4.7088,-4.7879,-4.8474,-4.9389,-5.1581,-5.2994,-5.3702,-5.3144,-5.3126,-5.3106,0.0,0.0,0.0,0.0,0.0,0.0,0.0,0.0,0.0,0.0,0.0,0.0,0.0,0.0,0.0,0.0,0.0,0.0,0.0,0.0,0.0,-6.7687,-6.7687,-6.7687,-6.7687,-6.7687,-6.7687,-6.7687,-6.7687,-6.7687,-6.7687,-6.7687,-6.7687,-6.7687,-6.7687,-6.7687,-6.7687,-6.7687,-6.7687,-6.7687,-6.7687,-6.8247,-6.9091,-6.8981,-6.9426,-7.0035,-6.9643,-6.924,-6.887,0.0,0.0,0.0,0.0,0.0,0.0,0.0,0.0,0.0,0.0,0.0,0.0,0.0,0.0,0.0,0.0,0.0,0.0,0.0,0.0,-4.4662,-4.5479,-4.6278,-4.6355,-4.5633,-4.6432,-4.7269,-4.8086,-4.8856,-4.924,-4.9279,-4.8432,-4.7866,-4.769,-4.874,-4.9143,-4.9078,-5.0171,-5.0635,-5.0558,0.0,0.0,0.0,0.0,0.0,0.0,0.0,0.0,0.0,0.0,0.0,0.0,0.0,0.0,-4.8086,-4.8086,-4.7548,-4.7231,-4.8837,-4.9603,-5.0226,-5.1292,-5.1006,-5.1115,-5.3611,-5.2821,0.0,-5.3151,0.0,0.0,0.0,0.0,0.0,0.0,0.0,0.0,0.0,0.0,0.0,0.0,0.0,0.0,0.0,0.0,0.0,0.0,0.0,0.0,-6.7687,-6.7687,-6.7687,-6.7687,-6.7687,-6.7687,-6.7687,-6.7687,-6.7687,-6.7687,-6.7687,-6.7687,-6.7687,-6.7687,-6.7687,-6.7687,-6.7687,-6.7687,-6.7687,-6.7687,-6.8247,-6.9047,-6.8595,-6.8757,-6.9134,-6.8665,-6.849,-6.837,0.0,0.0,0.0,0.0,0.0,0.0,0.0,0.0,0.0,0.0,0.0,0.0,0.0,0.0,0.0,0.0,0.0,0.0,0.0,-4.3671,-4.3932,-4.4739,-4.4624,-4.4393,-4.4047,-4.5932,-4.7269,-4.8086,-4.8432,-4.8586,-4.8586,-4.824,-4.8356,-4.8787,-4.9212,-4.9356,-4.9324,-5.0288,-5.0404,-4.9817,-4.9163,0.0,0.0,0.0,0.0,0.0,0.0,0.0,0.0,0.0,-4.574,-4.6885,-4.6885,-4.7115,-4.7471,-4.7971,-4.7163,-4.6471,-4.8125,-4.8984,-4.9786,-5.1371,-5.184,0.0,0.0,-5.469,-5.5195,-5.5644,-5.6399,0.0,0.0,0.0,0.0,0.0,0.0,0.0,0.0,0.0,0.0,0.0,0.0,0.0,0.0,0.0,0.0,0.0,0.0,0.0,-6.6219,-6.6219,-6.6219,-6.6219,-6.6696,-6.6953,-6.6953,-6.743,-6.766,-6.7579,-6.7579,-6.7606,-6.7687,-6.7606,-6.7606,-6.7687,-6.7687,-6.7687,-6.7687,-6.7687,-6.8084,-6.8628,-6.8219,-6.8309,-6.8581,-6.7909,-6.779,-6.7941,0.0,0.0,0.0,0.0,0.0,0.0,0.0,0.0,0.0,0.0,0.0,0.0,0.0,0.0,0.0,0.0,0.0,0.0,-4.3047,-4.3085,-4.3355,-4.3893,-4.3393,-4.3201,-4.347,-4.5201,-4.6471,-4.7317,-4.7586,-4.7855,-4.8086,-4.8086,-4.8586,-4.9394,-4.9394,-4.9394,-4.9433,-5.0048,-4.9933,-4.9394,-4.9394,-4.8894,0.0,0.0,0.0,0.0,0.0,0.0,0.0,0.0,-4.5086,-4.6201,-4.6731,-4.6885,-4.7038,-4.7855,-4.7278,-4.6624,-4.7778,-4.8585,-4.951,-5.1124,0.0,0.0,-5.4581,-5.594,-5.7085,-5.7454,-5.7634,-5.7973,-5.8628,0.0,0.0,0.0,0.0,0.0,0.0,0.0,0.0,0.0,0.0,0.0,0.0,0.0,0.0,0.0,0.0,0.0,0.0,-6.5249,-6.5249,-6.5301,-6.5852,-6.6109,-6.6109,-6.6659,-6.6983,-6.7067,-6.6793,-6.6957,-6.7515,-6.7497,-6.7524,-6.7633,-6.743,-6.732,-6.7283,-6.7026,-6.7115,-6.7383,-6.7307,-6.7365,-6.737,-6.7074,-6.7107,-6.7357,0.0,0.0,0.0,0.0,0.0,0.0,0.0,0.0,0.0,0.0,0.0,0.0,0.0,0.0,0.0,0.0,0.0,0.0,-4.0554,-4.2124,-4.3085,-4.3085,-4.3085,-4.347,-4.4278,-4.4316,-4.4739,-4.5594,-4.6471,-4.7308,-4.8086,-4.8125,-4.8586,-4.9394,-4.9394,-4.9394,-4.9394,-4.9394,-4.9394,-4.9394,-4.9394,-4.8856,0.0,0.0,0.0,0.0,0.0,0.0,0.0,0.0,-4.4316,-4.4586,-4.6355,-4.6885,-4.7038,-4.7855,-4.8086,-4.8086,-4.8086,-4.874,-4.9625,-5.0481,0.0,0.0,-5.5617,-5.6158,-5.6705,-5.8104,-5.753,-5.7265,-5.8736,0.0,0.0,0.0,0.0,0.0,0.0,0.0,0.0,0.0,0.0,0.0,0.0,0.0,0.0,0.0,0.0,0.0,0.0,-6.5134,-6.5134,-6.5275,-6.5301,-6.5301,-6.5301,-6.5301,-6.559,-6.6162,-6.5223,-6.5642,-6.7174,-6.7378,-6.747,-6.746,-6.679,-6.6476,-6.6439,-6.5632,-6.5301,-6.5353,-6.5814,-6.5693,-6.5411,-6.6182,-6.6476,-6.6623,0.0,0.0,0.0,0.0,0.0,0.0,0.0,0.0,0.0,0.0,0.0,0.0,0.0,0.0,0.0,0.0,0.0,0.0,-4.1393,-4.1316,-4.1816,-4.3047,-4.1931,-4.197,-4.3431,-4.4008,-4.5047,-4.6509,-4.6778,-4.7308,-4.8125,-4.874,-4.8817,-4.8509,-4.9125,-4.874,-4.7702,-4.824,-4.8163,-4.7702,-4.8279,-4.8009,0.0,0.0,0.0,0.0,0.0,0.0,0.0,0.0,0.0,0.0,-4.5624,-4.6394,-4.6962,-4.7192,-4.7278,-4.7394,-4.7971,-4.874,0.0,-5.0481,0.0,0.0,0.0,-5.6499,0.0,0.0,-5.8164,-5.8163,-5.8868,0.0,0.0,0.0,0.0,0.0,0.0,0.0,0.0,0.0,0.0,0.0,0.0,0.0,0.0,0.0,0.0,0.0,0.0,-6.3361,-6.3361,-6.3387,-6.4075,-6.4369,-6.4265,-6.4956,-6.5228,-6.5086,-6.4886,-6.535,-6.6335,-6.5733,-6.556,-6.5813,-6.5584,-6.559,-6.5632,-6.5411,-6.5301,-6.5264,-6.4843,-6.4903,-6.5264,-6.4934,-6.5521,-6.6512,0.0,0.0,0.0,0.0,0.0,0.0,0.0,0.0,0.0,0.0,-4.0516,0.0,0.0,0.0,0.0,0.0,0.0,0.0,0.0,-4.0785,-4.0977,-4.2008,-4.1054,-4.1477,-4.3547,-4.4393,-4.5663,-4.7394,-4.6701,-4.6624,-4.7124,-4.8009,-4.8125,-4.7663,-4.8163,-4.7855,-4.6923,-4.7432,-4.7346,-4.6962,-4.7778,-4.7625,-4.6885,0.0,0.0,0.0,0.0,0.0,0.0,0.0,0.0,0.0,-4.5325,-4.597,-4.6432,-4.6817,-4.7115,-4.7625,-4.8817,-4.974,0.0,-5.1895,-5.423,-5.6398,-5.7116,0.0,0.0,0.0,0.0,-5.848,-5.8719,0.0,0.0,0.0,0.0,0.0,0.0,0.0,0.0,0.0,0.0,0.0,0.0,0.0,0.0,0.0,0.0,0.0,0.0,-6.2552,-6.2552,-6.2603,-6.3192,-6.3474,-6.3412,-6.3951,-6.4223,-6.4221,-6.3947,-6.4202,-6.4858,-6.4684,-6.4694,-6.4894,-6.4672,-6.4475,-6.431,-6.431,-6.431,-6.4273,-6.3759,-6.387,-6.431,-6.4163,-6.4714,-6.5595,0.0,0.0,0.0,0.0,0.0,0.0,0.0,0.0,0.0,0.0,-4.0516,-4.0516,0.0,0.0,0.0,0.0,0.0,0.0,0.0,0.0,-4.0554,-4.0631,-4.0823,-4.2093,-4.447,-4.5316,-4.6471,-4.8009,-4.6471,-4.571,-4.5748,-4.6586,-4.6914,-4.6751,-4.6846,-4.6799,-4.6636,-4.6654,-4.6615,-4.6615,-4.7355,-4.7201,-4.6538,-4.6538,0.0,0.0,0.0,0.0,0.0,0.0,0.0,0.0,-4.5325,-4.5594,-4.5748,-4.6547,-4.7355,-4.8355,-5.0087,-5.1164,0.0,-5.4126,-5.5641,0.0,-5.8796,-5.8848,-5.8492,-5.8492,0.0,-5.8437,0.0,0.0,0.0,0.0,0.0,0.0,0.0,0.0,0.0,0.0,0.0,0.0,0.0,0.0,0.0,0.0,0.0,0.0,0.0,-6.2449,-6.2449,-6.2578,-6.2603,-6.2654,-6.278,-6.2654,-6.2892,-6.3464,-6.2735,-6.2639,-6.312,-6.3984,-6.4366,-6.4385,-6.3925,-6.3376,-6.278,-6.278,-6.278,-6.278,-6.278,-6.278,-6.289,-6.3686,-6.4016,-6.4174,0.0,0.0,0.0,0.0,0.0,0.0,0.0,0.0,0.0,0.0,0.0,0.0,0.0,0.0,0.0,0.0,0.0,0.0,0.0,0.0,-4.0823,-4.1508,-4.3431,-4.5086,-4.6317,-4.6509,-4.6817,-4.7154,-4.6817,-4.6624,-4.6624,-4.7471,-4.7041,-4.5589,-4.6512,-4.6033,-4.4546,-4.4755,-4.4509,-4.3932,-4.4124,-4.4085,-4.3932,-4.3932,-4.3662,0.0,0.0,0.0,0.0,0.0,0.0,0.0,-4.5325,-4.5594,-4.5633,-4.5825,-4.6509,-4.7548,-4.9202,-5.0317,0.0,0.0,-5.6753,-5.8262,-5.9044,-5.8908,-5.8656,-5.8656,0.0,0.0,0.0,0.0,0.0,0.0,0.0,0.0,0.0,0.0,0.0,0.0,0.0,0.0,0.0,0.0,0.0,0.0,0.0,0.0,-6.2423,-6.2433,-6.2397,-6.2423,-6.2552,-6.2629,-6.2654,-6.25,-6.248,0.0,-6.2348,-6.2241,-6.2259,-6.2467,-6.2676,-6.2854,-6.2958,-6.2902,-6.278,-6.2679,-6.2654,-6.2654,-6.2654,-6.2654,-6.2691,-6.2975,-6.3427,-6.3873,0.0,0.0,0.0,0.0,0.0,0.0,0.0,0.0,0.0,0.0,0.0,0.0,0.0,0.0,0.0,0.0,0.0,0.0,0.0,-4.0285,-4.0893,-4.1769,-4.4239,-4.5825,-4.6278,-4.6701,-4.6885,-4.6885,-4.634,-4.6148,-4.6317,-4.7124,-4.6992,-4.6052,-4.6617,-4.6108,-4.471,-4.4427,-4.3855,-4.3085,-4.3085,-4.3085,-4.3085,-4.3085,-4.3085,-4.3162,-4.3585,0.0,0.0,0.0,0.0,0.0,0.0,0.0,-4.5056,-4.5479,-4.5932,-4.674,-4.8817,0.0,0.0,-5.5777,0.0,-5.8127,-5.8988,-5.8927,0.0,0.0,0.0,0.0,0.0,0.0,0.0,0.0,0.0,0.0,0.0,0.0,0.0,0.0,0.0,0.0,0.0,0.0,0.0,0.0,0.0,-6.2114,-6.2407,-6.2318,-6.2291,-6.2291,-6.237,-6.2475,-6.2603,-6.2397,-6.2291,-6.2291,-6.2212,-6.2141,-6.1978,-6.206,-6.2222,-6.2397,-6.2603,-6.273,-6.278,-6.273,-6.2654,-6.2603,-6.2603,-6.2552,-6.25,-6.2578,-6.2844,-6.3095,0.0,0.0,0.0,0.0,0.0,0.0,0.0,0.0,0.0,0.0,0.0,0.0,0.0,0.0,0.0,0.0,0.0,0.0,0.0,-4.0054,-4.0969,-4.197,-4.4047,-4.5287,-4.5594,-4.6163,-4.6509,-4.6701,-4.539,-4.5178,-4.5955,-4.6416,-4.6589,-4.6522,-4.6627,-4.6106,-4.5042,-4.4385,-4.3547,-4.2662,-4.2662,-4.2662,-4.2662,-4.2662,-4.2662,-4.2662,-4.2816,-4.2893,-4.3008,-4.3816,0.0,0.0,0.0,0.0,-4.4047,-4.4902,-4.5171,-4.571,-4.8086,0.0,-5.2948,-5.6397,-5.7353,0.0,0.0,0.0,0.0,0.0,0.0,0.0,0.0,0.0,0.0,0.0,0.0,0.0,0.0,0.0,0.0,0.0,0.0,0.0,0.0,0.0,0.0,0.0,0.0,-6.186,-6.1943,-6.1984,-6.1931,-6.1785,-6.1931,-6.2099,-6.2358,-6.2219,-6.2212,-6.2344,-6.2248,-6.2114,-6.1978,-6.2141,-6.2265,-6.2433,-6.2552,-6.2679,-6.278,-6.278,-6.2679,-6.2578,-6.2578,-6.2475,-6.2381,-6.237,-6.2407,-6.2354,0.0,0.0,0.0,0.0,0.0,0.0,0.0,0.0,0.0,0.0,-4.0516,-4.0208,-3.94,-3.9284,0.0,0.0,0.0,0.0,-3.9246,0.0,0.0,-4.2854,-4.3239,-4.4124,-4.5556,-4.497,-4.5009,-4.5787,-4.3944,-4.4524,-4.7379,-4.6035,-4.529,-4.5109,-4.5554,-4.4766,-4.3101,-4.3209,-4.2316,-4.0862,-4.0862,-4.0862,-4.0862,-4.0862,-4.0862,-4.0939,-4.17,-4.1962,-4.2124,-4.297,-4.3278,0.0,0.0,0.0,0.0,-4.3162,-4.3431,-4.3816,0.0,0.0,0.0,0.0,0.0,0.0,0.0,0.0,0.0,0.0,0.0,0.0,0.0,0.0,0.0,0.0,0.0,0.0,0.0,0.0,0.0,0.0,0.0,0.0,0.0,0.0,0.0,0.0,-6.0721,-6.0745,-6.0176,-6.0794,-6.084,-6.0139,-6.0804,-6.121,-6.1401,-6.1805,-6.2087,-6.2248,-6.2087,-6.2005,-6.1978,-6.2141,-6.2265,-6.2433,-6.2552,-6.2679,-6.278,-6.2679,-6.2552,-6.2459,-6.2459,-6.2318,-6.2212,-6.2381,-6.2354,-6.2212,0.0,0.0,0.0,0.0,0.0,0.0,0.0,0.0,0.0,0.0,0.0,-4.0208,-3.94,-3.8854,0.0,0.0,0.0,0.0,-3.8507,-3.9785,0.0,0.0,-4.2585,-4.3431,-4.4162,-4.3355,-4.3316,-4.4201,-4.2593,-4.3357,-4.6277,-4.5708,-4.619,-4.7592,-4.751,-4.6459,-4.4694,-4.3576,-4.2393,-4.12,-4.0708,-4.1093,-4.1854,-4.0862,-4.1131,-4.1893,-4.1277,-4.1085,-4.12,-4.2085,-4.2354,-4.247,-4.2931,0.0,0.0,0.0,0.0,0.0,-4.6163,0.0,0.0,0.0,0.0,0.0,0.0,0.0,0.0,0.0,0.0,0.0,0.0,0.0,0.0,0.0,0.0,0.0,0.0,0.0,0.0,0.0,0.0,0.0,0.0,0.0,0.0,0.0,-5.9972,-6.0108,-5.9848,-6.0036,-6.0046,-5.9719,-6.0046,-6.028,-6.0398,-6.059,-6.0692,-6.0745,-6.0692,-6.0665,-6.0665,-6.0719,-6.1349,-6.2433,-6.2552,-6.2679,-6.278,-6.273,-6.2578,-6.2407,-6.2407,-6.2275,-6.2087,-6.2168,-6.2141,-6.2087,0.0,0.0,0.0,0.0,0.0,0.0,0.0,0.0,0.0,0.0,0.0,0.0,-3.9361,0.0,0.0,0.0,0.0,0.0,-3.7623,0.0,0.0,0.0,0.0,-4.2239,-4.2431,-4.1585,-4.17,-4.2777,-4.1284,-4.2362,-4.5829,-4.5735,-4.7277,-5.0079,-4.925,-4.7842,-4.5993,-4.4152,-4.2893,-4.2085,-4.1431,-4.1931,-4.3008,-4.2132,-4.2593,-4.3508,-4.1785,-4.117,-4.1208,-4.1393,-4.147,0.0,0.0,0.0,0.0,0.0,0.0,0.0,0.0,0.0,0.0,0.0,0.0,0.0,0.0,0.0,0.0,0.0,0.0,0.0,0.0,0.0,0.0,0.0,0.0,0.0,0.0,0.0,0.0,0.0,0.0,0.0,0.0,0.0,0.0,0.0,-5.9161,-5.9372,-5.9179,-5.9232,-5.9216,-5.8999,-5.918,-5.9341,-5.9444,-5.9559,-5.9615,-5.9615,-5.9615,-5.9615,-5.9615,-5.9615,-6.0399,-6.1761,-6.188,-6.2006,-6.2168,-6.2413,-6.2336,-6.2141,-6.2298,-6.2248,-6.1978,-6.1978,-6.1978,-6.1978,0.0,0.0,0.0,0.0,0.0,0.0,0.0,0.0,0.0,0.0,0.0,0.0,-3.9284,-3.8507,-3.7661,-3.6769,0.0,0.0,0.0,0.0,0.0,0.0,0.0,0.0,-4.0631,-3.9861,-4.0239,-4.1885,-3.9933,-4.1962,-4.7552,-4.6467,-4.7755,-5.0889,-4.9517,-4.7548,-4.5211,-4.4545,-4.3778,-4.3047,-4.297,-4.3008,-4.3278,-4.4748,-4.5402,-4.5248,-4.3585,-4.297,-4.2701,0.0,0.0,0.0,0.0,-4.0593,-4.0554,0.0,0.0,0.0,0.0,0.0,0.0,0.0,0.0,0.0,0.0,0.0,0.0,0.0,0.0,0.0,0.0,0.0,0.0,0.0,0.0,0.0,0.0,0.0,0.0,0.0,0.0,0.0,0.0,0.0,0.0,0.0,-5.8173,-5.813,-5.7395,-5.8058,-5.8094,-5.7333,-5.8058,-5.8456,-5.8456,-5.9216,-5.9615,-5.9615,-5.9615,-5.9615,-5.9615,-5.9615,-5.973,-5.9921,-6.0074,-6.0199,-6.0396,-6.1288,-6.1519,-6.1339,-6.2079,-6.2248,-6.1978,-6.1978,-6.1978,-6.1978,0.0,0.0,0.0,0.0,0.0,0.0,0.0,0.0,0.0,0.0,0.0,0.0,0.0,-3.8815,-3.7853,-3.7546,-3.6269,0.0,0.0,0.0,0.0,0.0,0.0,0.0,0.0,-3.9708,-3.9861,-4.0969,-3.9559,-4.0901,-4.4758,-4.508,-4.5961,-4.7308,-4.8418,-4.8109,-4.6702,-4.4996,-4.4124,-4.3855,-4.3855,-4.4547,-4.547,-4.497,-4.5778,-4.6894,-4.4662,0.0,0.0,0.0,0.0,0.0,-4.1316,-4.0931,-4.0516,-4.0516,-4.1285,0.0,0.0,0.0,0.0,0.0,0.0,0.0,0.0,0.0,0.0,0.0,0.0,0.0,0.0,0.0,0.0,0.0,0.0,0.0,0.0,0.0,0.0,0.0,0.0,0.0,0.0,0.0,0.0,0.0,0.0,-5.7764,-5.7473,-5.7654,-5.769,-5.7437,-5.7654,-5.7724,-5.7623,-5.7989,-5.8185,-5.8185,-5.8285,-5.826,-5.8185,-5.8185,-5.8159,-5.8159,-5.8285,-5.8992,-6.0101,-6.0407,-6.077,-6.1101,-6.1392,-6.1696,-6.1978,-6.1978,-6.1978,-6.1978,0.0,0.0,0.0,0.0,0.0,0.0,0.0,0.0,-3.99,-3.9361,0.0,0.0,0.0,0.0,-3.8315,-3.8046,-3.6969,-3.6346,-3.6346,-3.7392,0.0,0.0,0.0,0.0,0.0,-3.9708,-3.9708,-4.0516,-3.9512,-4.0432,-4.3115,-4.3874,-4.4777,-4.5811,-4.6891,-4.7318,-4.7199,-4.5697,0.0,-4.4603,-4.4603,-4.5294,-4.6302,-4.6097,-4.6894,-4.7894,0.0,0.0,0.0,0.0,0.0,0.0,-4.1962,-4.12,-4.0508,-4.0406,-4.1234,0.0,-4.2051,0.0,0.0,0.0,0.0,0.0,0.0,0.0,0.0,0.0,0.0,0.0,0.0,0.0,0.0,0.0,0.0,0.0,0.0,0.0,0.0,0.0,0.0,0.0,0.0,0.0,0.0,0.0,0.0,0.0,-5.7534,-5.7437,-5.7412,-5.7461,-5.7412,-5.7338,-5.7264,-5.7338,-5.7412,-5.7461,-5.7534,-5.7534,-5.7461,-5.7412,-5.7338,-5.7264,-5.7313,-5.803,-5.9138,-5.9454,-5.9987,-6.0622,-6.0877,-6.1415,-6.1978,-6.1978,-6.1978,-6.1978,0.0,0.0,0.0,0.0,0.0,0.0,0.0,0.0,-3.9361,-3.9361,0.0,0.0,0.0,0.0,0.0,-3.807,-3.8,-3.8,-3.8,-3.8007,0.0,0.0,0.0,0.0,-4.0477,-3.9746,-3.9708,-4.0516,-3.9708,-4.0585,-4.3008,-4.3047,-4.4393,-4.6692,-4.5047,-4.5064,-4.6407,-4.6407,-4.5948,-4.525,0.0,-4.525,-4.5615,0.0,-4.8885,0.0,-4.8145,-4.7674,0.0,-4.5038,0.0,0.0,0.0,-4.12,-4.0438,-4.026,-4.0234,0.0,0.0,0.0,0.0,0.0,0.0,0.0,0.0,0.0,0.0,0.0,0.0,0.0,0.0,0.0,0.0,0.0,0.0,0.0,0.0,0.0,0.0,0.0,0.0,0.0,0.0,0.0,0.0,0.0,-5.7655,-5.7534,-5.7412,-5.7412,-5.7338,-5.7213,-5.7338,-5.7388,-5.7388,-5.7388,-5.7461,-5.7619,-5.7583,-5.7583,-5.7583,-5.7461,-5.7388,-5.7388,-5.7264,-5.7264,-5.7485,-5.8384,-5.9161,-5.987,-6.0659,-6.1415,-6.1978,-6.1978,-6.1978,-6.1978,0.0,0.0,0.0,0.0,0.0,-4.2662,-4.2431,-4.1662,-4.1123,0.0,0.0,0.0,-4.0554,-3.9597,-3.8609,-3.7566,-3.7618,-3.7734,-3.7772,-3.8516,-3.9053,-3.9284,-3.9861,-4.0285,-4.0516,-4.0285,-4.0285,-4.0516,-4.0285,-4.0516,-4.1247,-4.1854,-4.2538,-4.3231,-4.397,-4.4214,-4.4045,-4.4045,0.0,-4.6388,-4.5744,-4.6482,0.0,0.0,0.0,0.0,0.0,-4.9569,-4.9733,0.0,-4.7318,-4.535,0.0,0.0,-4.0278,-4.0223,-4.0929,0.0,-4.0201,0.0,0.0,0.0,0.0,0.0,0.0,0.0,0.0,0.0,0.0,0.0,0.0,0.0,0.0,0.0,0.0,0.0,0.0,0.0,0.0,0.0,0.0,0.0,0.0,0.0,0.0,0.0,-5.7834,-5.7786,-5.7834,-5.7726,-5.7655,-5.7667,-5.7559,-5.7534,-5.7534,-5.7631,-5.7715,-5.7763,-5.7857,-5.7857,-5.7726,-5.7715,-5.7667,-5.7534,-5.7388,-5.7363,-5.7424,-5.7592,-5.8424,-5.9667,-5.9885,-6.0801,-6.1978,-6.1978,-6.1978,-6.1978,0.0,0.0,0.0,-4.4624,-4.4393,-4.4278,-4.4624,-4.3355,-4.247,0.0,0.0,0.0,-4.1274,-4.0396,-3.9581,-3.8942,-3.8766,-3.8697,-3.8735,-3.9413,-3.9785,-3.9785,-4.0246,-4.0446,-4.0372,-4.0372,-4.033,-4.0212,-4.0212,-4.0257,-4.0364,-4.0784,-4.1206,-4.166,-4.2201,-4.2556,-4.2747,-4.202,0.0,0.0,-4.5712,0.0,0.0,-4.8453,-4.9378,0.0,0.0,0.0,-5.1076,-5.0291,-4.8135,0.0,0.0,0.0,0.0,-4.0148,-4.0738,0.0,0.0,0.0,0.0,0.0,0.0,0.0,0.0,-4.7144,0.0,0.0,0.0,0.0,0.0,0.0,0.0,0.0,0.0,0.0,0.0,0.0,0.0,0.0,0.0,0.0,0.0,-5.7997,-5.7997,-5.7997,-5.7927,-5.7881,-5.7857,-5.7786,-5.7691,-5.7534,-5.7667,-5.7667,-5.7583,-5.7703,-5.7834,-5.7881,-5.7973,-5.7973,-5.7881,-5.7834,-5.7763,-5.7691,-5.7534,-5.7437,-5.7388,-5.7313,-5.8,-5.9144,-5.947,-6.0375,-6.1543,-6.1869,-6.1978,-6.1978,0.0,0.0,-4.497,-4.6624,-4.6278,-4.6009,-4.6778,-4.4944,-4.3667,0.0,-4.2651,-4.1736,-4.2328,-4.1597,-4.1094,-4.1146,-4.0563,-4.0206,-4.0282,-4.0449,-4.0516,-4.0516,-4.0516,-4.0406,-4.0242,-4.0214,-4.0072,-3.984,-3.984,-3.9982,-4.0205,-3.9972,-4.0363,-4.1218,-4.0245,-4.0642,-4.203,-4.0642,0.0,-4.3464,-4.5103,-4.6363,0.0,0.0,-4.9938,-5.027,-5.1788,-5.2058,-5.1573,-5.0282,-4.7805,0.0,0.0,0.0,0.0,0.0,-4.0378,0.0,-4.0654,-4.0643,0.0,0.0,0.0,0.0,-4.5621,-4.6773,0.0,0.0,0.0,0.0,0.0,0.0,0.0,0.0,0.0,0.0,0.0,0.0,0.0,0.0,0.0,0.0,-5.7997,-5.7997,-5.7997,-5.7997,-5.7997,-5.7881,-5.7631,-5.7583,-5.7461,-5.7264,-5.7583,-5.7726,-5.7667,-5.775,-5.7881,-5.7997,-5.7997,-5.7997,-5.7997,-5.7881,-5.7834,-5.7834,-5.7655,-5.7534,-5.7412,-5.7388,-5.7822,-5.8456,-5.918,-5.9977,-6.0747,-6.1543,-6.1869,-6.1869,0.0,-4.4432,-4.5663,-4.674,-4.6778,-4.6701,-4.6885,-4.6244,-4.5319,-4.4143,-4.2917,-4.2366,-4.2962,-4.1682,-4.0991,-4.1474,-4.0512,-4.0165,-4.0875,-4.0669,-4.0516,-4.0516,-4.0516,-4.0462,-4.043,-4.0286,-4.0186,-4.011,-4.011,-4.0167,-4.0205,-4.0167,-4.0244,-4.0425,-3.9979,-3.9998,-4.0377,-4.1389,0.0,-4.2347,-4.3813,0.0,-4.9297,-4.9885,-5.1095,-5.2462,-5.2817,-5.3119,-5.306,-5.1035,-4.9196,-4.7388,0.0,0.0,0.0,-4.1942,-4.2366,-4.3059,-4.1735,0.0,0.0,0.0,0.0,0.0,-4.3726,-4.4692,-4.5807,0.0,0.0,0.0,0.0,0.0,0.0,0.0,0.0,0.0,0.0,0.0,0.0,0.0,0.0,0.0,-5.807,-5.7997,-5.7997,-5.7997,-5.7904,-5.7834,-5.775,-5.7534,-5.751,-5.7691,-5.7631,-5.7703,-5.7927,-5.795,-5.7973,-5.7997,-5.7997,-5.7997,-5.7997,-5.7973,-5.7973,-5.795,-5.7834,-5.7655,-5.7534,-5.7437,-5.7822,-5.842,-5.8565,-5.9144,-5.9941,-6.0738,-6.1,-6.1109,-4.3607,-4.4047,-4.4885,-4.655,-4.7203,-4.7578,-4.7972,-4.712,-4.6102,-4.5273,-4.4104,-4.3425,-4.36,-4.2511,-4.188,-4.2181,-4.1365,-4.0899,-4.1101,-4.1007,-4.076,-4.0386,-4.043,-4.0397,-4.0167,-4.0062,-3.9962,-3.9846,-3.9724,-3.9724,-3.9846,-3.9724,-3.9928,-4.0375,-3.9713,-3.9639,-4.0039,0.0,-4.1074,-4.1978,-4.4449,0.0,-4.9698,-5.0485,-5.2021,-5.3679,-5.3527,-5.3329,-5.2921,-5.1162,-4.9459,0.0,0.0,-4.5267,-4.461,0.0,-4.3439,-4.3726,-4.2537,0.0,0.0,-4.3429,0.0,0.0,0.0,0.0,-4.5287,0.0,0.0,0.0,0.0,0.0,0.0,0.0,0.0,0.0,0.0,0.0,0.0,0.0,0.0,0.0,-5.7997,-5.7997,-5.7973,-5.7904,-5.7786,-5.7655,-5.7583,-5.7461,-5.7412,-5.7486,-5.7607,-5.7703,-5.781,-5.7927,-5.7997,-5.7997,-5.7997,-5.7997,-5.7997,-5.7997,-5.7997,-5.7997,-5.7927,-5.781,-5.7583,-5.751,-5.7617,-5.784,-5.8239,-5.8637,-5.9108,-5.9905,-6.0484,-6.0883,-4.3404,-4.3316,-4.3652,-4.5802,-4.7001,-4.7795,-4.8258,-4.7381,-4.6579,-4.6213,-4.5224,-4.4445,-4.4246,-4.3652,-4.3392,-4.3711,-4.2763,-4.2083,-4.1954,-4.17,-4.1264,-4.0635,-4.0593,-4.0424,-4.0073,-3.9829,-3.9679,-3.9514,-3.9285,-3.9285,-3.9502,-3.9272,-3.9594,-4.0362,-3.9579,-3.96,0.0,0.0,0.0,-4.2344,0.0,-4.753,-4.9092,-5.0708,-5.235,-5.3815,-5.3796,-5.3347,-5.2587,-5.102,-4.9442,-4.7924,-4.6661,-4.603,0.0,0.0,0.0,0.0,0.0,0.0,0.0,0.0,0.0,-4.4581,0.0,0.0,0.0,-4.5064,0.0,0.0,0.0,0.0,0.0,0.0,0.0,0.0,0.0,0.0,0.0,0.0,0.0,0.0,0.0,-5.7409,-5.7363,-5.7577,-5.729,-5.717,-5.7194,-5.729,-5.7313,-5.7239,-5.7559,-5.7739,-5.7631,-5.7881,-5.7997,-5.7997,-5.7997,-5.7997,-5.7997,-5.7997,-5.7997,-5.7997,-5.7997,-5.7881,-5.7667,-5.7607,-5.7437,-5.7311,-5.7913,-5.8166,-5.8275,-5.9072,-5.9796,-6.0375,-4.145,-4.211,-4.2924,-4.373,-4.5296,-4.6095,-4.5243,-4.6586,-4.7115,-4.5478,-4.5122,-4.502,-4.4988,-4.4978,-4.5551,-4.6932,-4.4588,-4.3642,-4.5007,0.0,-4.2159,-4.2083,-4.1396,-4.1016,-4.0961,-4.001,-3.9501,-3.9514,-3.9477,-3.9477,-3.9514,-3.9477,-3.9514,-3.9627,-3.9942,0.0,0.0,0.0,-4.2202,0.0,-4.5,-4.6187,0.0,-5.0017,-5.1381,-5.2156,-5.3274,-5.3639,-5.3234,0.0,-5.0003,-4.9299,0.0,-4.6314,-4.7043,0.0,0.0,0.0,0.0,0.0,0.0,0.0,-4.5769,0.0,0.0,0.0,-4.5064,-4.4321,0.0,0.0,0.0,0.0,0.0,0.0,0.0,0.0,0.0,0.0,0.0,0.0,0.0,0.0,0.0,-5.5244,-5.5346,-5.6626,-5.5939,-5.5749,-5.6322,-5.6889,-5.7264,-5.7363,-5.7534,-5.7655,-5.7786,-5.7927,-5.7997,-5.7997,-5.7997,-5.7997,-5.7997,-5.7997,-5.7997,-5.7997,-5.7997,-5.7927,-5.7786,-5.7631,-5.751,-5.7363,-5.7347,-5.7333,-5.7442,-5.8239,-5.8601,-5.8782,-4.0881,-4.1385,-4.1889,-4.2521,-4.4046,-4.5054,-4.4546,-4.5993,-4.6594,-4.5218,-4.5443,-4.5907,-4.6387,0.0,0.0,0.0,0.0,-4.546,0.0,0.0,-4.3088,-4.2121,-4.1891,-4.1487,-4.0865,-4.0416,-3.9952,-3.9514,-3.935,-3.9272,-3.9272,-3.9219,-3.9686,-4.0523,-4.0207,0.0,-4.2232,0.0,-4.2094,0.0,0.0,0.0,0.0,-4.9587,-5.1762,-5.2828,-5.3398,-5.3617,-5.3398,0.0,-5.0101,0.0,0.0,0.0,0.0,0.0,0.0,0.0,0.0,0.0,0.0,0.0,0.0,0.0,-4.5026,0.0,-4.4432,0.0,0.0,0.0,0.0,0.0,0.0,0.0,0.0,0.0,0.0,0.0,0.0,0.0,0.0,0.0,0.0,0.0,0.0,0.0,-5.5026,-5.4997,-5.6152,-5.6393,-5.6742,-5.7264,-5.7486,-5.7607,-5.7655,-5.7904,-5.7997,-5.7997,-5.7997,-5.7997,-5.7997,-5.7997,-5.7997,-5.7997,-5.7997,-5.7881,-5.7655,-5.7607,-5.7461,-5.7264,-5.7213,-5.7188,-5.7224,-5.7587,-5.7985,-5.8456,-4.019,-4.0477,-4.0653,-4.1065,-4.2715,-4.4126,-4.4431,-4.5164,-4.549,-4.5006,-4.5673,0.0,-4.7868,-4.7535,0.0,0.0,-4.8512,-4.7485,0.0,0.0,-4.4414,-4.3217,-4.2709,-4.2195,-4.1635,-4.1172,-4.0549,-3.9738,-3.9564,-3.9342,-3.912,-3.9036,-3.9593,-4.0665,-4.0425,-4.1425,-4.3246,0.0,-4.2685,-4.4034,-4.4338,-4.5003,-4.6183,-4.951,-5.1893,-5.3437,-5.342,-5.3518,-5.3356,-5.1653,-5.0361,0.0,-4.9473,0.0,0.0,0.0,0.0,0.0,-4.6974,0.0,0.0,0.0,0.0,0.0,0.0,0.0,0.0,0.0,0.0,0.0,0.0,0.0,0.0,0.0,0.0,0.0,0.0,0.0,0.0,0.0,0.0,0.0,0.0,0.0,0.0,0.0,0.0,-5.4036,-5.545,-5.5849,-5.6296,-5.6912,-5.7352,-5.7607,-5.7631,-5.7881,-5.7997,-5.7997,-5.7997,-5.7997,-5.7997,-5.7997,-5.7997,-5.7997,-5.7997,-5.7881,-5.7631,-5.7607,-5.7461,-5.7239,-5.7213,-5.7188,-5.7188,-5.7188,-5.755,-5.8058,-3.887,-3.9087,-3.9198,-3.8936,-4.103,-4.3193,-4.4485,-4.4083,-4.388,-4.4684,0.0,0.0,0.0,0.0,0.0,0.0,0.0,-4.988,-4.9824,0.0,-4.6417,-4.6343,-4.4055,-4.3125,0.0,0.0,-4.1177,-4.0374,-4.036,-3.9937,-3.912,-3.9036,-3.903,-3.9127,-4.0529,-4.1678,-4.259,-4.3246,-4.4974,-4.7165,-4.6446,-4.7942,-5.0613,0.0,-5.1176,-5.3246,-5.3277,0.0,0.0,-5.1595,-5.108,0.0,0.0,0.0,0.0,0.0,0.0,0.0,0.0,0.0,0.0,-4.6867,0.0,0.0,0.0,0.0,-4.6178,0.0,0.0,0.0,0.0,0.0,0.0,0.0,0.0,0.0,0.0,0.0,0.0,0.0,0.0,0.0,0.0,0.0,0.0,0.0,0.0,0.0,-5.3699,-5.5317,-5.6201,-5.6225,-5.711,-5.7655,-5.781,-5.7927,-5.7997,-5.7997,-5.7997,-5.7997,-5.7997,-5.7997,-5.7997,-5.7997,-5.7997,-5.7927,-5.7786,-5.7631,-5.751,-5.7363,-5.7239,-5.7188,-5.7188,-5.7188,-5.7224,-5.7224,0.0,-3.9261,0.0,0.0,0.0,-4.2145,-4.3662,-4.4562,-4.5571,0.0,0.0,0.0,0.0,-5.2353,-5.2573,0.0,0.0,-5.2333,-5.0823,-4.9546,0.0,0.0,0.0,-4.5138,0.0,0.0,0.0,0.0,0.0,0.0,0.0,0.0,-4.0,-4.0492,-4.0935,-4.2189,0.0,0.0,0.0,0.0,0.0,-4.7978,-5.0862,0.0,0.0,-5.3225,-5.323,-5.3235,0.0,-5.2667,-5.1788,-5.0927,-5.0848,-4.9706,-4.851,-4.91,-4.9191,0.0,0.0,0.0,-5.0507,-4.8401,0.0,0.0,0.0,0.0,0.0,0.0,0.0,0.0,0.0,0.0,0.0,0.0,0.0,0.0,0.0,0.0,0.0,0.0,0.0,0.0,0.0,0.0,0.0,0.0,-5.1501,0.0,0.0,-5.4335,-5.5098,-5.6176,-5.6587,-5.7144,-5.7774,-5.7927,-5.7997,-5.7997,-5.7997,-5.7997,-5.7997,-5.7997,-5.7997,-5.7997,-5.7997,-5.7881,-5.7655,-5.7607,-5.7461,-5.7264,-5.7213,-5.7188,-5.7188,-5.7188,-5.7188,-5.7188,-3.9258,0.0,0.0,0.0,0.0,-4.1992,-4.3294,0.0,0.0,0.0,-4.9554,0.0,-5.4509,0.0,-5.4069,0.0,-5.5073,-5.3944,-5.1612,-5.1321,0.0,-4.9357,-4.8318,0.0,0.0,0.0,0.0,0.0,0.0,-4.2091,0.0,0.0,0.0,0.0,0.0,-4.2269,-4.4305,0.0,-4.5938,0.0,0.0,-4.9116,0.0,0.0,-5.2491,-5.3203,0.0,-5.323,-5.3272,-5.3209,-5.2532,-5.1801,-5.2291,-5.1132,-4.9738,-5.0308,-5.0215,-4.9978,-5.0112,-5.0888,0.0,-4.9491,-4.9049,0.0,-4.6352,0.0,0.0,0.0,0.0,0.0,0.0,0.0,0.0,0.0,0.0,0.0,0.0,0.0,0.0,0.0,0.0,0.0,0.0,0.0,-4.9351,-5.0961,0.0,0.0,0.0,0.0,-5.4345,-5.5376,-5.6041,-5.6705,-5.7371,-5.7804,-5.7997,-5.7997,-5.7997,-5.7997,-5.7997,-5.7997,-5.7997,-5.7997,-5.7997,-5.7857,-5.7583,-5.7583,-5.7437,-5.7188,-5.7188,-5.7188,-5.7188,-5.7188,-5.7188,-5.7188,0.0,0.0,0.0,0.0,-4.1368,0.0,0.0,0.0,-4.7406,0.0,-5.0582,-5.3041,-5.5486,-5.5023,-5.5207,-5.6748,-5.6287,-5.488,-5.2488,-5.3142,0.0,0.0,-5.0176,-4.9768,-4.9021,0.0,0.0,0.0,0.0,0.0,0.0,0.0,0.0,0.0,-4.0813,0.0,-4.3551,-4.5186,-4.7315,-4.9684,-5.0435,-5.1242,-5.1977,-5.1977,-5.2491,-5.3203,-5.3203,-5.3203,-5.3203,-5.3203,-5.3203,-5.3203,-5.3203,-5.2674,-5.205,-5.2013,-5.1499,-5.0932,-5.0939,-5.0959,-5.0851,-5.01,0.0,0.0,0.0,0.0,-4.9621,0.0,0.0,0.0,0.0,0.0,0.0,0.0,0.0,0.0,0.0,0.0,0.0,0.0,0.0,0.0,0.0,0.0,-4.7735,-4.9212,-4.9495,0.0,0.0,0.0,-5.3904,-5.3922,-5.5458,-5.64,-5.6589,-5.751,-5.796,-5.7997,-5.7997,-5.7997,-5.7997,-5.7997,-5.7997,-5.7997,-5.7997,-5.7857,-5.7583,-5.7583,-5.7437,-5.7188,-5.7188,-5.7188,-5.7188,-5.7188,-5.7188,-5.7188,-4.0838,-4.1919,-4.302,0.0,-4.3314,-4.3461,0.0,0.0,0.0,0.0,-5.227,-5.4693,-5.7116,-5.7189,-5.7226,-5.7666,-5.7542,0.0,0.0,0.0,0.0,-5.3538,-5.2355,-5.134,-5.0564,-4.853,0.0,-4.5628,0.0,0.0,-4.3021,0.0,0.0,0.0,0.0,0.0,-4.2763,-4.4966,-4.7315,-4.961,-4.9831,-5.0749,0.0,0.0,-5.2491,-5.3203,-5.3203,-5.3203,-5.3203,-5.3203,-5.3203,-5.3203,-5.3203,-5.3078,-5.2784,-5.216,-5.227,-5.2454,-5.1871,-5.2165,-5.2422,-5.1654,-5.0993,-5.0294,0.0,0.0,0.0,0.0,0.0,0.0,0.0,0.0,0.0,0.0,0.0,0.0,0.0,0.0,0.0,0.0,0.0,0.0,0.0,0.0,-4.7516,-4.8524,0.0,0.0,0.0,0.0,0.0,-5.4099,-5.4523,-5.5395,-5.674,-5.6983,-5.7409,-5.7997,-5.7997,-5.7997,-5.7997,-5.7997,-5.7997,-5.7997,-5.7997,-5.7857,-5.7583,-5.7583,-5.7437,-5.7188,-5.7188,-5.7188,-5.7188,-5.7188,-5.7188,-5.7188,-4.2213,0.0,0.0,-4.5608,0.0,0.0,-4.625,0.0,0.0,-5.0508,-5.2894,0.0,-5.6271,-5.7373,-5.7997,-5.7997,-5.7997,0.0,-5.6434,0.0,0.0,-5.4691,-5.4117,-5.331,-5.2168,-5.0083,0.0,-4.6704,0.0,0.0,-4.358,0.0,0.0,0.0,0.0,-4.1535,0.0,-4.5626,-4.7939,-4.961,-5.0345,0.0,0.0,-5.2527,-5.2821,-5.3203,-5.3203,-5.3203,-5.3203,-5.3203,-5.3203,-5.3203,-5.3203,-5.3203,-5.3115,-5.2674,-5.2858,-5.3093,-5.2637,-5.2858,-5.3115,-5.2637,-5.2197,-5.1646,-5.0802,-5.1046,-5.127,0.0,0.0,0.0,0.0,0.0,0.0,0.0,0.0,0.0,0.0,0.0,0.0,0.0,0.0,0.0,0.0,0.0,0.0,0.0,0.0,0.0,0.0,0.0,0.0,-5.304,-5.3778,-5.4686,-5.5632,-5.641,-5.7042,-5.7483,-5.7813,-5.7997,-5.7997,-5.7997,-5.7997,-5.7997,-5.7997,-5.7857,-5.7583,-5.7583,-5.7437,-5.7188,-5.7188,-5.7188,-5.7188,-5.7188,-5.7188,-5.7188,0.0,0.0,0.0,0.0,0.0,0.0,0.0,-4.904,0.0,-5.1096,0.0,-5.4876,-5.4876,-5.6748,-5.7997,-5.7997,0.0,-5.7409,-5.6037,-5.7226,-5.7051,-5.488,-5.5543,-5.5196,-5.3642,-5.1964,0.0,0.0,0.0,0.0,0.0,0.0,0.0,0.0,0.0,0.0,0.0,-4.6507,-4.8636,0.0,-5.1242,-5.238,-5.3203,-5.3203,-5.3203,-5.3203,-5.3203,-5.3203,-5.3203,-5.3203,-5.3203,-5.3203,-5.3203,-5.3203,-5.3203,-5.3203,-5.3203,-5.3203,-5.3203,-5.3203,-5.3203,-5.3203,-5.3203,-5.3041,-5.2307,-5.216,-5.216,-5.216,-5.161,-5.1222,0.0,0.0,0.0,0.0,0.0,0.0,0.0,0.0,0.0,0.0,0.0,0.0,0.0,0.0,0.0,0.0,0.0,0.0,0.0,0.0,0.0,-5.1559,-5.3105,-5.407,-5.4224,0.0,-5.6712,-5.6822,-5.7629,-5.7997,-5.7997,-5.7997,-5.7997,-5.7997,-5.7973,-5.7834,-5.7583,-5.7559,-5.7412,-5.7188,-5.7188,-5.7188,-5.7188,-5.7188,-5.7188,-5.7188,0.0,0.0,0.0,0.0,0.0,-5.0986,-5.2139,-5.2931,-5.3445,-5.3739,-5.5868,-5.7373,-5.7373,-5.774,-5.7997,-5.7997,-5.7997,0.0,0.0,0.0,0.0,-5.644,-5.6551,-5.5853,-5.4259,-5.2038,-4.998,0.0,0.0,0.0,0.0,0.0,0.0,0.0,0.0,0.0,-4.5333,-4.603,0.0,-5.0618,-5.0875,-5.1903,-5.3203,-5.3203,-5.3203,-5.3203,-5.3203,-5.3203,-5.3203,-5.3203,-5.3203,-5.3203,-5.3203,-5.3203,-5.3203,-5.3203,-5.3203,-5.3203,-5.3203,-5.3203,-5.3203,-5.3203,-5.3203,-5.3188,-5.3041,-5.3004,-5.3004,-5.3004,-5.2873,-5.2291,-5.0664,0.0,0.0,0.0,0.0,0.0,0.0,0.0,0.0,0.0,0.0,0.0,0.0,0.0,0.0,0.0,0.0,0.0,0.0,0.0,0.0,0.0,-5.2209,0.0,0.0,0.0,-5.6124,-5.6822,-5.7629,-5.7997,-5.7997,-5.7997,-5.7997,-5.7997,-5.7881,-5.7763,-5.7583,-5.7461,-5.7338,-5.7188,-5.7188,-5.7188,-5.7188,-5.7188,-5.7188,-5.7188,0.0,0.0,0.0,0.0,0.0,0.0,0.0,-5.5464,0.0,-5.4546,-5.5427,-5.6124,-5.6124,-5.7262,-5.7997,-5.7997,-5.7997,-5.7997,-5.7997,-5.7997,-5.7813,-5.7446,-5.7042,0.0,-5.5647,-5.3298,-5.1022,-4.893,0.0,0.0,0.0,0.0,0.0,0.0,0.0,-4.3057,0.0,0.0,0.0,-5.0251,-5.1096,-5.216,-5.3203,-5.3203,-5.3203,-5.3203,-5.3203,-5.3203,-5.3203,-5.3203,-5.3203,-5.3203,-5.3203,-5.3203,-5.3203,-5.3203,-5.3203,-5.3203,-5.3203,-5.3203,-5.3203,-5.3203,-5.3203,-5.3203,-5.3203,-5.3203,-5.3203,-5.3203,-5.2995,-5.214,-4.9978,-4.8422,0.0,0.0,0.0,0.0,0.0,0.0,0.0,0.0,0.0,0.0,0.0,0.0,0.0,0.0,0.0,0.0,0.0,0.0,0.0,0.0,0.0,0.0,0.0,0.0,0.0,-5.6198,-5.7409,-5.7997,-5.7997,-5.7997,-5.7997,-5.7997,-5.7881,-5.7703,-5.7559,-5.7363,-5.7264,-5.7188,-5.7188,-5.7188,-5.7188,-5.7188,-5.7188,-5.7188,0.0,-5.1206,0.0,0.0,-5.3592,0.0,-5.55,-5.6969,-5.7299,-5.5427,-5.517,-5.517,-5.517,-5.6859,-5.7997,-5.7997,-5.7997,-5.7997,-5.7997,-5.7997,-5.7997,-5.7997,-5.7409,-5.6969,-5.6822,-5.462,-5.227,0.0,0.0,0.0,0.0,0.0,0.0,0.0,0.0,0.0,0.0,0.0,-4.8416,-5.0235,-5.1463,-5.2491,-5.3203,-5.3203,-5.3203,-5.3203,-5.3203,-5.3203,-5.3203,-5.3203,-5.3203,-5.3203,-5.3203,-5.3203,-5.3203,-5.3203,-5.3203,-5.3203,-5.3203,-5.3203,-5.3203,-5.3203,-5.3203,-5.3203,-5.3203,-5.3203,-5.3203,-5.3203,-5.2694,-5.1645,-4.9709,-4.8591,0.0,0.0,0.0,0.0,0.0,0.0,0.0,0.0,0.0,0.0,0.0,0.0,0.0,0.0,0.0,0.0,-4.5668,-4.794,-4.9346,0.0,0.0,-5.2166,-5.2931,0.0,-5.5596,-5.5611,-5.7226,-5.7997,-5.7997,-5.7997,-5.7997,-5.7997,-5.7834,-5.7691,-5.7486,-5.7289,-5.7188,-5.7188,-5.7188,-5.7188,-5.7188,-5.7188,-5.7188,-5.7188,0.0,0.0,0.0,0.0,0.0,0.0,-5.5574,-5.6969,-5.7923,-5.7703,-5.7666,-5.7666,-5.7666,-5.785,-5.7997,-5.7997,-5.7997,-5.7997,-5.7997,-5.7997,-5.7997,-5.7997,-5.7923,-5.7556,-5.6822,-5.517,-5.3115,0.0,0.0,0.0,0.0,0.0,0.0,0.0,0.0,0.0,0.0,-4.8122,-4.9591,-5.1793,-5.194,-5.2491,-5.3203,-5.3203,-5.3203,-5.3203,-5.3203,-5.3203,-5.3203,-5.3203,-5.3203,-5.3203,-5.3203,-5.3203,-5.3203,-5.3203,-5.3203,-5.3203,-5.3203,-5.3203,-5.3203,-5.3203,-5.3203,-5.3203,-5.3203,-5.3203,-5.3203,-5.3203,-5.2384,-5.1334,-5.0159,-4.8735,-4.7437,0.0,0.0,0.0,0.0,0.0,0.0,0.0,0.0,0.0,0.0,0.0,0.0,0.0,0.0,0.0,-4.5468,-4.7155,-4.8197,-4.8291,0.0,-5.1515,-5.2123,-5.4436,-5.5596,-5.5611,-5.7226,-5.7997,-5.7997,-5.7997,-5.7997,-5.7997,-5.7739,-5.7461,-5.7239,-5.7213,-5.7188,-5.7188,-5.7188,-5.7188,-5.7188,-5.7188,-5.7188,-5.7188,0.0,0.0,0.0,0.0,0.0,0.0,0.0,-5.7593,-5.7997,-5.7997,-5.7997,-5.7997,-5.7997,-5.7997,-5.7997,-5.7997,-5.7997,-5.7997,-5.7997,-5.7997,-5.7997,-5.7997,-5.7997,-5.785,-5.7519,-5.6418,-5.4656,0.0,0.0,0.0,0.0,0.0,0.0,0.0,0.0,-4.6948,-4.9114,-4.9591,-5.0655,-5.205,-5.2527,-5.2931,-5.3203,-5.3203,-5.3518,-5.3922,-5.3922,-5.4216,-5.462,-5.462,-5.3995,-5.3203,-5.3203,-5.3203,-5.3203,-5.3203,-5.3203,-5.3203,-5.3203,-5.3203,-5.3203,-5.3203,-5.3203,-5.3203,-5.3203,-5.3203,-5.3203,-5.3203,-5.2338,-5.1112,-4.941,-4.833,-4.7272,0.0,0.0,0.0,0.0,0.0,0.0,0.0,0.0,0.0,0.0,0.0,0.0,0.0,0.0,0.0,0.0,-4.6363,0.0,-4.8079,0.0,-5.066,-5.1977,-5.3588,-5.4793,-5.5611,-5.6748,-5.7358,-5.7474,-5.7821,-5.7927,-5.7763,-5.7631,-5.7437,-5.7188,-5.7188,-5.7188,-5.7188,-5.7188,-5.7188,-5.7188,-5.7188,-5.7188,-5.7188,-5.5904,0.0,-5.5537,0.0,-5.6675,-5.6675,-5.7813,-5.7997,-5.7997,-5.7997,-5.7997,-5.7997,-5.7997,-5.7997,-5.7997,-5.7997,-5.7997,-5.7997,-5.7997,-5.7997,-5.7997,-5.7997,-5.7997,0.0,-5.7997,-5.7226,-5.5868,-5.3922,-5.2307,0.0,0.0,0.0,0.0,0.0,-4.7865,-4.8746,-5.0381,-5.1169,-5.1977,-5.2784,-5.3592,-5.3922,-5.3922,-5.3922,-5.4252,-5.473,-5.473,-5.5097,-5.5596,-5.5596,-5.484,-5.3922,-5.3922,-5.3922,-5.3849,-5.3628,-5.3555,-5.3518,-5.324,-5.3203,-5.3203,-5.3203,-5.3203,-5.3203,-5.3203,-5.3203,-5.3182,-5.2995,-5.2244,-5.1033,-4.9177,-4.8186,-4.7258,-4.5949,0.0,0.0,0.0,0.0,0.0,0.0,0.0,-4.507,-4.5281,0.0,0.0,0.0,0.0,0.0,0.0,0.0,0.0,0.0,0.0,0.0,0.0,-5.2921,-5.4083,-5.513,-5.6108,-5.6733,-5.7116,-5.7546,-5.7607,-5.7363,-5.7363,-5.7289,-5.7188,-5.7188,-5.7188,-5.7188,-5.7188,-5.7188,-5.7188,-5.7188,-5.7188,-5.7163,-5.6638,-5.6785,-5.7042,-5.785,-5.796,-5.796,-5.7997,-5.7997,-5.7997,-5.7997,-5.7997,-5.7997,-5.7997,-5.7997,-5.7997,-5.7997,-5.7997,-5.7997,-5.7997,-5.7997,-5.7997,0.0,0.0,-5.7997,-5.7997,-5.7226,-5.6418,-5.5596,0.0,0.0,-5.0729,0.0,-4.8746,-4.9574,-4.9574,-5.0455,-5.2013,-5.2821,-5.3628,-5.4436,-5.5244,-5.5596,-5.5596,-5.5596,-5.5596,-5.5574,-5.5574,-5.5574,-5.5596,-5.5596,-5.5574,-5.5596,-5.5596,-5.5596,-5.539,-5.462,-5.4399,-5.4216,-5.3445,-5.3203,-5.3203,-5.3203,-5.3203,-5.3203,-5.3203,-5.3203,-5.3039,-5.2499,-5.197,-5.1175,-4.9855,-4.8533,-4.7431,-4.6734,0.0,0.0,0.0,0.0,0.0,0.0,-4.5182,-4.4841,-4.4353,0.0,0.0,0.0,0.0,0.0,0.0,0.0,0.0,-4.7089,-4.8444,0.0,-5.0423,-5.2534,-5.3724,-5.3947,-5.5274,-5.6319,-5.7116,-5.7116,-5.6964,-5.6704,-5.6704,-5.6897,-5.7188,-5.7188,-5.7188,-5.7188,-5.7188,-5.7188,-5.7188,-5.7188,-5.7188,-5.7112,-5.7556,-5.7629,-5.7703,-5.796,-5.7997,-5.7997,-5.7997,-5.7997,-5.7997,-5.7997,-5.7997,-5.7997,-5.7997,-5.7997,-5.7997,0.0,-5.7997,-5.7997,0.0,-5.7997,-5.7997,-5.7997,-5.7997,-5.7997,-5.7997,-5.774,-5.7226,-5.6418,0.0,0.0,0.0,-5.1883,-5.2087,-5.2858,-5.2858,-5.3445,-5.4494,-5.473,-5.4987,-5.5244,-5.55,-5.5596,-5.5596,-5.5596,-5.5941,-5.6418,-5.6418,-5.6785,-5.7226,-5.7226,-5.7226,-5.7226,-5.7226,-5.6455,-5.5559,-5.528,-5.5207,-5.5133,-5.4913,-5.4436,-5.4032,-5.4032,-5.3628,-5.3203,-5.3203,-5.3203,-5.3039,-5.2499,-5.197,-5.1175,-4.9855,-4.8951,-4.8017,-4.6803,-4.6389,0.0,0.0,0.0,0.0,0.0,0.0,-4.4353,0.0,-4.3637,0.0,0.0,0.0,0.0,0.0,0.0,0.0,0.0,-4.8303,0.0,-5.0924,-5.2365,-5.3748,-5.5083,-5.5656,-5.6118,-5.6572,-5.6572,-5.6599,-5.6704,-5.7127,-5.7289,-5.7188,-5.7188,-5.7188,-5.7188,-5.7188,-5.7188,-5.7188,-5.7188,-5.6959,-5.6555,-5.7997,-5.7997,-5.7997,-5.7997,-5.7997,-5.7997,-5.7997,-5.7997,-5.7997,-5.7997,-5.7997,-5.7997,-5.7997,-5.7997,0.0,-5.7997,-5.7997,-5.7997,-5.7997,-5.7997,-5.7997,-5.7997,-5.7997,-5.7997,-5.7997,-5.7997,0.0,-5.7262,-5.6455,-5.5537,-5.4524,-5.4252,-5.4363,-5.484,-5.484,-5.5133,-5.5611,-5.5904,-5.6051,-5.6088,-5.6381,-5.6492,-5.6492,-5.6492,-5.6822,-5.7262,-5.7262,-5.7556,-5.7997,-5.7997,-5.7997,-5.7997,-5.7997,-5.7299,-5.6418,-5.6124,-5.6051,-5.5978,-5.5706,-5.5207,-5.4766,-5.4473,-5.4032,-5.3592,-5.3298,-5.3203,-5.3039,-5.2499,-5.197,-5.1282,-5.0242,-4.9368,-4.8396,-4.7217,-4.6803,-4.6293,-4.5447,0.0,0.0,0.0,0.0,0.0,0.0,-4.4018,-4.3923,0.0,0.0,0.0,0.0,0.0,0.0,-4.7149,-4.8232,0.0,-5.0763,-5.1906,-5.3084,-5.4331,-5.5255,-5.5695,-5.5629,-5.6027,-5.6311,-5.6447,-5.6984,-5.7213,-5.7188,-5.7188,-5.7188,-5.7188,-5.7188,-5.7188,-5.7188,-5.7188,-5.6829,-5.6257,-5.7997,-5.7997,0.0,0.0,-5.7997,0.0,-5.7997,-5.7997,-5.7997,-5.7997,-5.7997,-5.7997,-5.7997,-5.7997,-5.7997,-5.7997,0.0,0.0,0.0,-5.7997,-5.7997,-5.7997,-5.7997,-5.7997,-5.7997,-5.7997,-5.7997,-5.7997,-5.7262,-5.6895,-5.6859,-5.6124,-5.578,-5.578,-5.578,-5.578,-5.5816,-5.6565,-5.6895,-5.6969,-5.7703,-5.7997,-5.7997,-5.7997,-5.7997,-5.7997,-5.7997,-5.7997,-5.7997,-5.7997,-5.7997,-5.7997,-5.7997,-5.7997,-5.785,-5.7116,-5.6895,-5.6712,-5.5978,-5.5721,-5.55,-5.473,-5.4473,-5.4216,-5.3445,-5.3261,-5.3039,-5.2499,-5.1994,-5.1475,-5.0964,-4.9736,-4.8618,-4.7893,-4.7079,-4.6266,-4.5306,0.0,0.0,0.0,0.0,0.0,0.0,-4.4995,-4.494,0.0,0.0,0.0,0.0,0.0,-4.6845,-4.7244,-4.8323,-4.9252,-5.0005,-5.1339,-5.2142,-5.2451,-5.4406,-5.5044,-5.4494,-5.5578,-5.6014,-5.5901,-5.6437,-5.6855,-5.7188,-5.7188,-5.7188,-5.7188,-5.7138,-5.7138,-5.7138,-5.7087,-5.6688,-5.609,0.0,0.0,-5.7997,-5.7997,-5.7997,-5.7997,-5.7997,-5.7997,-5.7997,-5.7997,-5.7997,-5.7997,-5.7997,-5.7997,-5.7997,-5.7997,-5.7997,-5.7997,-5.7997,-5.7997,-5.7997,-5.7997,-5.7997,-5.7997,-5.7997,-5.7997,-5.7997,-5.7997,-5.7813,-5.7703,-5.7703,-5.7519,-5.7409,-5.7409,-5.7409,-5.7409,-5.7446,-5.7629,-5.7703,-5.774,-5.7923,-5.7997,-5.7997,-5.7997,-5.7997,-5.7997,-5.7997,-5.7997,-5.7997,-5.7997,-5.7997,-5.7997,-5.7997,-5.7997,-5.796,-5.7776,-5.7703,-5.7666,-5.7483,-5.6969,-5.6492,-5.6271,-5.5317,-5.4363,-5.4179,-5.3665,-5.3039,-5.2499,-5.2291,-5.2078,-5.15,-5.0321,-4.9151,-4.8444,-4.7226,-4.6089,-4.5306,-4.5015,0.0,0.0,-4.4913,-4.4886,-4.4995,-4.4913,-4.5097,0.0,0.0,0.0,0.0,-4.651,-4.7045,-4.7043,-4.8781,-4.9941,-5.0384,-5.199,-5.3414,-5.4669,-5.4984,-5.4826,-5.4303,-5.5396,-5.5801,-5.5716,-5.6767,-5.7188,-5.7188,-5.7188,-5.7188,-5.7138,-5.6688,-5.6501,-5.6447,-5.6007,-5.5426,-5.4857,-5.7997,-5.7997,-5.7997,-5.7997,-5.7997,-5.7997,-5.7997,-5.7997,-5.7997,-5.7997,-5.7997,-5.7997,-5.7997,-5.7997,-5.7997,-5.7997,-5.7997,-5.7997,-5.7997,-5.7997,-5.7997,-5.7997,-5.7997,-5.7997,-5.7997,-5.7997,-5.7997,-5.7997,-5.7997,-5.7997,-5.7997,-5.7997,-5.7997,-5.7997,-5.7997,-5.7997,-5.7997,-5.7997,-5.7997,-5.7997,-5.7997,-5.7997,-5.7997,-5.7997,-5.7997,-5.7997,-5.7997,-5.7997,-5.7997,-5.7997,-5.7997,-5.7997,-5.7997,-5.7997,-5.7997,-5.7997,-5.7997,-5.7997,-5.7997,-5.7666,-5.7262,-5.6895,-5.5868,-5.495,-5.495,-5.4326,-5.3653,-5.3375,-5.2822,-5.2315,-5.203,-5.0683,-4.9337,-4.8539,-4.7218,-4.6008,-4.5152,-4.4886,0.0,-4.4803,-4.5054,-4.5264,-4.5314,-4.5535,-4.5909,-4.6374,-4.5977,0.0,-4.6293,-4.7117,-4.7413,-4.702,-4.8866,-5.0114,-5.0685,-5.2294,-5.3649,-5.4738,-5.4645,-5.4428,-5.4143,-5.4918,-5.5426,-5.5658,-5.6528,-5.7036,-5.7163,-5.6907,-5.6767,-5.6714,-5.6146,-5.5894,-5.5865,-5.5549,-5.4978,-5.4391,-5.7997,-5.7997,-5.7997,-5.7973,-5.7973,-5.7973,-5.795,-5.795,-5.795,-5.7973,-5.7973,-5.7973,-5.7997,-5.7997,-5.7997,-5.7997,-5.7997,-5.7997,-5.7997,-5.7997,-5.7997,-5.7997,-5.7997,-5.7997,-5.7997,-5.7997,-5.7997,-5.7997,-5.7997,-5.7997,-5.7997,-5.7997,-5.7997,-5.7997,-5.7997,-5.7997,-5.7997,-5.7997,-5.7997,-5.7997,-5.7997,-5.7997,-5.7997,-5.7997,-5.7997,-5.7997,-5.7997,-5.7997,-5.7997,-5.7997,-5.7997,-5.7997,-5.7997,-5.7997,-5.7997,-5.7997,-5.7997,-5.7997,-5.7997,-5.7997,-5.785,-5.7152,-5.6381,-5.5757,-5.5757,-5.517,-5.4583,-5.4583,-5.358,-5.2704,-5.2704,-5.0972,-4.9353,-4.8649,-4.7194,-4.5816,-4.5063,0.0,-4.4788,-4.475,-4.5331,-4.5737,-4.5872,-4.6413,-4.6853,-4.6955,-4.6853,-4.6853,-4.6955,-4.7679,-4.784,-4.733,-4.8953,-5.0296,-5.1188,-5.2423,-5.3389,-5.398,-5.398,-5.3948,-5.398,-5.4428,-5.4953,-5.5455,-5.5943,-5.6447,-5.6871,-5.6366,-5.6174,-5.6118,-5.5484,-5.5254,-5.5254,-5.5164,-5.4734,-5.4232,-5.7997,-5.7997,-5.7973,-5.7857,-5.7834,-5.781,-5.7655,-5.7655,-5.7679,-5.7834,-5.7834,-5.7881,-5.7997,-5.7997,-5.7997,-5.7997,-5.7997,-5.7997,-5.7997,-5.7997,-5.7997,-5.7997,-5.7997,-5.7997,-5.7997,-5.7997,-5.7997,-5.7997,-5.7997,-5.7997,-5.7997,-5.7997,-5.7997,-5.7997,-5.7997,-5.7997,-5.7997,-5.7997,-5.7997,-5.7997,-5.7997,-5.7997,-5.7997,-5.7997,-5.7997,-5.7997,-5.7997,-5.7997,-5.7997,-5.7997,-5.7997,-5.7997,-5.7997,-5.7997,-5.7997,-5.7997,-5.7997,-5.7997,-5.7997,-5.7997,-5.796,-5.785,-5.7226,-5.6602,-5.6602,-5.5978,-5.539,-5.539,-5.4723,-5.4107,-5.4107,-5.1473,-4.9436,-4.9712,-4.7197,-4.5314,-4.5528,0.0,-4.4852,-4.5466,-4.5635,-4.594,-4.6549,-4.6718,-4.7056,-4.7699,-4.7158,-4.7056,-4.7699,-4.7834,-4.8169,-4.8677,-4.9831,-5.1141,-5.2509,-5.2748,-5.3227,-5.398,-5.3816,-5.375,-5.3783,-5.4235,-5.4485,-5.4641,-5.5214,-5.5536,-5.5658,-5.5607,-5.5549,-5.5455,-5.4826,-5.4548,-5.4485,-5.3979,-5.3751,-5.3651,-5.7904,-5.795,-5.795,-5.7739,-5.7667,-5.7619,-5.7583,-5.7583,-5.7631,-5.7786,-5.781,-5.7857,-5.7997,-5.7997,-5.7997,-5.7997,-5.7997,-5.7997,-5.7997,-5.7997,-5.7997,-5.7997,-5.7997,-5.7997,-5.7997,-5.7997,-5.7997,-5.7997,-5.7997,-5.7997,-5.7997,-5.7997,-5.7997,-5.7997,-5.7997,-5.7997,-5.7997,-5.7997,-5.7997,-5.7997,-5.7997,-5.7997,-5.7997,-5.7997,-5.7997,-5.7997,-5.7997,-5.7997,-5.7997,-5.7997,-5.7997,-5.7997,-5.7997,-5.7997,-5.7997,-5.7997,-5.7997,-5.7997,-5.7997,-5.7997,-5.7997,-5.7997,-5.7703,-5.7446,-5.7446,-5.6822,-5.6235,-5.6235,-5.5611,-5.4913,-5.4473,-5.2518,-5.0759,-5.0104,-4.7764,0.0,0.0,-4.5416,-4.5331,-4.5669,-4.6413,-4.7022,-4.7361,-4.7767,-4.8139,-4.8477,-4.8173,-4.8139,-4.8477,-4.8883,-4.9255,-4.9593,-5.0932,-5.2011,-5.2692,-5.3067,-5.3443,-5.3718,-5.3651,-5.3584,-5.3618,-5.3816,-5.4074,-5.4422,-5.4699,-5.5039,-5.5373,-5.5009,-5.4857,-5.4795,-5.4139,-5.3913,-5.3881,-5.3618,-5.3518,-5.3518,-5.7786,-5.7857,-5.7834,-5.7583,-5.7522,-5.7473,-5.7486,-5.7486,-5.7534,-5.7715,-5.7715,-5.7786,-5.795,-5.795,-5.7973,-5.7997,-5.7997,-5.7997,-5.7997,-5.7997,-5.7997,-5.7997,-5.7997,-5.7997,-5.7997,-5.7997,-5.7997,-5.7997,-5.7997,-5.7997,-5.7997,-5.7997,-5.7997,-5.7997,-5.7997,-5.7997,-5.7997,-5.7997,-5.7997,-5.7997,-5.7997,-5.7997,-5.7997,-5.7997,-5.7997,-5.7997,-5.7997,-5.7997,-5.7997,-5.7997,-5.7997,-5.7997,-5.7997,-5.7997,-5.7997,-5.7997,-5.7997,-5.7997,-5.7997,-5.7997,-5.7997,-5.7997,-5.7997,-5.7997,-5.7997,-5.7519,-5.7079,-5.7079,-5.6455,-5.5684,-5.506,-5.3717,-5.2219,-5.0805,0.0,0.0,0.0,-4.6084,-4.6007,-4.621,-4.7225,-4.7973,-4.8142,-4.868,-4.9018,-4.9018,-4.9018,-4.9086,-4.9255,-4.9796,-5.0236,-5.0608,-5.1854,-5.2632,-5.2802,-5.3379,-5.3618,-5.3518,-5.3518,-5.3518,-5.3518,-5.3518,-5.375,-5.4203,-5.4203,-5.4488,-5.4922,-5.4425,-5.4203,-5.4139,-5.3685,-5.3518,-5.3518,-5.3518,-5.3518,-5.3518,-5.7631,-5.7607,-5.7559,-5.7437,-5.7388,-5.7363,-5.7239,-5.7213,-5.7264,-5.7412,-5.7412,-5.751,-5.781,-5.7834,-5.7881,-5.7997,-5.7997,-5.7997,-5.7997,-5.7997,-5.7997,-5.7997,-5.7997,-5.7997,-5.7997,-5.7997,-5.7997,-5.7997,-5.7997,-5.7997,-5.7997,-5.7997,-5.7997,-5.7997,-5.7997,-5.7997,-5.7997,-5.7997,-5.7997,-5.7997,-5.7997,-5.7997,-5.7997,-5.7997,-5.7997,-5.7997,-5.7997,-5.7997,-5.7997,-5.7997,-5.7997,-5.7997,-5.7997,-5.7997,-5.7997,-5.7997,-5.7997,-5.7997,-5.7997,-5.7997,-5.7997,-5.7997,-5.7997,-5.7997,-5.7997,-5.796,-5.7923,-5.7923,-5.7262,-5.6712,-5.6638,-5.498,-5.3287,-5.2374,0.0,0.0,-4.795,-4.7198,-4.6955,-4.7665,-4.7804,-4.8142,-4.8849,-4.8984,-4.9018,-4.9018,-4.9018,-4.9289,-4.9965,-5.0067,-5.071,-5.2097,-5.2266,-5.2672,-5.3416,-5.3484,-5.3518,-5.3518,-5.3518,-5.3518,-5.3518,-5.3518,-5.3517,-5.3551,-5.3551,-5.3584,-5.3618,-5.3584,-5.3551,-5.3551,-5.3551,-5.3518,-5.3518,-5.3518,-5.3518,-5.3518,-5.7486,-5.7522,-5.7473,-5.7289,-5.7264,-5.7264,-5.7188,-5.7188,-5.7239,-5.7363,-5.7461,-5.7583,-5.7786,-5.7881,-5.795,-5.7997,-5.7997,-5.7973,-5.7881,-5.7881,-5.7881,-5.7881,-5.7881,-5.7881,-5.7881,-5.7881,-5.7927,-5.7997,-5.7997,-5.7997,-5.7997,-5.7997,-5.7997,-5.7997,-5.7997,-5.7997,-5.7997,-5.7997,-5.7997,-5.7997,-5.7997,-5.7997,-5.7997,-5.7997,-5.7997,-5.7997,-5.7997,-5.7997,-5.7997,-5.7997,-5.7997,-5.7997,-5.7997,-5.7997,-5.7997,-5.7997,-5.7997,-5.7997,-5.7997,-5.7997,-5.7997,-5.7997,-5.7997,-5.7997,-5.7997,-5.7997,-5.7997,-5.7997,-5.7776,-5.7409,-5.6895,-5.6136,-5.503,-5.323,0.0,-5.0092,-4.8742,-4.8009,-4.7683,-4.7868,-4.8308,-4.8714,-4.8984,-4.9018,-4.9018,-4.9018,-4.9424,-4.9796,-5.0067,-5.0947,-5.1961,-5.301,-5.3044,-5.3179,-5.3518,-5.3518,-5.3518,-5.3518,-5.3518,-5.3518,-5.3518,-5.3518,-5.3518,-5.3518,-5.3518,-5.3518,-5.3518,-5.3518,-5.3518,-5.3518,-5.3518,-5.3518,-5.3518,-5.3518,-5.3518,-5.3518,-5.7363,-5.7375,-5.735,-5.7213,-5.7188,-5.7188,-5.7188,-5.7188,-5.7213,-5.7313,-5.7412,-5.7534,-5.7739,-5.7834,-5.7904,-5.7997,-5.817,-5.827,-5.8176,-5.8348,-5.8251,-5.7763,-5.7763,-5.7763,-5.7763,-5.7786,-5.7857,-5.795,-5.7973,-5.7997,-5.7997,-5.7997,-5.7997,-5.7997,-5.7997,-5.7867,-5.7726,-5.7927,-5.7867,-5.775,-5.7927,-5.7997,-5.7997,-5.7997,-5.7997,-5.7997,-5.7997,-5.7997,-5.7997,-5.7997,-5.7997,-5.7997,-5.7997,-5.7997,-5.7997,-5.7997,-5.7997,-5.7997,-5.7997,-5.7997,-5.7997,-5.7997,-5.7997,-5.7997,-5.7997,-5.7997,-5.7997,-5.7997,-5.7844,-5.7543,-5.6972,-5.6744,-5.5982,-5.3918,-5.2775,-5.1552,-5.0017,-4.9364,-4.904,-4.8951,-4.939,-4.9695,-4.9695,-4.9695,-4.9695,-4.9695,-5.0168,-5.0541,-5.0777,-5.1995,-5.2942,-5.3484,-5.3518,-5.3518,-5.3518,-5.3518,-5.3518,-5.3518,-5.3518,-5.3518,-5.3518,-5.3518,-5.3518,-5.3518,-5.3518,-5.3518,-5.3518,-5.3518,-5.3518,-5.3518,-5.3518,-5.3518,-5.3518,-5.3518,-5.3653,-5.3856,-5.7213,-5.7188,-5.7188,-5.7188,-5.7188,-5.7188,-5.7188,-5.7188,-5.7188,-5.7188,-5.7188,-5.7289,-5.7559,-5.7583,-5.7715,-5.7973,-5.8613,-5.8993,-5.8993,-5.9638,-5.9272,-5.7692,-5.7619,-5.7583,-5.7583,-5.7739,-5.781,-5.781,-5.7927,-5.7997,-5.7997,-5.7997,-5.7997,-5.7997,-5.7997,-5.7642,-5.7141,-5.775,-5.7655,-5.7141,-5.775,-5.7997,-5.7997,-5.7997,-5.7997,-5.7997,-5.7997,-5.7997,-5.7997,-5.7997,-5.7997,-5.7997,-5.7997,-5.7997,-5.7997,-5.7997,-5.7997,-5.7997,-5.7997,-5.7997,-5.7997,-5.7997,-5.7997,-5.7997,-5.7997,-5.7997,-5.7997,-5.7997,-5.7522,-5.7116,-5.7116,-5.6678,-5.5826,-5.4429,-5.3941,-5.3216,-5.1887,-5.141,-5.1185,-5.1185,-5.1185,-5.1185,-5.1185,-5.1185,-5.1185,-5.1185,-5.1217,-5.1555,-5.2266,-5.3078,-5.3518,-5.3518,-5.3518,-5.3518,-5.3518,-5.3518,-5.3518,-5.3518,-5.3518,-5.3518,-5.3518,-5.3518,-5.3518,-5.3518,-5.3518,-5.3518,-5.3518,-5.3518,-5.3518,-5.3518,-5.3518,-5.3518,-5.3518,-5.3518,-5.3957,-5.46,-5.7188,-5.7188,-5.7188,-5.7188,-5.7188,-5.7188,-5.7188,-5.7188,-5.7188,-5.7188,-5.7264,-5.7388,-5.7559,-5.7655,-5.803,-5.8781,-5.8943,-5.914,-5.955,-5.9652,-5.9502,-5.8994,-5.8551,-5.8019,-5.7473,-5.7486,-5.7559,-5.7655,-5.7679,-5.7786,-5.7881,-5.7881,-5.7904,-5.7997,-5.7997,-5.7642,-5.7141,-5.775,-5.7425,-5.6599,-5.7141,-5.7376,-5.7376,-5.7376,-5.7618,-5.7997,-5.7997,-5.7997,-5.795,-5.7498,-5.802,-5.8841,-5.8841,-5.8437,-5.7997,-5.7997,-5.7997,-5.7997,-5.7997,-5.7997,-5.7997,-5.7997,-5.7997,-5.7997,-5.7997,-5.7997,-5.7997,-5.7997,-5.7522,-5.7116,-5.7116,-5.6563,-5.5771,-5.4796,-5.4116,-5.3306,-5.2278,-5.1722,-5.1346,-5.1217,-5.1185,-5.1185,-5.1185,-5.1185,-5.1185,-5.1185,-5.1691,-5.2334,-5.3112,-5.3382,-5.3518,-5.3518,-5.3518,-5.3518,-5.3518,-5.3518,-5.3518,-5.3518,-5.3518,-5.3518,-5.3518,-5.3518,-5.3518,-5.3518,-5.3518,-5.3518,-5.3518,-5.3518,-5.3518,-5.3518,-5.3518,-5.3518,-5.3518,-5.3518,-5.3957,-5.46,-5.7138,-5.7188,-5.7188,-5.7188,-5.7188,-5.7188,-5.7188,-5.7188,-5.7188,-5.7188,-5.7264,-5.7388,-5.7559,-5.7947,-5.8445,-5.9077,-5.953,-5.9914,-6.0181,-6.0402,-6.0267,-5.9651,-5.9512,-5.8947,-5.7822,-5.7835,-5.7764,-5.751,-5.7559,-5.7631,-5.7703,-5.7786,-5.7857,-5.7927,-5.7973,-5.7546,-5.6835,-5.7401,-5.6989,-5.5999,-5.6572,-5.6963,-5.7251,-5.7485,-5.8006,-5.8628,-5.888,-5.8773,-5.8555,-5.8159,-5.8623,-5.931,-5.931,-5.9151,-5.8951,-5.8951,-5.8731,-5.8474,-5.8474,-5.8253,-5.7997,-5.7997,-5.7997,-5.7997,-5.7997,-5.7997,-5.7997,-5.7997,-5.7351,-5.6783,-5.6783,-5.5964,-5.5133,-5.4647,-5.407,-5.3501,-5.2925,-5.2516,-5.2261,-5.2131,-5.2131,-5.2131,-5.2131,-5.2131,-5.2131,-5.2131,-5.2536,-5.2976,-5.3484,-5.3518,-5.3518,-5.3518,-5.3518,-5.3518,-5.3518,-5.3518,-5.3518,-5.3518,-5.3518,-5.3518,-5.3518,-5.3518,-5.3518,-5.3518,-5.3518,-5.3518,-5.3518,-5.3518,-5.3518,-5.3518,-5.3518,-5.3518,-5.3551,-5.3822,-5.4397,-5.5074,-5.701,-5.7112,-5.7138,-5.7188,-5.7188,-5.7188,-5.7188,-5.7188,-5.7188,-5.7188,-5.7188,-5.7325,-5.7644,-5.8324,-5.8884,-5.9152,-6.0387,-6.1052,-6.0919,-6.158,-6.1326,-5.9905,-6.052,-6.0194,-5.8637,-5.8584,-5.8235,-5.7472,-5.7522,-5.7559,-5.7583,-5.7739,-5.781,-5.781,-5.7867,-5.7327,-5.633,-5.6907,-5.6456,-5.5478,-5.6148,-5.6835,-5.7504,-5.8043,-5.8776,-5.9559,-6.0139,-5.9953,-5.9516,-5.95,-5.9473,-5.9463,-5.9589,-5.9976,-6.0419,-6.0419,-5.9905,-5.9294,-5.9221,-5.8694,-5.8107,-5.8033,-5.7997,-5.7997,-5.7997,-5.7997,-5.7997,-5.795,-5.704,-5.6276,-5.6221,-5.5069,-5.4175,-5.4175,-5.3882,-5.3684,-5.3684,-5.3584,-5.3518,-5.3518,-5.3518,-5.3518,-5.3518,-5.3518,-5.3518,-5.3518,-5.3518,-5.3518,-5.3518,-5.3518,-5.3518,-5.3518,-5.3518,-5.3518,-5.3518,-5.3518,-5.3518,-5.3518,-5.3518,-5.3518,-5.3518,-5.3518,-5.3518,-5.3518,-5.3518,-5.3518,-5.3518,-5.3518,-5.3518,-5.3518,-5.3518,-5.3518,-5.3585,-5.4329,-5.5074,-5.5818,-5.6366,-5.6501,-5.6635,-5.7112,-5.7188,-5.7188,-5.7188,-5.7188,-5.7188,-5.7188,-5.7188,-5.7517,-5.8285,-5.854,-5.9197,-6.0599,-6.1491,-6.1887,-6.1752,-6.1906,-6.1833,-6.1471,-6.1652,-6.1254,-6.0303,-5.9061,-5.8362,-5.8181,-5.759,-5.7338,-5.7437,-5.7559,-5.7679,-5.781,-5.7449,-5.6938,-5.6339,-5.7028,-5.6663,-5.5646,-5.6921,-5.748,-5.7621,-5.777,-5.8545,-5.9506,-5.9673,-5.9621,-5.9536,-5.9622,-5.9266,-5.902,-6.0106,-6.0413,-6.0419,-6.0419,-6.0272,-6.0015,-5.9368,-5.9074,-5.8804,-5.8143,-5.7997,-5.7997,-5.7997,-5.7997,-5.7881,-5.7401,-5.6642,-5.5936,-5.5449,-5.452,-5.3816,-5.3816,-5.3651,-5.3551,-5.3551,-5.3517,-5.3518,-5.3518,-5.3518,-5.3518,-5.3518,-5.3518,-5.3518,-5.3518,-5.3518,-5.3518,-5.3518,-5.3518,-5.3518,-5.3518,-5.3518,-5.3518,-5.3518,-5.3518,-5.3518,-5.3518,-5.3518,-5.3518,-5.3518,-5.3518,-5.3518,-5.3518,-5.3518,-5.3518,-5.3518,-5.3518,-5.3518,-5.3518,-5.3518,-5.3518,-5.3585,-5.4329,-5.5074,-5.5919,-5.5751,-5.5894,-5.6063,-5.6661,-5.6767,-5.6881,-5.7163,-5.7188,-5.7188,-5.7188,-5.7188,-5.7565,-5.8489,-5.8951,-5.9848,-6.1527,-6.194,-6.2087,-6.1978,-6.1978,-6.1978,-6.1978,-6.1978,-6.1651,-6.0904,-5.9689,-5.8853,-5.8383,-5.7985,-5.7612,-5.7289,-5.7437,-5.7777,-5.8239,-5.7808,-5.7522,-5.7418,-5.7504,-5.7031,-5.6251,-5.6987,-5.7463,-5.7808,-5.8027,-5.8734,-5.9643,-5.996,-5.9939,-5.9685,-5.9448,-5.9486,-5.9831,-6.0575,-6.1151,-6.1557,-6.1557,-6.1263,-6.0811,-6.0138,-5.9661,-5.9151,-5.8349,-5.813,-5.813,-5.8024,-5.7997,-5.7821,-5.7216,-5.6536,-5.5816,-5.5214,-5.433,-5.3717,-5.3717,-5.3584,-5.3518,-5.3518,-5.3518,-5.3518,-5.3518,-5.3518,-5.3518,-5.3518,-5.3518,-5.3518,-5.3518,-5.3518,-5.3518,-5.3518,-5.3518,-5.3518,-5.3518,-5.3518,-5.3518,-5.3518,-5.3518,-5.3518,-5.3518,-5.3518,-5.3518,-5.3518,-5.3518,-5.3518,-5.3518,-5.3518,-5.3518,-5.3518,-5.3518,-5.3518,-5.3518,-5.3518,-5.3518,-5.3585,-5.4329,-5.5277,-5.6393,-5.5099,-5.5219,-5.5396,-5.6035,-5.6146,-5.6311,-5.6793,-5.6984,-5.7061,-5.7061,-5.7138,-5.7601,-5.8646,-5.9615,-6.0705,-6.2049,-6.206,-6.1978,-6.1978,-6.1978,-6.1978,-6.1978,-6.1978,-6.1692,-6.1016,-6.0344,-5.9573,-5.8625,-5.8481,-5.8135,-5.7587,-5.7763,-5.825,-5.898,-5.8435,-5.833,-5.8538,-5.7978,-5.7431,-5.6979,-5.7117,-5.7497,-5.8048,-5.8446,-5.9023,-5.9741,-6.0309,-6.0313,-5.9908,-5.925,-5.9838,-6.0915,-6.0885,-6.1751,-6.2755,-6.273,-6.2278,-6.1592,-6.088,-6.0177,-5.949,-5.85,-5.8372,-5.8373,-5.802,-5.7977,-5.775,-5.6876,-5.6286,-5.5731,-5.4974,-5.4203,-5.3651,-5.3651,-5.3584,-5.3518,-5.3518,-5.3518,-5.3518,-5.3518,-5.3518,-5.3518,-5.3518,-5.3518,-5.3518,-5.3518,-5.3518,-5.3518,-5.3518,-5.3518,-5.3518,-5.3518,-5.3518,-5.3518,-5.3518,-5.3518,-5.3518,-5.3518,-5.3518,-5.3518,-5.3518,-5.3518,-5.3518,-5.3518,-5.3518,-5.3518,-5.3518,-5.3518,-5.3518,-5.3518,-5.3518,-5.3518,-5.3619,-5.4465,-5.5716,-5.707,-5.4391,-5.4548,-5.4734,-5.5432,-5.5549,-5.5578,-5.5601,-5.609,-5.642,-5.642,-5.6881,-5.7768,-5.9315,-6.0801,-6.1815,-6.2033,-6.2005,-6.1978,-6.1978,-6.1978,-6.1978,-6.1978,-6.1978,-6.1692,-6.1016,-6.0909,-6.0409,-5.9609,-5.8895,-5.8816,-5.9289,-5.951,-5.9734,-5.9782,-5.8898,-5.8581,-5.8581,-5.8075,-5.7736,-5.7569,-5.8256,-5.8496,-5.8459,-5.8495,-5.8909,-5.9478,-5.9741,-5.9937,-5.9908,-5.925,-5.9838,-6.0885,-6.0736,-6.1584,-6.2603,-6.2475,-6.2453,-6.2172,-6.0892,-6.0522,-6.0151,-5.8595,-5.8705,-5.8943,-5.8024,-5.7934,-5.7474,-5.5565,-5.5472,-5.535,-5.4106,-5.3684,-5.3517,-5.3517,-5.3484,-5.3518,-5.3518,-5.3518,-5.3518,-5.3518,-5.3518,-5.3518,-5.3518,-5.3518,-5.3518,-5.3518,-5.3518,-5.3518,-5.3518,-5.3518,-5.3518,-5.3518,-5.3518,-5.3518,-5.3518,-5.3518,-5.3518,-5.3518,-5.3518,-5.3518,-5.3518,-5.3518,-5.3518,-5.3518,-5.3518,-5.3518,-5.3518,-5.3518,-5.3518,-5.3518,-5.3518,-5.3518,-5.3687,-5.504,-5.6494,-5.7746,-5.3815,-5.3881,-5.4108,-5.4734,-5.4826,-5.4978,-5.5343,-5.5922,-5.6311,-5.6311,-5.6855,-5.7623,-5.8818,-6.0375,-6.1507,-6.1942,-6.1978,-6.184,-6.1458,-6.143,-6.1286,-6.0897,-6.0867,-6.0529,-5.9835,-5.9835,-5.9628,-5.9313,-5.9283,-5.9378,-5.9615,-5.9786,-5.9979,-6.0151,-5.9416,-5.923,-5.9324,-5.8692,-5.8359,-5.829,-5.8529,-5.8561,-5.849,-5.8384,-5.8526,-5.8737,-5.8806,-5.9046,-5.9284,-5.884,-5.9611,-6.0676,-6.0153,-6.112,-6.2344,-6.1528,-6.1668,-6.1797,-6.0434,-6.0088,-5.9881,-5.8673,-5.8798,-5.8879,-5.7564,-5.7611,-5.748,-5.5758,-5.5208,-5.4787,-5.3881,-5.3584,-5.3518,-5.3518,-5.3518,-5.3518,-5.3518,-5.3518,-5.3518,-5.3518,-5.3518,-5.3518,-5.3518,-5.3518,-5.3518,-5.3518,-5.3518,-5.3518,-5.3518,-5.3518,-5.3518,-5.3518,-5.3518,-5.3518,-5.3518,-5.3518,-5.3518,-5.3518,-5.3518,-5.3518,-5.3518,-5.3518,-5.3518,-5.3518,-5.3518,-5.3518,-5.3518,-5.3518,-5.3518,-5.3518,-5.3518,-5.3754,-5.4296,-5.5784,-5.6731,-5.734]},{"header":{"parameterUnit":"m.s-1","parameterCategory":1,"la1":30.6,"la2":28.766,"lo1":-90.7593,"lo2":-88.6598,"dy":0.0162,"dx":0.0183,"nx":116,"ny":114,"refTime":"2024-05-31T06:00:00:Z","depth":0,"parameterNumber":3,"parameterNumberName":"V-component_of_WINDS"},"data":[0.0,0.0,0.0,0.0,0.0,0.0,0.0,0.0,0.0,0.0,0.0,0.0,0.0,0.0,0.0,0.0,0.0,0.0,0.0,0.0,0.0,0.0,0.0,0.0,0.0,0.0,0.0,0.0,0.0,0.0,0.0,0.0,0.0,0.0,0.0,0.0,0.0,0.0,0.0,0.0,0.0,0.0,0.0,0.0,0.0,0.0,0.0,0.0,0.0,0.0,0.0,0.0,0.0,0.0,0.0,0.0,0.0,0.0,0.0,0.0,0.0,0.0,0.0,0.0,0.0,0.0,0.0,0.0,0.0,0.0,0.0,0.0,0.0,0.0,0.0,0.0,0.0,0.0,0.0,0.0,0.0,0.0,0.0,0.0,0.0,0.0,0.0,0.0,0.0,0.0,0.0,0.0,0.0,0.0,0.0,0.0,0.0,0.0,0.0,0.0,0.0,0.0,0.0,0.0,0.0,0.0,0.0,0.0,0.0,0.0,0.0,0.0,0.0,0.0,0.0,0.0,0.0,0.0,0.0,0.0,0.0,0.0,0.0,0.0,0.0,0.0,0.0,0.0,0.0,0.0,0.0,0.0,0.0,0.0,0.0,0.0,0.0,0.0,0.0,0.0,0.0,0.0,0.0,0.0,0.0,0.0,0.0,0.0,0.0,0.0,0.0,0.0,0.0,0.0,0.0,0.0,0.0,0.0,0.0,0.0,0.0,0.0,0.0,0.0,0.0,0.0,0.0,0.0,0.0,0.0,0.0,0.0,0.0,0.0,0.0,0.0,0.0,0.0,0.0,0.0,0.0,0.0,0.0,0.0,0.0,0.0,0.0,0.0,0.0,0.0,0.0,0.0,0.0,0.0,0.0,0.0,0.0,0.0,0.0,0.0,0.0,0.0,0.0,0.0,0.0,0.0,0.0,0.0,0.0,0.0,0.0,0.0,0.0,0.0,0.0,0.0,0.0,0.0,0.0,0.0,0.0,0.0,0.0,0.0,0.0,0.0,0.0,0.0,0.0,0.0,0.0,0.0,0.0,0.0,0.0,0.0,0.0,0.0,0.0,0.0,0.0,0.0,0.0,0.0,0.0,0.0,0.0,0.0,0.0,0.0,0.0,0.0,0.0,0.0,0.0,0.0,0.0,0.0,0.0,0.0,0.0,0.0,0.0,0.0,0.0,0.0,0.0,0.0,0.0,0.0,0.0,0.0,0.0,0.0,0.0,0.0,0.0,0.0,0.0,0.0,0.0,0.0,0.0,0.0,0.0,0.0,0.0,0.0,0.0,0.0,0.0,0.0,0.0,0.0,0.0,0.0,0.0,0.0,0.0,0.0,0.0,0.0,0.0,0.0,0.0,0.0,0.0,0.0,0.0,0.0,0.0,0.0,0.0,0.0,0.0,0.0,0.0,0.0,0.0,0.0,0.0,0.0,0.0,0.0,0.0,0.0,0.0,0.0,0.0,0.0,0.0,0.0,0.0,0.0,0.0,0.0,0.0,0.0,0.0,0.0,0.0,0.0,0.0,0.0,0.0,0.0,0.0,0.0,0.0,0.0,0.0,0.0,0.0,0.0,0.0,0.0,0.0,0.0,0.0,0.0,0.0,0.0,0.0,0.0,0.0,0.0,0.0,0.0,0.0,0.0,0.0,0.0,0.0,0.0,0.0,0.0,0.0,0.0,0.0,0.0,0.0,0.0,0.0,0.0,0.0,0.0,0.0,0.0,0.0,0.0,0.0,0.0,0.0,0.0,0.0,0.0,0.0,0.0,0.0,0.0,0.0,0.0,0.0,0.0,0.0,0.0,0.0,0.0,0.0,0.0,0.0,0.0,0.0,0.0,0.0,0.0,0.0,0.0,0.0,0.0,0.0,0.0,0.0,0.0,0.0,0.0,0.0,0.0,0.0,0.0,0.0,0.0,0.0,0.0,0.0,0.0,0.0,0.0,0.0,0.0,0.0,0.0,0.0,0.0,0.0,0.0,0.0,0.0,0.0,0.0,0.0,0.0,0.0,0.0,0.0,0.0,0.0,0.0,0.0,0.0,0.0,0.0,0.0,0.0,0.0,0.0,0.0,0.0,0.0,0.0,0.0,0.0,0.0,0.0,0.0,0.0,0.0,0.0,0.0,0.0,0.0,0.0,0.0,0.0,0.0,0.0,0.0,0.0,0.0,0.0,0.0,0.0,0.0,0.0,0.0,0.0,0.0,0.0,0.0,0.0,0.0,0.0,0.0,0.0,0.0,0.0,0.0,0.0,0.0,0.0,0.0,0.0,0.0,0.0,0.0,0.0,0.0,0.0,0.0,0.0,0.0,0.0,0.0,0.0,0.0,0.0,0.0,0.0,0.0,0.0,0.0,0.0,0.0,0.0,0.0,0.0,0.0,0.0,0.0,0.0,0.0,0.0,0.0,0.0,0.0,0.0,0.0,0.0,0.0,0.0,0.0,0.0,0.0,0.0,0.0,0.0,0.0,0.0,0.0,0.0,0.0,0.0,0.0,0.0,0.0,0.0,0.0,0.0,0.0,0.0,0.0,0.0,0.0,0.0,0.0,0.0,0.0,0.0,0.0,0.0,0.0,0.0,0.0,0.0,0.0,0.0,0.0,0.0,0.0,0.0,0.0,0.0,0.0,0.0,0.0,0.0,0.0,0.0,0.0,0.0,0.0,0.0,0.0,0.0,0.0,0.0,0.0,0.0,0.0,0.0,0.0,0.0,0.0,0.0,0.0,0.0,0.0,0.0,0.0,0.0,0.0,0.0,0.0,0.0,0.0,0.0,0.0,0.0,0.0,0.0,0.0,0.0,0.0,0.0,0.0,0.0,0.0,0.0,0.0,0.0,0.0,0.0,0.0,0.0,0.0,0.0,0.0,0.0,0.0,0.0,0.0,0.0,0.0,0.0,0.0,0.0,0.0,0.0,0.0,0.0,0.0,0.0,0.0,0.0,0.0,0.0,0.0,0.0,0.0,0.0,0.0,0.0,0.0,0.0,0.0,0.0,0.0,0.0,0.0,0.0,0.0,0.0,0.0,0.0,0.0,0.0,0.0,0.0,0.0,0.0,0.0,0.0,0.0,0.0,0.0,0.0,0.0,0.0,0.0,0.0,0.0,0.0,0.0,0.0,0.0,0.0,0.0,0.0,0.0,0.0,0.0,0.0,0.0,0.0,0.0,0.0,0.0,0.0,0.0,0.0,0.0,0.0,0.0,0.0,0.0,0.0,0.0,0.0,0.0,0.0,0.0,0.0,0.0,0.0,0.0,0.0,0.0,0.0,0.0,0.0,0.0,0.0,0.0,0.0,0.0,0.0,0.0,0.0,0.0,0.0,0.0,0.0,0.0,0.0,0.0,0.0,0.0,0.0,0.0,0.0,0.0,0.0,0.0,0.0,0.0,0.0,0.0,0.0,0.0,0.0,0.0,0.0,0.0,0.0,0.0,0.0,0.0,0.0,0.0,0.0,0.0,0.0,0.0,0.0,0.0,0.0,0.0,0.0,0.0,0.0,0.0,0.0,0.0,0.0,0.0,0.0,0.0,0.0,0.0,0.0,0.0,0.0,0.0,0.0,0.0,0.0,0.0,0.0,0.0,0.0,0.0,0.0,0.0,0.0,0.0,0.0,0.0,0.0,0.0,0.0,0.0,0.0,0.0,0.0,0.0,0.0,0.0,0.0,0.0,0.0,0.0,0.0,0.0,0.0,0.0,0.0,0.0,0.0,0.0,0.0,0.0,0.0,0.0,0.0,0.0,0.0,0.0,0.0,0.0,0.0,0.0,0.0,0.0,0.0,0.0,0.0,0.0,0.0,0.0,0.0,0.0,0.0,0.0,0.0,0.0,0.0,0.0,0.0,0.0,0.0,0.0,0.0,0.0,0.0,0.0,0.0,0.0,0.0,0.0,0.0,0.0,0.0,0.0,0.0,0.0,0.0,0.0,0.0,0.0,0.0,0.0,0.0,0.0,0.0,0.0,0.0,0.0,0.0,0.0,0.0,0.0,0.0,0.0,0.0,0.0,0.0,0.0,0.0,0.0,0.0,0.0,0.0,0.0,0.0,0.0,0.0,0.0,0.0,0.0,0.0,0.0,0.0,0.0,0.0,0.0,0.0,0.0,0.0,0.0,0.0,0.0,0.0,0.0,0.0,0.0,0.0,0.0,0.0,0.0,0.0,0.0,0.0,0.0,0.0,0.0,0.0,0.0,0.0,0.0,0.0,0.0,0.0,0.0,0.0,0.0,0.0,0.0,0.0,0.0,0.0,0.0,0.0,0.0,0.0,0.0,0.0,0.0,0.0,0.0,0.0,0.0,0.0,0.0,0.0,0.0,0.0,0.0,0.0,0.0,0.0,0.0,0.0,0.0,0.0,0.0,0.0,0.0,0.0,0.0,0.0,0.0,0.0,0.0,0.0,0.0,0.0,0.0,0.0,0.0,0.0,0.0,0.0,0.0,0.0,0.0,0.0,0.0,0.0,0.0,0.0,0.0,0.0,0.0,0.0,0.0,0.0,0.0,0.0,0.0,0.0,0.0,0.0,0.0,0.0,0.0,0.0,0.0,0.0,0.0,0.0,0.0,0.0,0.0,0.0,0.0,0.0,0.0,0.0,0.0,0.0,0.0,0.0,0.0,0.0,0.0,0.0,0.0,0.0,0.0,0.0,0.0,0.0,0.0,0.0,0.0,0.0,0.0,0.0,0.0,0.0,0.0,0.0,0.0,0.0,0.0,0.0,0.0,0.0,0.0,0.0,0.0,0.0,0.0,0.0,0.0,0.0,0.0,0.0,0.0,0.0,0.0,0.0,0.0,0.0,0.0,0.0,0.0,0.0,0.0,0.0,0.0,0.0,0.0,0.0,0.0,0.0,0.0,0.0,0.0,0.0,0.0,0.0,0.0,0.0,0.0,0.0,0.0,0.0,0.0,0.0,0.0,0.0,0.0,0.0,0.0,0.0,0.0,0.0,0.0,0.0,0.0,0.0,0.0,0.0,0.0,0.0,0.0,0.0,0.0,0.0,0.0,0.0,0.0,0.0,0.0,0.0,0.0,0.0,0.0,0.0,0.0,0.0,0.0,0.0,0.0,0.0,0.0,0.0,0.0,0.0,0.0,0.0,0.0,0.0,0.0,0.0,0.0,0.0,0.0,0.0,0.0,0.0,0.0,0.0,0.0,0.0,0.0,0.0,0.0,0.0,0.0,0.0,0.0,0.0,0.0,0.0,0.0,0.0,0.0,0.0,0.0,0.0,0.0,0.0,0.0,0.0,0.0,0.0,0.0,0.0,0.0,0.0,0.0,0.0,0.0,0.0,0.0,0.0,0.0,0.0,0.0,0.0,0.0,0.0,0.0,0.0,0.0,0.0,0.0,0.0,0.0,0.0,0.0,0.0,0.0,0.0,0.0,0.0,0.0,0.0,0.0,0.0,0.0,0.0,0.0,0.0,0.0,0.0,0.0,0.0,0.0,0.0,0.0,0.0,0.0,0.0,0.0,0.0,0.0,0.0,0.0,0.0,0.0,0.0,0.0,0.0,0.0,0.0,0.0,0.0,0.0,0.0,0.0,0.0,0.0,0.0,0.0,0.0,0.0,0.0,0.0,0.0,0.0,0.0,0.0,0.0,0.0,0.0,0.0,0.0,0.0,0.0,0.0,0.0,0.0,0.0,0.0,0.0,0.0,0.0,0.0,0.0,0.0,0.0,0.0,0.0,0.0,0.0,0.0,0.0,0.0,0.0,0.0,0.0,0.0,0.0,0.0,0.0,0.0,0.0,0.0,0.0,0.0,0.0,0.0,0.0,0.0,0.0,0.0,0.0,0.0,0.0,0.0,0.0,0.0,0.0,0.0,0.0,0.0,0.0,0.0,0.0,0.0,0.0,0.0,0.0,0.0,0.0,0.0,0.0,0.0,0.0,0.0,0.0,0.0,0.0,0.0,0.0,0.0,0.0,0.0,0.0,0.0,0.0,0.0,0.0,0.0,0.0,0.0,0.0,0.0,0.0,0.0,0.0,0.0,0.0,0.0,0.0,0.0,0.0,0.0,0.0,0.0,0.0,0.0,0.0,0.0,0.0,0.0,0.0,0.0,0.0,0.0,0.0,0.0,0.0,0.0,0.0,0.0,0.0,0.9138,0.0,0.0,0.0,0.0,0.0,0.0,0.0,0.0,0.0,0.0,0.0,0.0,0.0,0.0,0.0,0.0,0.0,0.0,0.0,0.0,0.0,0.0,0.0,0.0,0.8481,0.8756,0.829,0.7946,0.7238,0.5995,0.0,0.0,0.0,0.0,0.0,0.5243,0.5169,0.5203,0.5352,0.6038,0.7218,0.8824,0.9498,0.9694,0.9516,0.0,0.0,0.0,0.0,0.0,0.0,0.0,0.0,0.0,0.0,0.0,0.0,0.0,0.0,0.0,0.0,0.0,0.0,0.0,0.0,0.0,0.0,0.0,0.0,0.0,0.0,0.0,0.0,0.0,0.0,0.0,0.0,0.0,0.0,0.0,0.0,0.0,0.0,0.0,0.0,0.0,0.0,0.0,0.0,0.0,0.0,0.0,0.0,0.0,0.0,0.0,0.0,0.0,0.0,0.0,0.0,0.0,0.0,0.0,0.0,0.0,0.0,0.0,0.0,0.0,0.0,0.0,0.0,0.0,0.0,0.0,0.9854,0.0,0.0,0.0,0.0,0.0,0.0,0.0,0.0,0.0,0.0,0.0,0.0,0.0,0.0,0.0,0.0,0.0,0.0,0.0,0.0,0.0,0.7489,0.7929,0.8879,0.9275,0.8723,0.8585,0.7865,0.6307,0.6158,0.0,0.0,0.0,0.516,0.5392,0.5419,0.5494,0.5589,0.6414,0.7753,0.9569,1.0035,1.0098,0.9791,0.9781,0.0,0.0,0.0,0.0,0.0,0.0,0.0,0.0,0.0,0.0,0.0,0.0,0.0,0.0,0.0,0.0,0.0,0.0,0.0,0.0,0.0,0.0,0.0,0.0,0.0,0.0,0.0,0.0,0.0,0.0,0.0,0.0,0.0,0.0,0.0,0.0,0.0,0.0,0.0,0.0,0.0,0.0,0.0,0.0,0.0,0.0,0.0,0.0,0.0,0.0,0.0,0.0,0.0,0.0,0.0,0.0,0.0,0.0,0.0,0.0,0.0,0.0,0.0,1.1866,1.1825,1.1825,1.1582,1.1643,1.1817,1.1423,1.1256,1.1231,1.0707,0.0,0.0,0.0,0.0,0.0,0.0,0.0,0.0,0.0,0.0,0.0,0.0,0.0,0.0,0.0,0.0,0.0,0.0,0.0,0.7619,0.8176,0.9197,0.9689,0.9309,0.916,0.8606,0.7434,0.6643,0.0,0.5524,0.506,0.5027,0.5392,0.5528,0.5569,0.5589,0.6918,0.7774,0.8186,1.009,1.0932,1.0902,1.0876,1.0727,1.043,0.0,0.0,0.0,0.0,0.0,0.0,0.0,0.0,0.0,0.0,0.0,0.0,0.0,0.0,0.0,0.0,0.0,0.0,0.0,0.0,0.0,0.0,0.0,0.0,0.0,0.0,0.0,0.0,0.0,0.0,0.0,0.0,0.0,0.0,0.0,0.0,0.0,0.0,0.0,0.0,0.0,1.4231,1.4631,0.0,0.0,0.0,0.0,0.0,0.0,0.0,0.0,0.0,0.0,0.0,0.0,0.0,1.1816,1.1594,1.2298,1.2548,1.2311,1.2853,1.3124,1.3124,1.3124,1.3124,1.3124,1.31,0.0,1.1671,1.1247,0.0,0.0,0.0,0.0,0.0,0.0,0.0,0.0,0.0,0.0,0.0,0.0,0.0,0.0,0.0,0.0,0.0,0.0,0.0,0.0,0.0,0.8974,0.96,0.9421,0.9773,0.9371,0.7852,0.7137,0.6464,0.5793,0.5138,0.5032,0.5488,0.5555,0.5752,0.6122,0.696,0.7862,0.882,0.9823,1.0606,1.1123,1.1092,1.0931,1.0607,0.9869,0.0,0.0,0.0,0.0,0.0,0.0,0.0,0.0,0.0,0.0,0.0,0.0,0.0,0.0,0.0,0.0,0.0,0.0,0.0,0.0,0.0,0.0,0.0,0.0,0.0,0.0,0.0,0.0,0.0,0.0,0.0,0.0,0.0,0.0,0.0,0.0,0.0,0.0,0.0,1.5664,1.6151,1.5794,1.5848,1.5464,0.0,0.0,0.0,0.0,0.0,0.0,0.0,0.0,0.0,1.2239,1.2402,1.2564,1.2738,1.3038,1.3275,1.3234,1.3526,1.3669,1.3669,1.3571,1.3522,1.3514,1.3417,1.3108,1.2637,1.2166,1.1817,1.1533,0.0,0.0,0.0,0.0,1.0673,1.0486,0.0,0.0,0.0,0.0,0.0,0.0,0.0,0.0,0.0,0.0,0.0,0.0,0.76,0.8864,0.9685,0.9673,1.0292,1.0092,0.8682,0.7923,0.7214,0.6581,0.5873,0.5636,0.5859,0.5845,0.6235,0.7051,0.7185,0.8057,0.9683,0.9821,1.0352,1.1131,1.1343,1.1101,1.0523,0.9903,0.8998,0.802,0.0,0.0,0.0,0.0,0.0,0.0,0.0,0.0,0.0,0.0,0.0,0.0,0.0,0.0,0.0,0.0,0.0,0.0,0.0,0.0,0.0,0.0,0.0,0.0,0.0,0.0,0.0,0.0,0.0,0.0,0.0,0.0,0.0,0.0,0.0,0.0,0.0,1.6304,1.6737,1.5894,1.5783,1.5356,0.0,0.0,0.0,0.0,0.0,0.0,1.228,1.2393,1.2645,1.3092,1.3157,1.3376,1.3774,1.3823,1.3912,1.4034,1.4034,1.4034,1.4034,1.3904,1.3776,1.3768,1.3701,1.362,1.353,1.2946,1.2515,1.2207,1.189,1.157,1.1334,1.1638,1.1443,1.1232,0.0,0.0,0.0,0.0,0.0,0.0,0.0,0.0,0.0,0.0,0.0,0.72,0.7489,0.9105,1.0247,1.0439,1.0713,1.0758,1.0458,0.9129,0.8334,0.8287,0.7749,0.7163,0.6565,0.6473,0.714,0.8582,0.7918,0.8447,1.0183,1.0321,1.0644,1.121,1.1925,1.1566,1.0492,0.9925,0.9458,0.904,0.8369,0.0,0.0,0.0,0.0,0.0,0.0,0.0,0.0,0.0,0.0,0.0,0.0,0.0,0.0,0.0,0.0,0.0,0.0,0.0,0.0,0.0,0.0,0.0,0.0,0.0,0.0,0.0,0.0,0.0,0.0,0.0,0.0,0.0,0.0,0.0,0.0,0.0,0.0,1.3461,1.3554,0.0,0.0,0.0,0.0,1.2086,1.2367,1.2661,1.3019,1.3376,1.3652,1.3839,1.4018,1.4123,1.4148,1.431,1.4391,1.4399,1.4399,1.4399,1.4399,1.4391,1.4391,1.4391,1.4383,1.4286,1.4083,1.336,1.2962,1.2775,1.258,1.217,1.1642,1.2073,1.2075,1.1909,0.0,0.0,0.0,0.0,0.0,0.5538,0.5803,0.591,0.6027,0.6147,0.6597,0.7106,0.7644,0.8741,0.976,1.0621,1.0948,1.0785,1.0065,0.9385,0.8744,0.8103,0.7277,0.669,0.6418,0.7301,0.8122,0.884,0.8792,0.93,1.0307,0.9682,0.9657,1.0158,1.0431,1.0257,0.9771,0.9733,0.9146,0.8268,0.812,0.7987,0.0,0.0,0.0,0.0,0.0,0.0,0.0,0.0,0.0,0.0,0.0,0.0,0.0,0.0,0.0,0.0,0.0,0.0,0.0,0.0,0.0,0.0,0.0,0.0,0.0,0.0,0.0,0.0,0.0,0.0,0.0,0.0,0.0,0.0,0.0,0.0,0.0,1.475,1.4485,0.0,1.3198,1.3202,1.3099,1.271,1.3051,1.3417,1.3774,1.3912,1.4066,1.4237,1.431,1.4448,1.4684,1.4749,1.4838,1.4875,1.4875,1.4887,1.4773,1.4659,1.4611,1.4603,1.4481,1.4399,1.4318,1.4058,1.3717,1.3267,1.3157,1.2936,1.2765,1.297,1.2928,1.2869,0.0,0.0,0.0,0.0,0.5154,0.5435,0.5794,0.5898,0.6011,0.632,0.6486,0.6822,0.7392,0.8114,0.8952,0.9977,1.0533,1.0512,0.9627,0.9466,0.8994,0.8061,0.7178,0.696,0.7507,0.7912,0.8766,1.0131,0.9331,0.9591,1.0748,0.932,0.8924,0.9327,0.9426,0.9412,0.9324,0.9566,0.9065,0.8132,0.8105,0.8077,0.8081,0.0,0.0,0.0,0.0,0.0,0.0,0.0,0.0,0.0,0.0,0.0,0.0,0.0,0.0,0.0,0.0,0.0,0.0,0.0,0.0,0.0,0.0,0.0,0.0,0.0,0.0,0.0,0.0,0.0,0.0,0.0,0.0,0.0,0.0,0.0,1.5124,1.4654,1.4521,1.4307,1.3846,1.3553,1.3392,1.3457,1.3685,1.3985,1.4335,1.4416,1.4521,1.47,1.4765,1.4911,1.5147,1.5155,1.5212,1.5333,1.5333,1.5236,1.5057,1.4944,1.4854,1.4789,1.4667,1.4578,1.4521,1.4521,1.4286,1.3888,1.3709,1.3604,1.3547,1.3482,1.3425,1.3368,0.0,0.0,0.0,0.499,0.5164,0.5368,0.5571,0.5775,0.5984,0.6237,0.6233,0.6359,0.6746,0.7339,0.7959,0.8565,0.9577,0.9948,0.9371,0.9435,0.914,0.8309,0.7694,0.8142,0.9774,0.8319,0.9129,1.2393,0.9518,0.9262,1.1512,0.941,0.8528,0.8825,0.908,0.9187,0.9187,0.9476,0.9276,0.8767,0.8455,0.8479,0.8733,0.0,0.0,0.0,0.0,0.0,0.0,0.0,0.0,0.0,0.0,0.0,0.0,0.0,0.0,0.0,0.0,0.0,0.0,0.0,0.0,0.0,0.0,0.0,0.0,0.0,0.0,0.0,0.0,0.0,0.0,0.0,0.0,0.0,1.4829,1.4521,1.3922,1.2972,1.3267,1.3587,1.3417,1.3717,1.3993,1.418,1.4196,1.4359,1.4708,1.4887,1.5065,1.5244,1.5423,1.552,1.5528,1.5528,1.5528,1.5528,1.5528,1.5423,1.5244,1.5244,1.5147,1.4984,1.4976,1.4879,1.4724,1.4716,1.4611,1.4432,1.4253,1.4075,1.3888,1.3725,1.3547,1.3384,0.0,0.0,0.4849,0.4849,0.498,0.5189,0.5547,0.5653,0.5729,0.586,0.6189,0.6456,0.6513,0.7004,0.7901,0.9283,0.9476,0.9676,1.0003,0.9691,0.8918,0.7618,0.8502,0.8665,0.787,0.9876,1.0742,1.0239,1.0299,1.0337,1.0386,0.9023,0.8528,0.8825,0.8874,0.8924,0.8924,0.8973,0.8947,0.8787,0.8876,0.8841,0.8758,0.0,0.0,0.0,0.0,0.0,0.0,0.0,0.0,0.0,0.0,0.0,0.0,0.0,0.0,0.0,0.0,0.0,0.0,0.0,0.0,0.0,0.0,0.0,0.0,0.0,0.0,0.0,0.0,0.0,0.0,0.0,0.0,1.5905,1.5979,1.439,1.3303,1.3539,1.3742,1.3912,1.4123,1.4229,1.4359,1.4546,1.4676,1.4846,1.5082,1.5268,1.539,1.5439,1.5488,1.5577,1.5699,1.5699,1.5699,1.5699,1.5699,1.561,1.5439,1.5439,1.5415,1.5358,1.522,1.5139,1.5082,1.4952,1.4862,1.4789,1.4481,1.4253,1.4099,1.405,1.3912,1.3742,0.0,0.3825,0.4439,0.4491,0.4812,0.5157,0.5532,0.5679,0.5745,0.5855,0.6029,0.6098,0.6071,0.6234,0.6812,0.7951,0.8537,0.8882,0.8942,0.8703,0.8178,0.7252,0.8092,0.8448,0.8093,0.9583,1.031,1.0171,0.9943,0.9854,0.9805,0.8726,0.8336,0.8478,0.8577,0.8627,0.8627,0.8775,0.8825,0.881,0.8914,0.8823,0.8636,0.8888,0.8792,0.8595,0.8914,0.9023,0.9005,0.8882,0.0,0.0,0.0,0.0,0.0,0.0,0.0,0.0,0.0,0.0,0.0,0.0,0.0,0.0,0.0,0.0,0.0,0.0,0.0,0.0,0.0,0.0,0.0,0.0,1.6619,1.6307,1.6115,1.4366,1.3352,1.3847,1.4034,1.4237,1.4521,1.4611,1.4732,1.4919,1.5025,1.5163,1.5342,1.5528,1.5626,1.5626,1.5699,1.5788,1.5886,1.5886,1.5886,1.5886,1.5886,1.5796,1.5626,1.5626,1.5585,1.5512,1.5398,1.5309,1.515,1.5122,1.5033,0.0,0.0,0.0,0.0,0.0,1.4058,1.3888,0.0,0.3136,0.3935,0.409,0.4594,0.5109,0.5506,0.5641,0.5748,0.5926,0.5696,0.5488,0.5482,0.5262,0.5331,0.586,0.7194,0.7777,0.7202,0.7318,0.7311,0.7115,0.7279,0.7942,0.918,0.8546,0.9057,1.0828,0.9072,0.8627,0.941,0.8428,0.7988,0.7988,0.8237,0.8336,0.8386,0.8627,0.8726,0.8726,0.8726,0.8627,0.8484,0.8987,0.8982,0.8792,0.9231,0.942,0.935,0.9139,0.0,0.0,0.0,0.0,0.0,0.0,0.0,0.0,0.0,0.0,0.0,0.0,0.0,0.0,0.0,0.0,0.0,0.0,0.0,0.0,0.0,0.0,0.0,0.0,1.72,1.635,1.5803,1.4509,1.3766,1.3945,1.4261,1.4538,1.4716,1.4895,1.5065,1.5228,1.5277,1.5374,1.5536,0.0,0.0,0.0,0.0,1.5966,1.5966,1.5966,1.5966,1.5966,1.5966,1.5959,1.5804,1.5804,1.5723,1.5577,1.5553,1.5439,1.5268,1.5244,1.513,1.4952,1.4773,1.4708,1.4667,1.4335,1.4091,1.3937,0.0,0.3009,0.3824,0.4138,0.4206,0.4471,0.5251,0.4836,0.4559,0.485,0.4942,0.491,0.4722,0.4779,0.5278,0.643,0.6813,0.7171,0.754,0.7948,0.788,0.7136,0.8306,0.8712,0.8145,0.9721,0.9911,0.8627,0.9065,0.8973,0.8287,0.8088,0.7988,0.7988,0.8038,0.8088,0.8088,0.8137,0.8137,0.8187,0.8379,0.8577,0.8718,0.8623,0.8478,0.8295,0.8175,0.8153,0.8146,0.807,0.8443,0.8872,0.8799,0.9103,0.0,0.0,0.0,0.0,0.0,0.0,0.0,0.0,0.0,0.0,0.0,0.0,0.0,0.0,0.0,0.0,0.0,0.0,0.0,1.8617,1.8012,1.7209,1.6017,1.4875,1.414,1.431,1.4521,1.4724,1.4903,1.5082,1.5204,1.5236,1.5504,1.5683,1.5723,1.5894,1.5991,1.5991,1.6024,1.5966,1.5966,1.5966,1.5966,1.5966,0.0,0.0,1.5991,1.5991,1.5975,1.5934,1.5788,1.5626,1.5447,1.5301,1.513,1.4952,1.4773,1.4708,1.4684,1.4464,1.427,1.4123,0.1808,0.2704,0.3552,0.3839,0.4206,0.4632,0.5225,0.485,0.4532,0.4592,0.4671,0.465,0.4505,0.4558,0.4938,0.5757,0.6447,0.7076,0.7757,0.8042,0.7996,0.7461,0.8208,0.8374,0.7923,0.9026,0.9065,0.7988,0.8528,0.8528,0.7988,0.7988,0.7988,0.7988,0.7988,0.7988,0.7988,0.7988,0.7988,0.7988,0.8137,0.8287,0.8379,0.8379,0.8287,0.8077,0.7929,0.7874,0.7874,0.7874,0.8119,0.8379,0.8347,0.8668,0.9076,0.0,0.0,0.0,0.0,0.0,0.0,0.0,0.0,0.0,0.0,0.0,0.0,0.0,0.0,1.8758,0.0,0.0,1.9998,1.8469,1.8059,1.7213,1.5354,1.4639,1.4335,1.4424,1.4594,1.4773,1.4952,1.513,1.5277,1.5374,1.5626,1.5813,1.5902,1.5999,1.5966,1.5966,1.5966,1.5966,1.5966,1.5966,1.5966,1.5966,1.5966,1.5966,1.5966,1.5966,1.5966,1.5958,1.5951,1.5764,1.5496,1.522,1.5049,1.496,1.4871,1.4781,1.47,1.4603,1.4408,1.418,0.1596,0.2433,0.3202,0.3478,0.4074,0.464,0.5038,0.481,0.457,0.4484,0.4479,0.45,0.4472,0.4471,0.4631,0.5031,0.6137,0.7071,0.7653,0.7831,0.79,0.7787,0.7841,0.7916,0.7988,0.7988,0.7988,0.7939,0.7939,0.7939,0.7939,0.7939,0.7939,0.7988,0.7988,0.7988,0.7988,0.7988,0.7988,0.7988,0.7988,0.7988,0.8038,0.8237,0.8187,0.7988,0.7988,0.7968,0.7948,0.7982,0.7968,0.7928,0.7882,0.8153,0.8434,0.8242,0.9826,0.0,0.0,0.0,0.0,0.0,0.0,0.0,0.0,0.0,1.6747,1.8638,1.9185,1.9653,2.0655,2.0935,2.0554,1.9129,1.8407,1.7417,1.5397,1.4744,1.4481,1.4481,1.4643,1.483,1.5,1.5187,1.5366,1.5553,1.5723,1.5894,1.5958,1.5966,1.6064,1.6097,1.6097,1.6113,1.6146,1.6113,1.6097,1.6097,1.6064,1.5966,1.5966,1.5966,1.5966,1.5958,1.6008,1.5813,1.5488,1.5155,1.5,1.4968,1.4968,1.4879,1.4833,1.5135,1.4852,1.4351,0.0,0.2277,0.2871,0.3266,0.3229,0.3398,0.4191,0.3852,0.3607,0.395,0.4091,0.4186,0.4306,0.4317,0.4574,0.5224,0.6045,0.666,0.7006,0.7427,0.7705,0.7801,0.7894,0.7975,0.7988,0.7988,0.7889,0.7646,0.7646,0.7646,0.7646,0.7646,0.7796,0.7988,0.7988,0.7988,0.7988,0.7988,0.7988,0.7988,0.7988,0.7988,0.7988,0.8038,0.8038,0.7988,0.7988,0.7901,0.7855,0.7941,0.7901,0.7855,0.7928,0.8011,0.8132,0.8449,0.9413,1.0427,1.0639,1.1773,1.3025,1.3751,1.4008,1.4765,0.0,0.0,1.8152,2.0332,2.0842,2.0989,2.144,2.1871,2.2217,2.233,2.0215,1.8613,1.8591,1.6332,1.4676,1.4676,1.483,1.5009,1.5187,1.5374,1.5553,1.5731,1.591,1.5942,1.5958,1.5966,1.6113,1.6267,1.6276,1.6357,1.6519,1.6357,1.6276,1.6276,1.6121,1.5966,1.5966,1.5966,1.5966,1.5958,1.5869,1.5691,1.5496,1.5293,1.5114,1.4968,1.4968,1.4952,1.5165,1.6532,1.6095,1.4844,0.0,0.1971,0.2286,0.261,0.3007,0.3512,0.4113,0.3846,0.3682,0.3859,0.3949,0.4051,0.4278,0.4467,0.4738,0.516,0.5817,0.6376,0.677,0.7217,0.757,0.7801,0.7907,0.7939,0.7796,0.7746,0.764,0.7391,0.7391,0.7391,0.7391,0.7391,0.749,0.7746,0.7746,0.7846,0.7988,0.7988,0.7988,0.7988,0.7988,0.7988,0.7988,0.7988,0.7934,0.7909,0.7909,0.7868,0.0,0.7787,0.774,0.7699,0.776,0.7876,0.8055,0.8325,0.934,1.0364,1.0662,1.0966,1.1298,1.1652,1.1973,1.2763,1.4689,1.5289,1.6175,1.8823,1.9637,2.0272,2.158,2.2004,2.1761,0.0,1.9461,1.8186,1.659,1.5306,1.4546,1.4546,1.4708,1.4887,1.5065,1.5342,1.5545,1.5618,1.5886,1.5966,1.5966,1.5966,1.6121,1.63,1.63,1.6389,1.6576,1.6397,1.63,1.63,1.6129,1.5966,1.5966,1.5966,1.5966,1.595,1.5853,1.5675,1.5504,1.5317,1.513,1.4968,1.4968,1.4968,1.5045,1.5727,1.5464,1.4759,0.0,0.1785,0.1908,0.2268,0.291,0.3461,0.3849,0.3846,0.3838,0.3895,0.3965,0.4073,0.4278,0.46,0.4895,0.5136,0.5663,0.6202,0.6729,0.7102,0.7461,0.7794,0.7916,0.7849,0.7596,0.7596,0.7447,0.7092,0.7092,0.7092,0.7092,0.7092,0.7291,0.7596,0.7596,0.7746,0.7988,0.7988,0.7988,0.7988,0.7988,0.7988,0.7982,0.7941,0.7909,0.7814,0.7814,0.776,0.7672,0.757,0.7536,0.7536,0.7536,0.7704,0.794,0.8255,0.9186,1.0171,1.0387,1.0248,1.0077,1.0117,1.051,1.1272,1.2738,1.3555,1.474,1.7628,1.8697,1.9717,2.1516,2.1991,2.1478,1.9628,1.9014,1.7918,1.5511,1.4728,1.4489,1.444,1.4554,1.47,1.4879,1.5228,1.548,1.5577,1.5829,1.5991,1.5958,1.5966,1.6146,1.6373,1.6381,1.6487,1.6722,1.6544,1.643,1.6381,1.6202,1.6089,1.5966,1.5966,1.5966,1.5958,1.5902,1.5723,1.5504,1.5374,1.5179,1.4968,1.4968,1.4968,1.4968,1.4968,1.4887,1.4824,0.0,0.0,0.1992,0.2579,0.2719,0.283,0.3105,0.3573,0.39,0.3905,0.4143,0.4295,0.43,0.46,0.4937,0.5272,0.5721,0.6242,0.6842,0.7018,0.7301,0.7794,0.7814,0.7742,0.759,0.7596,0.7347,0.6792,0.6792,0.6792,0.6792,0.6792,0.7092,0.7596,0.7596,0.7746,0.7988,0.7988,0.7988,0.7988,0.7988,0.7988,0.7975,0.7875,0.7814,0.7814,0.7814,0.7631,0.7433,0.7426,0.7426,0.7426,0.7426,0.7482,0.7699,0.8231,0.8845,0.9347,0.9511,0.9746,1.0087,1.0399,1.0851,1.1632,1.3178,1.4023,1.5135,1.7912,1.9035,1.989,2.1356,2.2031,2.2049,2.1001,1.9719,1.8425,1.7187,1.5662,1.4635,1.4456,1.4432,1.4513,0.0,1.5041,1.539,1.574,1.5772,1.5861,1.595,1.5966,1.6211,1.656,1.6568,1.6738,1.7088,1.6925,1.6747,1.6568,1.6381,1.6211,1.5966,1.5966,1.5966,1.5966,1.604,1.5837,1.5512,1.5512,1.5293,1.4968,1.4968,1.4968,1.4968,1.4968,1.5037,1.5132,0.0,0.0,0.0,0.2431,0.2708,0.3015,0.3312,0.3676,0.3905,0.3905,0.4148,0.0,0.0,0.0,0.0,0.0,0.5649,0.6051,0.6458,0.681,0.7065,0.7307,0.7369,0.735,0.7211,0.7064,0.6854,0.6537,0.6537,0.6537,0.6537,0.6537,0.6742,0.7092,0.7241,0.749,0.7746,0.7939,0.8099,0.8174,0.797,0.7901,0.7975,0.7868,0.7692,0.7536,0.0,0.7543,0.7398,0.7251,0.7217,0.7217,0.7217,0.7326,0.7576,0.8021,0.8561,0.9097,0.9237,0.951,0.9846,1.0258,1.0552,1.0905,1.1512,1.2898,1.4502,1.6377,1.8056,1.9742,2.1503,2.1844,2.1337,1.981,1.9181,1.8079,1.5795,1.5209,1.4862,1.4326,1.457,0.0,0.0,0.0,0.0,1.5577,1.5707,1.5853,1.595,1.5966,1.6211,1.6568,1.6584,1.6747,1.7104,1.6942,1.6763,1.6576,1.6276,1.6105,1.5966,1.5966,1.5966,1.5966,1.5966,1.591,1.5675,1.5561,1.5366,1.5139,1.5017,1.4968,1.4968,1.4968,1.4968,1.5004,0.0,0.0,0.0,0.0,0.0,0.0,0.0,0.0,0.0,0.0,0.0,0.0,0.0,0.0,0.0,0.0,0.0,0.5935,0.6279,0.658,0.6878,0.7085,0.7098,0.7058,0.6918,0.6733,0.6528,0.6312,0.6312,0.6312,0.6312,0.6355,0.6525,0.6778,0.7068,0.7341,0.7596,0.7836,0.8018,0.8085,0.7834,0.7794,0.7868,0.7712,0.7536,0.0,0.7421,0.7373,0.7265,0.7071,0.7051,0.7098,0.7098,0.7353,0.7678,0.8018,0.8474,0.8967,0.9255,0.9537,0.9863,1.0256,1.0466,1.0602,1.0697,1.2289,1.4148,1.549,1.7404,1.9357,2.1041,2.1376,2.077,1.8643,1.8587,1.7869,1.5052,1.5017,1.5049,1.4521,1.4757,1.4952,0.0,0.0,0.0,1.5577,1.5707,1.5853,1.595,1.5966,1.6211,1.6568,1.6584,1.6722,1.7015,1.6822,1.673,1.6479,1.6186,1.5966,1.5966,1.5966,1.5966,1.5966,1.5966,1.591,1.5675,1.5561,1.5366,1.513,1.5009,1.4968,1.4968,1.4968,1.4968,1.4944,0.0,0.0,0.0,0.0,0.0,0.0,0.0,0.0,0.0,0.0,0.0,0.0,0.0,0.0,0.0,0.0,0.0,0.0,0.6272,0.6429,0.6661,0.7045,0.695,0.6864,0.6767,0.6651,0.6426,0.6083,0.6083,0.6083,0.6089,0.6251,0.6403,0.6694,0.7014,0.7322,0.7564,0.7716,0.7801,0.7801,0.7651,0.759,0.7584,0.7428,0.7412,0.7339,0.7204,0.7105,0.7085,0.6957,0.7004,0.7132,0.7146,0.755,0.8049,0.8262,0.8628,0.9013,0.951,0.9849,1.0078,1.0432,1.0616,1.0717,1.0711,1.2347,1.4178,1.5238,1.7233,1.9013,0.0,0.0,2.0259,1.776,1.8146,1.789,1.5069,1.5041,1.5204,0.0,0.0,0.0,0.0,0.0,0.0,1.5756,0.0,1.5853,1.595,1.5966,1.6202,1.6552,1.6568,1.6657,1.675,1.6741,1.6649,1.63,1.6129,1.5966,1.5966,1.5966,1.5966,1.5966,1.5966,1.5853,1.5545,1.5528,1.5309,1.4992,1.4968,1.4968,1.4968,1.4968,1.5045,1.5089,0.0,0.0,0.0,0.0,0.0,0.0,0.0,0.0,0.0,0.0,0.0,0.0,0.0,0.0,0.0,0.0,0.0,0.0,0.6084,0.6329,0.6566,0.6641,0.6655,0.6636,0.6487,0.6424,0.6293,0.6083,0.6083,0.6083,0.6083,0.6116,0.618,0.6275,0.6691,0.6942,0.7037,0.7482,0.7712,0.7787,0.7536,0.7495,0.7584,0.7428,0.7299,0.721,0.7285,0.7312,0.7305,0.7272,0.7428,0.0,0.0,0.816,0.8445,0.8873,0.9171,0.951,0.9788,1.0154,1.0426,1.0616,1.069,1.069,1.0575,1.3028,1.5351,1.5355,1.7933,2.027,0.0,0.0,0.0,1.8055,1.8389,0.0,1.5328,1.5447,0.0,1.522,0.0,1.5536,1.5455,1.5561,0.0,0.0,1.5853,1.5853,1.595,1.5966,1.6146,1.6365,1.6373,1.6462,1.6649,1.6511,1.6397,1.63,1.6129,1.5966,1.5966,1.5966,1.5966,1.5966,1.5966,1.5909,1.5812,1.5626,1.5463,1.535,1.5074,1.4968,1.4968,1.4968,1.5727,1.6761,0.0,0.0,0.0,0.0,0.0,0.0,0.0,0.0,0.0,0.0,0.0,0.0,0.0,0.0,0.0,0.0,0.0,0.0,0.0,0.6247,0.645,0.6511,0.6491,0.6396,0.6208,0.6206,0.6041,0.585,0.5904,0.5931,0.5931,0.598,0.6007,0.6054,0.6579,0.6797,0.6838,0.7296,0.7543,0.0,0.0,0.7319,0.7387,0.7305,0.7217,0.7119,0.7319,0.7455,0.7577,0.0,0.0,0.8052,0.8289,0.8606,0.8907,0.9239,0.0,0.9869,1.0161,1.0412,1.0616,1.0697,1.0717,1.0795,1.1084,1.3512,1.5717,1.5621,1.8082,0.0,1.912,1.9994,0.0,0.0,0.0,0.0,1.5395,1.5585,1.5853,0.0,1.5772,0.0,1.5756,1.5837,1.5934,0.0,1.5951,1.5934,1.604,1.5966,1.6121,1.63,1.63,1.6349,1.6454,1.6276,1.6186,1.6186,1.6006,1.5966,1.5966,1.5966,1.5966,1.5966,0.0,1.5999,1.5902,1.5626,1.5463,1.5366,1.5074,1.4968,1.4968,1.4968,1.6033,1.7369,0.0,0.0,0.0,0.0,0.0,0.0,0.0,0.0,0.0,0.0,0.0,0.0,0.0,0.0,0.0,0.0,0.0,0.0,0.0,0.0,0.6354,0.6477,0.6381,0.6212,0.5959,0.6002,0.5864,0.5508,0.5626,0.5691,0.5691,0.5833,0.5882,0.5882,0.6502,0.6736,0.6777,0.7165,0.7339,0.7326,0.7146,0.7098,0.7098,0.0,0.7105,0.7146,0.7366,0.7597,0.0,0.0,0.8201,0.8357,0.852,0.8934,0.9357,0.9605,0.989,1.0105,1.0446,1.0616,1.0717,1.0717,1.0704,1.0871,1.1568,1.3672,1.5442,1.5624,0.0,1.9147,1.7315,1.88,1.9088,1.5395,0.0,1.7803,1.531,1.5545,1.5909,1.5958,1.5966,1.5966,1.5966,1.5966,1.5966,1.5966,1.5966,1.5966,1.5966,1.5966,1.6113,1.6267,1.6267,1.6267,1.6267,1.6121,1.5966,1.5966,1.5966,1.5966,1.5966,1.5966,1.5966,1.5966,1.5966,1.5943,1.5756,1.5585,1.5407,1.522,1.5033,1.4968,1.4968,1.4968,1.6033,1.7369,0.0,0.0,0.0,0.0,0.0,0.0,0.0,0.0,0.0,0.0,0.4734,0.4897,0.0,0.0,0.0,0.0,0.0,0.0,0.0,0.0,0.0,0.6334,0.6422,0.6258,0.586,0.6044,0.5958,0.5508,0.5626,0.5691,0.5691,0.5707,0.5718,0.5763,0.6272,0.6457,0.6502,0.6968,0.7139,0.7132,0.7105,0.7098,0.7098,0.7098,0.0,0.0,0.7638,0.0,0.0,0.8269,0.8506,0.8682,0.9009,0.9347,0.9768,1.0073,1.0283,1.0453,1.0629,1.0697,1.0717,1.0717,1.0622,1.0517,1.0468,1.2749,0.0,0.0,1.6801,1.8968,1.8582,1.8433,1.7897,1.6498,1.6421,1.6203,1.5176,1.5333,1.5715,0.0,1.5966,0.0,0.0,0.0,0.0,0.0,0.0,1.5966,1.5966,1.5966,1.6056,1.6089,1.6089,1.6089,1.6089,1.6064,1.5966,1.5966,1.5966,1.5966,1.5966,1.5966,1.5966,1.5966,1.5966,0.0,1.5756,1.5585,1.5407,1.522,1.5033,1.4968,1.4968,1.4968,1.6033,1.7521,0.0,0.0,0.0,0.0,0.0,0.0,0.0,0.4503,0.4618,0.4925,0.5127,0.531,0.5335,0.5795,0.6069,0.0,0.0,0.0,0.0,0.0,0.0,0.0,0.6368,0.6199,0.5824,0.0,0.0,0.0,0.0,0.0,0.0,0.0,0.0,0.0,0.0,0.0,0.6612,0.6966,0.7098,0.7098,0.7098,0.7098,0.0,0.0,0.0,0.0,0.0,0.0,0.0,0.0,0.8472,0.8655,0.9091,0.9462,0.9863,1.0093,1.0317,1.0527,1.0677,1.0717,1.0717,1.0717,1.0663,1.0811,1.1572,0.0,0.0,0.0,1.7018,1.8249,1.7495,1.7675,0.0,1.543,1.5634,1.5675,1.4819,0.0,0.0,0.0,0.0,0.0,0.0,0.0,0.0,0.0,0.0,1.791,1.613,1.5966,1.5966,1.5966,1.5966,1.5966,1.5966,1.5966,1.5966,1.5966,1.5966,1.5966,1.5966,1.5966,1.5966,1.5966,1.5966,0.0,1.5756,1.5585,1.5407,1.522,1.5033,1.5497,1.6186,1.5344,1.7093,1.9854,0.0,0.0,0.0,0.0,0.0,0.0,0.0,0.4569,0.4703,0.5132,0.549,0.5683,0.5611,0.606,0.6347,0.0,0.0,0.0,0.0,0.0,0.0,0.0,0.0,0.6159,0.0,0.0,0.0,0.0,0.0,0.0,0.0,0.0,0.0,0.0,0.0,0.0,0.0,0.701,0.7098,0.0,0.0,0.0,0.0,0.0,0.0,0.0,0.0,0.0,0.0,0.0,0.8343,0.8506,0.8941,0.934,0.9754,0.9849,1.0188,1.048,1.0629,1.0697,1.0717,1.0717,1.067,1.0998,1.256,1.3472,0.0,1.5994,1.7201,1.7611,1.6567,1.6803,1.6521,0.0,1.4772,1.5014,0.0,0.0,0.0,0.0,0.0,0.0,0.0,0.0,0.0,0.0,0.0,0.0,1.7264,1.6772,1.6525,1.6525,1.6205,1.5966,1.5966,1.5966,1.5966,1.5966,1.5966,1.5966,1.5966,1.5966,1.5966,1.5966,1.5966,0.0,0.0,1.5968,1.5847,1.5707,1.594,1.6559,1.7331,1.633,1.8224,2.1055,0.0,0.0,0.0,0.0,0.0,0.0,0.0,0.473,0.4893,0.5154,0.5484,0.5753,0.5941,0.6283,0.6491,0.0,0.0,0.0,0.0,0.0,0.0,0.0,0.0,0.0,0.0,0.0,0.0,0.0,0.0,0.0,0.0,0.0,0.0,0.0,0.0,0.0,0.0,0.0,0.0,0.0,0.0,0.0,0.0,0.0,0.0,0.0,0.0,0.0,0.0,0.0,0.0,0.8374,0.8492,0.8947,0.9449,0.9605,0.0,0.0,1.0473,1.0616,1.0717,1.0717,1.0521,1.0608,1.1537,0.0,1.3722,1.4905,1.6295,1.737,1.7741,1.6113,1.492,1.5626,0.0,1.3219,0.0,0.0,0.0,0.0,0.0,0.0,0.0,0.0,0.0,0.0,0.0,0.0,2.0656,1.9196,1.8381,1.8381,1.6854,1.5966,1.5966,1.5966,1.5966,1.5966,1.5966,1.5966,1.5966,1.5966,1.5966,1.5966,1.5966,0.0,0.0,1.7092,1.7474,1.735,1.8764,1.8537,1.755,1.8905,1.8678,1.8204,0.0,0.0,0.0,0.0,0.0,0.0,0.4651,0.4728,0.4887,0.5303,0.5722,0.6045,0.6323,0.6593,0.6709,0.662,0.0,0.0,0.0,0.0,0.0,0.0,0.0,0.0,0.0,0.0,0.0,0.0,0.0,0.0,0.0,0.0,0.0,0.0,0.0,0.0,0.0,0.0,0.0,0.0,0.0,0.0,0.0,0.0,0.0,0.0,0.0,0.0,0.0,0.0,0.0,0.0,0.8228,0.8499,0.0,0.0,0.9727,1.0073,1.0405,1.0602,1.0717,1.0717,1.1149,1.1758,1.2457,0.0,1.4664,1.5791,1.6471,1.7093,1.7636,1.6488,1.5423,1.5328,1.4179,1.3366,1.3538,0.0,0.0,0.0,0.0,0.0,0.0,0.0,0.0,0.0,0.0,0.0,2.2682,2.0079,1.8626,1.8626,1.6936,1.5966,1.5966,1.5966,1.5966,1.5966,1.5966,1.5966,1.5966,1.5966,1.5966,1.604,1.5926,0.0,0.0,1.7184,1.7662,1.755,1.9132,1.9962,2.0113,1.883,1.9811,2.1601,0.0,0.0,0.0,0.0,0.0,0.4382,0.4651,0.4717,0.4898,0.5383,0.5749,0.6092,0.6493,0.6675,0.6774,0.6795,0.6654,0.0,0.0,0.0,0.0,0.0,0.0,0.0,0.0,0.0,0.6624,0.6414,0.0,0.0,0.0,0.0,0.0,0.0,0.0,0.0,0.0,0.0,0.0,0.0,0.0,0.0,0.0,0.0,0.0,0.0,0.0,0.0,0.0,0.0,0.0,0.0,0.0,0.0,0.0,0.0,0.9422,0.9781,1.0181,1.0439,1.0588,1.0588,1.1436,1.2452,0.0,1.4103,1.5263,1.6448,1.6683,1.6895,1.7477,1.6791,1.5876,1.507,1.4351,1.3878,1.365,1.3582,0.0,0.0,0.0,0.0,0.0,0.0,0.0,0.0,0.0,0.0,2.3003,2.0727,1.9349,1.9349,1.7173,1.5966,1.5966,1.5966,1.5966,1.5966,1.5966,1.6016,1.5967,1.5967,1.5934,1.5886,1.5756,0.0,0.0,1.7766,1.8575,1.8905,2.0037,2.0939,2.1239,1.951,2.0639,2.2967,0.0,0.0,0.0,0.0,0.0,0.0,0.4651,0.4757,0.4963,0.5364,0.5474,0.5724,0.6328,0.6384,0.6605,0.7048,0.6865,0.0,0.0,0.0,0.0,0.0,0.0,0.0,0.0,0.0,0.6917,0.6682,0.6823,0.6891,0.0,0.0,0.0,0.0,0.0,0.0,0.0,0.0,0.0,0.0,0.0,0.0,0.0,0.0,0.0,0.0,0.0,0.0,0.0,0.0,0.0,0.0,0.0,0.0,0.0,0.0,0.9035,0.9449,0.9747,1.0053,1.0283,1.0283,1.1158,1.2228,1.2917,1.3989,1.5166,1.6464,1.6683,1.6895,1.7477,1.6886,1.5975,1.507,1.4469,1.4367,1.479,1.4113,0.0,0.0,0.0,0.0,0.0,0.0,0.0,0.0,0.0,0.0,2.1222,2.1222,2.1141,2.1141,1.7828,1.5966,1.5966,1.5966,1.5966,1.5966,1.5966,1.5951,1.5772,1.5772,1.5683,0.0,0.0,0.0,0.0,1.9388,2.0852,2.2148,2.2148,2.1239,2.0037,2.155,2.1164,2.023,0.0,0.0,0.0,0.0,0.0,0.0,0.0,0.4668,0.4811,0.5094,0.5429,0.5814,0.6288,0.6555,0.6789,0.7098,0.6923,0.0,0.0,0.0,0.0,0.0,0.0,0.0,0.0,0.0,0.7191,0.705,0.7197,0.7219,0.7219,0.7219,0.7292,0.0,0.0,0.0,0.0,0.0,0.0,0.0,0.0,0.0,0.0,0.0,0.0,0.0,0.0,0.0,0.0,0.0,0.0,0.0,0.0,0.0,0.0,0.8655,0.8886,0.0,0.9564,0.9815,1.0149,1.1003,1.2026,1.3122,1.3951,1.5008,1.5912,1.6332,1.6577,1.6842,1.7279,1.7238,1.6984,1.6423,1.5537,0.0,0.0,0.0,0.0,0.0,0.0,0.0,0.0,0.0,0.0,0.0,0.0,0.0,2.2923,2.3003,2.3003,2.3003,1.9602,1.8391,1.9521,1.9521,1.9521,1.9521,1.9373,1.8711,1.761,1.849,1.8236,0.0,0.0,0.0,0.0,2.0894,2.177,2.2223,2.2223,2.1924,2.1389,2.0789,2.0939,2.1601,0.0,0.0,0.0,0.0,0.0,0.0,0.0,0.4608,0.4777,0.4985,0.5346,0.5756,0.6227,0.6493,0.6815,0.7179,0.7051,0.0,0.0,0.0,0.0,0.0,0.0,0.0,0.7098,0.74,0.7463,0.7355,0.7559,0.7609,0.7609,0.7609,0.766,0.776,0.0,0.0,0.0,0.0,0.0,0.0,0.0,0.0,0.0,0.0,0.0,0.0,0.0,0.0,0.0,0.0,0.0,0.0,0.0,0.0,0.0,0.0,0.8825,0.894,0.0,0.9544,0.9951,1.1134,1.2281,1.3413,1.4333,1.5454,1.632,1.632,1.6418,1.6683,1.712,1.7502,1.7546,1.694,1.6424,0.0,0.0,0.0,0.0,0.0,0.0,0.0,0.0,0.0,0.0,0.0,0.0,0.0,2.358,2.3562,2.3751,2.4393,2.1286,2.0079,2.1222,2.1136,2.1082,2.1082,2.0766,2.0064,1.9104,1.9824,1.9631,0.0,0.0,0.0,0.0,2.1834,2.2223,2.2148,2.1538,2.0939,2.0263,1.9283,1.951,2.0564,0.0,0.0,0.0,0.0,0.0,0.0,0.0,0.4602,0.4772,0.4963,0.5254,0.5625,0.6215,0.6393,0.6707,0.736,0.0,0.0,0.0,0.0,0.0,0.0,0.0,0.0,0.7132,0.7584,0.774,0.7617,0.7853,0.7988,0.7988,0.7988,0.7995,0.8002,0.7896,0.7834,0.0,0.0,0.0,0.0,0.0,0.0,0.0,0.0,0.0,0.0,0.0,0.0,0.0,0.0,0.0,0.0,0.0,0.0,0.0,0.0,0.0,0.0,0.0,0.9245,0.9636,1.0896,1.2082,1.322,1.4248,1.5416,0.0,1.632,1.6324,1.6496,1.7093,1.7642,1.773,1.6943,1.7241,0.0,0.0,1.7825,0.0,0.0,0.0,0.0,0.0,0.0,0.0,0.0,0.0,0.0,2.3526,2.3206,2.3855,2.5428,2.2926,2.149,2.149,2.1271,2.1162,2.1162,2.0832,2.0526,2.0309,2.0364,2.0244,0.0,0.0,0.0,0.0,2.2372,2.2297,2.2073,2.0414,1.884,1.7407,1.7407,1.7407,1.7854,0.0,0.0,0.0,0.0,0.0,0.0,0.0,0.0,0.0,0.0,0.5269,0.5758,0.6122,0.6467,0.6892,0.0,0.0,0.0,0.0,0.0,0.0,0.0,0.0,0.0,0.7489,0.7597,0.7685,0.776,0.7901,0.7988,0.7988,0.7988,0.8106,0.8208,0.8052,0.8052,0.0,0.0,0.0,0.0,0.0,0.0,0.0,0.0,0.0,0.0,0.0,0.8194,0.0,0.0,0.0,0.0,0.0,0.0,0.0,0.0,0.8858,0.8844,0.8974,0.0,0.9538,1.1576,1.2339,1.3043,0.0,1.5767,1.6077,1.6283,1.6324,1.6546,1.7352,1.7616,1.7916,1.8638,0.0,0.0,0.0,0.0,0.0,2.0292,0.0,0.0,0.0,0.0,0.0,0.0,0.0,2.3569,2.4906,2.4918,2.5122,2.5518,2.4855,2.4456,2.4456,2.4392,2.4431,2.4354,2.4074,2.3302,2.2153,2.3092,2.2881,0.0,0.0,0.0,2.4031,2.4031,2.3277,2.2073,2.0414,1.884,1.7407,1.7407,1.7407,1.7702,0.0,0.0,0.0,0.0,0.0,0.0,0.0,0.0,0.0,0.0,0.0,0.0,0.0,0.0,0.0,0.0,0.0,0.0,0.0,0.0,0.0,0.0,0.0,0.7482,0.7495,0.7699,0.7801,0.7814,0.7914,0.7988,0.7988,0.7988,0.8126,0.832,0.818,0.8194,0.0,0.0,0.0,0.0,0.0,0.0,0.0,0.0,0.0,0.0,0.8167,0.8113,0.0,0.8228,0.8275,0.8361,0.0,0.0,0.0,0.0,0.8832,0.8941,0.9486,0.9754,1.0366,1.2119,1.2998,1.3884,1.57,1.5982,1.6004,1.6217,0.0,0.0,1.7443,0.0,0.0,0.0,1.7815,0.0,0.0,0.0,0.0,0.0,0.0,0.0,0.0,0.0,0.0,0.0,0.0,2.4303,2.5242,2.5184,2.5117,2.5117,2.5117,2.5237,2.5504,2.5384,2.5317,2.5304,2.501,2.4416,2.358,2.4258,2.4105,0.0,0.0,0.0,2.4636,2.4636,2.3203,2.1014,2.0113,1.8375,1.6262,1.6262,1.6262,1.6568,0.0,0.0,0.0,0.0,0.0,0.0,0.0,0.0,0.0,0.0,0.0,0.0,0.0,0.0,0.0,0.0,0.0,0.0,0.0,0.0,0.0,0.0,0.7543,0.7556,0.7475,0.7821,0.7914,0.7882,0.8011,0.8022,0.8022,0.8022,0.8234,0.8489,0.8385,0.8405,0.0,0.0,0.0,0.0,0.0,0.0,0.0,0.0,0.0,0.0,0.0,0.0,0.0,0.7988,0.8153,0.8374,0.8418,0.0,0.0,0.0,0.0,0.0,0.9961,1.083,1.1703,1.2747,1.3819,1.49,1.5975,0.0,0.0,0.0,0.0,0.0,0.0,1.7721,0.0,0.0,0.0,0.0,0.0,0.0,0.0,0.0,0.0,0.0,0.0,0.0,0.0,0.0,0.0,2.501,2.501,2.477,2.4636,2.4636,2.4636,2.4877,2.5371,2.513,2.501,2.501,2.4756,2.4636,2.4636,2.4636,2.4636,2.4636,0.0,0.0,2.4636,2.4636,2.267,1.9811,1.9811,1.7844,1.4968,1.4968,1.5198,1.5573,0.0,0.0,0.0,0.0,0.0,0.0,0.0,0.0,0.0,0.0,0.0,0.0,0.0,0.0,0.0,0.0,0.0,0.0,0.0,0.0,0.0,0.774,0.7651,0.7706,0.788,0.7875,0.7963,0.8201,0.8221,0.8235,0.8235,0.8235,0.8679,0.9367,0.8742,0.8967,0.9748,0.898,0.0,0.0,0.0,0.0,0.0,0.0,0.0,0.0,0.0,0.0,0.0,0.7988,0.8221,0.8431,0.8388,0.0,0.0,0.0,0.0,0.0,0.905,1.1067,1.3191,1.3829,1.4319,1.4856,1.5737,1.5922,0.0,0.0,0.0,0.0,0.0,1.8355,1.8286,0.0,0.0,0.0,0.0,0.0,0.0,0.0,0.0,0.0,0.0,0.0,0.0,0.0,0.0,2.4703,2.4703,2.4663,2.4636,2.4636,2.4636,2.4602,2.477,2.473,2.4703,2.4703,2.4589,2.4636,2.4636,2.4636,2.4636,2.4636,0.0,2.4636,2.4636,2.4636,2.267,1.9811,1.9811,1.7844,1.4968,1.4968,1.588,1.7245,0.0,0.0,0.0,0.0,0.0,0.0,0.0,0.0,0.0,0.0,0.0,0.0,0.0,0.0,0.0,0.0,0.0,0.0,0.0,0.0,0.774,0.7807,0.7746,0.7814,0.7982,0.8052,0.8167,0.8384,0.8361,0.8361,0.8384,0.8354,0.8533,0.8866,0.8559,0.8765,0.9292,0.889,0.0,0.0,0.0,0.0,0.0,0.0,0.0,0.0,0.0,0.0,0.0,0.0,0.8187,0.837,0.8384,0.0,0.0,0.0,0.0,0.0,0.9374,1.117,1.2953,1.3386,1.4969,1.6402,1.6522,1.6646,0.0,0.0,0.0,0.0,0.0,0.0,1.8835,0.0,0.0,0.0,0.0,0.0,0.0,0.0,0.0,0.0,0.0,0.0,0.0,0.0,0.0,0.0,2.4636,2.4636,2.4636,2.4636,2.4636,2.4636,2.4636,2.4636,2.4636,2.4636,2.4636,2.4636,2.4636,2.4636,2.4636,2.4636,0.0,2.4636,2.4636,2.4636,2.267,1.9811,1.9811,1.7844,1.5122,1.5956,1.7321,1.8905,0.0,0.0,0.0,0.0,0.0,0.0,0.0,0.0,0.0,0.0,0.0,0.0,0.0,0.0,0.0,0.0,0.0,0.0,0.0,0.0,0.7828,0.7862,0.7902,0.7957,0.7988,0.8187,0.8388,0.8479,0.8411,0.8431,0.8533,0.8384,0.847,0.8727,0.8512,0.8657,0.9086,0.8858,0.8832,0.0,0.0,0.0,0.0,0.0,0.0,0.0,0.0,0.0,0.0,0.0,0.0,0.0,0.0,0.0,0.0,0.8479,0.8384,0.8515,0.9578,1.0913,1.2142,1.2384,1.5008,1.7384,1.682,1.7006,1.7447,0.0,0.0,0.0,0.0,0.0,0.0,0.0,0.0,0.0,0.0,0.0,0.0,0.0,0.0,0.0,0.0,0.0,0.0,0.0,0.0,0.0,2.4636,2.4636,2.4636,2.4636,2.4636,2.4636,2.4636,2.4636,2.4636,2.4636,2.4636,2.4636,2.4636,2.4636,2.4636,2.4636,2.4636,2.4636,2.4636,2.4636,2.267,1.9811,2.0188,1.8603,1.633,1.793,1.9283,2.0564,0.0,0.0,0.0,0.0,0.0,0.0,0.0,0.0,0.0,0.0,0.0,0.0,0.0,0.0,0.0,0.0,0.0,0.0,0.0,0.0,0.7875,0.7968,0.816,0.8174,0.7995,0.8187,0.8388,0.8479,0.8615,0.8682,0.8689,0.854,0.9034,0.992,0.9033,0.9219,1.0152,0.9242,0.8871,0.8858,0.0,0.0,0.0,0.0,0.0,0.0,0.0,0.0,0.0,0.0,0.0,0.0,0.0,0.0,0.8479,0.8479,0.8384,0.8381,0.8721,0.9923,1.1135,1.1195,1.3846,1.6239,1.569,1.6149,0.0,1.8172,0.0,0.0,0.0,0.0,0.0,0.0,0.0,0.0,0.0,0.0,0.0,0.0,0.0,0.0,0.0,0.0,0.0,0.0,0.0,0.0,2.4636,2.4636,2.4636,2.4636,2.4636,2.4636,2.4636,2.4636,2.4636,2.4636,2.4636,2.4636,2.4636,2.4636,2.4636,2.4636,2.4636,2.4636,2.4636,2.4636,2.267,1.9962,2.1464,2.0939,1.9661,2.1239,2.1924,2.2297,0.0,0.0,0.0,0.0,0.0,0.0,0.0,0.0,0.0,0.0,0.0,0.0,0.0,0.0,0.0,0.0,0.0,0.0,0.0,0.7651,0.7746,0.7889,0.7868,0.7828,0.7767,0.8099,0.8388,0.8479,0.854,0.8567,0.8567,0.8506,0.8744,0.9207,0.8843,0.8925,0.9309,0.9037,0.8831,0.8784,0.8669,0.0,0.0,0.0,0.0,0.0,0.0,0.0,0.0,0.0,0.8065,0.832,0.832,0.8361,0.837,0.8459,0.8316,0.8194,0.8486,0.9632,1.0582,1.0044,1.2805,0.0,0.0,1.6982,1.8468,1.9092,1.942,0.0,0.0,0.0,0.0,0.0,0.0,0.0,0.0,0.0,0.0,0.0,0.0,0.0,0.0,0.0,0.0,0.0,0.0,0.0,2.4102,2.4102,2.4102,2.4102,2.4275,2.4369,2.4369,2.4543,2.471,2.4931,2.4931,2.4857,2.4636,2.4857,2.4857,2.4636,2.4636,2.4636,2.4636,2.4636,2.3277,2.1227,2.0694,2.0803,2.1377,2.1819,2.2682,2.3809,0.0,0.0,0.0,0.0,0.0,0.0,0.0,0.0,0.0,0.0,0.0,0.0,0.0,0.0,0.0,0.0,0.0,0.0,0.759,0.7597,0.7645,0.774,0.7651,0.7617,0.7665,0.797,0.8194,0.8343,0.8391,0.8438,0.8479,0.8479,0.8567,0.871,0.871,0.871,0.8716,0.8825,0.8804,0.871,0.871,0.8621,0.0,0.0,0.0,0.0,0.0,0.0,0.0,0.0,0.795,0.8147,0.8292,0.832,0.8347,0.8438,0.8336,0.8221,0.8425,0.9224,0.9792,0.9245,0.0,0.0,1.5137,1.7169,1.91,1.9713,2.0268,2.0245,1.8908,0.0,0.0,0.0,0.0,0.0,0.0,0.0,0.0,0.0,0.0,0.0,0.0,0.0,0.0,0.0,0.0,0.0,0.0,2.391,2.391,2.3768,2.3968,2.4062,2.4062,2.4262,2.4628,2.5075,2.5139,2.5034,2.4991,2.5152,2.5079,2.4784,2.4543,2.4502,2.4489,2.4396,2.3684,2.2546,2.0738,2.1079,2.2705,2.2606,2.3353,2.4516,0.0,0.0,0.0,0.0,0.0,0.0,0.0,0.0,0.0,0.0,0.0,0.0,0.0,0.0,0.0,0.0,0.0,0.0,0.7105,0.7428,0.7597,0.7597,0.7597,0.7665,0.7807,0.7814,0.7889,0.7988,0.8194,0.8395,0.8479,0.8486,0.8567,0.871,0.871,0.871,0.871,0.871,0.871,0.871,0.871,0.8615,0.0,0.0,0.0,0.0,0.0,0.0,0.0,0.0,0.7814,0.7862,0.8174,0.832,0.8347,0.8438,0.8479,0.8479,0.8479,0.8594,0.875,0.8844,0.0,0.0,1.4125,1.6302,1.863,1.9865,2.0443,2.0138,1.8308,0.0,0.0,0.0,0.0,0.0,0.0,0.0,0.0,0.0,0.0,0.0,0.0,0.0,0.0,0.0,0.0,0.0,0.0,2.411,2.411,2.3839,2.3768,2.3768,2.3768,2.3768,2.4116,2.4819,2.4873,2.5198,2.5786,2.5359,2.5226,2.5139,2.4475,2.4195,2.4182,2.3888,2.3768,2.3625,2.1941,2.23,2.3808,2.4088,2.4195,2.4249,0.0,0.0,0.0,0.0,0.0,0.0,0.0,0.0,0.0,0.0,0.0,0.0,0.0,0.0,0.0,0.0,0.0,0.0,0.7299,0.7285,0.7373,0.759,0.7394,0.74,0.7658,0.776,0.7943,0.8201,0.8248,0.8395,0.8486,0.8594,0.8608,0.8554,0.8662,0.8594,0.8411,0.8506,0.8492,0.8411,0.8513,0.8465,0.0,0.0,0.0,0.0,0.0,0.0,0.0,0.0,0.0,0.0,0.8045,0.818,0.8333,0.8374,0.8336,0.8357,0.8459,0.8594,0.0,0.8844,0.0,0.0,0.0,1.6669,0.0,0.0,2.017,1.9814,1.8279,0.0,0.0,0.0,0.0,0.0,0.0,0.0,0.0,0.0,0.0,0.0,0.0,0.0,0.0,0.0,0.0,0.0,0.0,2.3611,2.3611,2.3542,2.348,2.3588,2.3868,2.3803,2.4307,2.5229,2.4989,2.5086,2.5464,2.5397,2.5084,2.4525,2.4358,2.4116,2.3888,2.3808,2.3768,2.3754,2.2962,2.3143,2.3754,2.3634,2.3848,2.4209,0.0,0.0,0.0,0.0,0.0,0.0,0.0,0.0,0.0,0.0,0.7098,0.0,0.0,0.0,0.0,0.0,0.0,0.0,0.0,0.7146,0.7179,0.7407,0.7193,0.7267,0.7678,0.7828,0.8052,0.8357,0.8235,0.8221,0.8309,0.8465,0.8486,0.8404,0.8492,0.8438,0.8327,0.8364,0.8402,0.8333,0.8425,0.8397,0.832,0.0,0.0,0.0,0.0,0.0,0.0,0.0,0.0,0.0,0.7941,0.8106,0.8187,0.8255,0.8361,0.8397,0.8608,0.8771,0.0,0.915,1.128,1.3735,1.5037,0.0,0.0,0.0,0.0,1.9851,1.9008,0.0,0.0,0.0,0.0,0.0,0.0,0.0,0.0,0.0,0.0,0.0,0.0,0.0,0.0,0.0,0.0,0.0,0.0,2.3543,2.3543,2.3406,2.3391,2.3417,2.3473,2.3593,2.4092,2.4974,2.4707,2.4806,2.5385,2.5398,2.5158,2.4748,2.4341,2.3866,2.3407,2.3407,2.3407,2.3394,2.3207,2.3247,2.3407,2.3354,2.3554,2.3875,0.0,0.0,0.0,0.0,0.0,0.0,0.0,0.0,0.0,0.0,0.7098,0.7098,0.0,0.0,0.0,0.0,0.0,0.0,0.0,0.0,0.7105,0.7119,0.7152,0.7375,0.7841,0.7991,0.8194,0.8465,0.8194,0.8008,0.8015,0.8214,0.8378,0.8401,0.8313,0.8357,0.8381,0.8279,0.8272,0.8272,0.835,0.8323,0.8258,0.8258,0.0,0.0,0.0,0.0,0.0,0.0,0.0,0.0,0.7941,0.7988,0.8015,0.8208,0.835,0.8526,0.8832,0.9022,0.0,0.9544,1.1005,0.0,1.6306,1.8343,1.9571,1.9571,0.0,1.9979,0.0,0.0,0.0,0.0,0.0,0.0,0.0,0.0,0.0,0.0,0.0,0.0,0.0,0.0,0.0,0.0,0.0,0.0,0.0,2.3816,2.3816,2.3475,2.3406,2.327,2.2928,2.327,2.3749,2.4441,2.416,2.4516,2.5422,2.5365,2.5354,2.52,2.4219,2.3459,2.2928,2.2928,2.2928,2.2928,2.2928,2.2928,2.2968,2.318,2.33,2.3437,0.0,0.0,0.0,0.0,0.0,0.0,0.0,0.0,0.0,0.0,0.0,0.0,0.0,0.0,0.0,0.0,0.0,0.0,0.0,0.0,0.7152,0.7319,0.7658,0.795,0.8167,0.8201,0.8255,0.8368,0.8255,0.8221,0.8221,0.837,0.8772,0.9275,0.8621,0.8636,0.9114,0.8244,0.7848,0.7746,0.778,0.7773,0.7746,0.7746,0.7699,0.0,0.0,0.0,0.0,0.0,0.0,0.0,0.7941,0.7988,0.7995,0.8029,0.8201,0.8384,0.8676,0.8872,0.0,0.0,1.1999,1.4661,1.6582,1.815,1.92,1.92,0.0,0.0,0.0,0.0,0.0,0.0,0.0,0.0,0.0,0.0,0.0,0.0,0.0,0.0,0.0,0.0,0.0,0.0,0.0,0.0,2.3884,2.3966,2.3952,2.3884,2.3543,2.3338,2.327,2.3679,2.4062,0.0,2.4402,2.4674,2.5154,2.5159,2.4847,2.4285,2.3461,2.305,2.2928,2.3201,2.327,2.327,2.327,2.327,2.3283,2.3077,2.3321,2.3802,0.0,0.0,0.0,0.0,0.0,0.0,0.0,0.0,0.0,0.0,0.0,0.0,0.0,0.0,0.0,0.0,0.0,0.0,0.0,0.7058,0.721,0.7412,0.7801,0.8029,0.816,0.8235,0.832,0.832,0.8693,0.8657,0.8167,0.8309,0.8603,0.8952,0.8482,0.8442,0.8691,0.8084,0.7733,0.7597,0.7597,0.7597,0.7597,0.7597,0.7597,0.7611,0.7685,0.0,0.0,0.0,0.0,0.0,0.0,0.0,0.7894,0.7968,0.8099,0.8241,0.8608,0.0,0.0,1.0716,0.0,1.5033,1.6636,1.8086,0.0,0.0,0.0,0.0,0.0,0.0,0.0,0.0,0.0,0.0,0.0,0.0,0.0,0.0,0.0,0.0,0.0,0.0,0.0,0.0,0.0,2.4781,2.4034,2.4156,2.4224,2.4224,2.402,2.3747,2.3406,2.3952,2.4224,2.4224,2.4428,2.4713,2.5119,2.4916,2.451,2.3952,2.3406,2.3065,2.2928,2.3065,2.327,2.3406,2.3406,2.3543,2.3679,2.3475,2.3653,2.3983,0.0,0.0,0.0,0.0,0.0,0.0,0.0,0.0,0.0,0.0,0.0,0.0,0.0,0.0,0.0,0.0,0.0,0.0,0.0,0.7018,0.7224,0.74,0.7767,0.7934,0.7988,0.814,0.8201,0.8235,0.908,0.914,0.8414,0.8498,0.8635,0.878,0.8431,0.8234,0.8196,0.7876,0.7678,0.7522,0.7522,0.7522,0.7522,0.7522,0.7522,0.7522,0.755,0.7563,0.7584,0.7726,0.0,0.0,0.0,0.0,0.7767,0.7867,0.7914,0.8008,0.8479,0.0,0.9694,1.1795,1.3439,0.0,0.0,0.0,0.0,0.0,0.0,0.0,0.0,0.0,0.0,0.0,0.0,0.0,0.0,0.0,0.0,0.0,0.0,0.0,0.0,0.0,0.0,0.0,0.0,2.468,2.3933,2.426,2.4395,2.4338,2.4395,2.4071,2.3392,2.4196,2.4428,2.4088,2.4442,2.4781,2.5119,2.4713,2.4292,2.3966,2.3543,2.3201,2.2928,2.2928,2.3201,2.3475,2.3475,2.3747,2.4102,2.402,2.4034,2.417,0.0,0.0,0.0,0.0,0.0,0.0,0.0,0.0,0.0,0.0,0.7098,0.7045,0.6903,0.6883,0.0,0.0,0.0,0.0,0.6876,0.0,0.0,0.7556,0.7624,0.778,0.7982,0.7929,0.7936,0.8022,0.8741,0.9413,1.0071,0.9628,0.9937,1.0726,0.8855,0.8398,0.8965,0.8008,0.7461,0.7159,0.7159,0.7159,0.7159,0.7159,0.7159,0.7173,0.7353,0.7446,0.7428,0.7577,0.7631,0.0,0.0,0.0,0.0,0.7611,0.7658,0.7726,0.0,0.0,0.0,0.0,0.0,0.0,0.0,0.0,0.0,0.0,0.0,0.0,0.0,0.0,0.0,0.0,0.0,0.0,0.0,0.0,0.0,0.0,0.0,0.0,0.0,0.0,0.0,0.0,2.3842,2.4312,2.3628,2.3871,2.3966,2.3614,2.3951,2.388,2.3493,2.4501,2.4849,2.4442,2.4849,2.5052,2.5119,2.4713,2.4292,2.3966,2.3543,2.3201,2.2928,2.3201,2.3543,2.3898,2.3898,2.4156,2.4428,2.4102,2.417,2.4428,0.0,0.0,0.0,0.0,0.0,0.0,0.0,0.0,0.0,0.0,0.0,0.7045,0.6903,0.6851,0.0,0.0,0.0,0.0,0.679,0.697,0.0,0.0,0.7509,0.7658,0.7787,0.7645,0.7638,0.7794,0.9102,0.9811,0.9995,1.1079,1.1731,1.1921,1.0207,0.9505,0.9551,0.8175,0.7475,0.7265,0.7132,0.72,0.738,0.7159,0.7206,0.7387,0.7278,0.7244,0.7265,0.7421,0.7468,0.7489,0.757,0.0,0.0,0.0,0.0,0.0,0.814,0.0,0.0,0.0,0.0,0.0,0.0,0.0,0.0,0.0,0.0,0.0,0.0,0.0,0.0,0.0,0.0,0.0,0.0,0.0,0.0,0.0,0.0,0.0,0.0,0.0,0.0,0.0,2.3397,2.3905,2.35,2.3876,2.3956,2.3826,2.3956,2.3897,2.3488,2.4173,2.4444,2.4312,2.4444,2.451,2.451,2.4378,2.4166,2.3966,2.3543,2.3201,2.2928,2.3065,2.3475,2.4034,2.4034,2.4374,2.4849,2.4645,2.4713,2.4849,0.0,0.0,0.0,0.0,0.0,0.0,0.0,0.0,0.0,0.0,0.0,0.0,0.6896,0.0,0.0,0.0,0.0,0.0,0.6634,0.0,0.0,0.0,0.0,0.7448,0.7482,0.7333,0.7353,0.7543,0.9058,0.978,0.9846,1.1775,1.2668,1.2602,1.1201,1.0333,0.9828,0.8283,0.7563,0.7421,0.7305,0.7394,0.7584,0.7382,0.7462,0.7672,0.7321,0.7213,0.722,0.7299,0.7312,0.0,0.0,0.0,0.0,0.0,0.0,0.0,0.0,0.0,0.0,0.0,0.0,0.0,0.0,0.0,0.0,0.0,0.0,0.0,0.0,0.0,0.0,0.0,0.0,0.0,0.0,0.0,0.0,0.0,0.0,0.0,0.0,0.0,0.0,0.0,2.3006,2.3537,2.3386,2.3781,2.3925,2.3837,2.391,2.3825,2.3566,2.3912,2.4086,2.4086,2.4086,2.4086,2.4086,2.4086,2.402,2.3863,2.3444,2.3106,2.2781,2.2794,2.3229,2.3854,2.3992,2.4442,2.5119,2.5119,2.5119,2.5119,0.0,0.0,0.0,0.0,0.0,0.0,0.0,0.0,0.0,0.0,0.0,0.0,0.6883,0.679,0.6641,0.6525,0.0,0.0,0.0,0.0,0.0,0.0,0.0,0.0,0.7119,0.6984,0.7095,0.7433,0.8079,0.9063,1.0379,1.1263,1.2073,1.2747,1.1261,1.0215,0.9558,0.8306,0.7719,0.759,0.7577,0.7584,0.7631,0.784,0.7955,0.7928,0.7685,0.7577,0.7529,0.0,0.0,0.0,0.0,0.7112,0.7105,0.0,0.0,0.0,0.0,0.0,0.0,0.0,0.0,0.0,0.0,0.0,0.0,0.0,0.0,0.0,0.0,0.0,0.0,0.0,0.0,0.0,0.0,0.0,0.0,0.0,0.0,0.0,0.0,0.0,0.0,0.0,2.3062,2.3486,2.3116,2.3457,2.3471,2.3164,2.3457,2.3618,2.3618,2.3925,2.4086,2.4086,2.4086,2.4086,2.4086,2.4086,2.3905,2.3528,2.3135,2.2807,2.2506,2.2459,2.2848,2.3546,2.3908,2.4442,2.5119,2.5119,2.5119,2.5119,0.0,0.0,0.0,0.0,0.0,0.0,0.0,0.0,0.0,0.0,0.0,0.0,0.0,0.6844,0.6675,0.662,0.6436,0.0,0.0,0.0,0.0,0.0,0.0,0.0,0.0,0.6957,0.6984,0.7224,0.7959,0.8414,0.8649,1.0511,1.1194,1.0759,1.0623,1.0391,0.9874,0.8441,0.778,0.7733,0.7733,0.7855,0.8018,0.7929,0.8072,0.8269,0.7875,0.0,0.0,0.0,0.0,0.0,0.7285,0.7217,0.7098,0.7098,0.7233,0.0,0.0,0.0,0.0,0.0,0.0,0.0,0.0,0.0,0.0,0.0,0.0,0.0,0.0,0.0,0.0,0.0,0.0,0.0,0.0,0.0,0.0,0.0,0.0,0.0,0.0,0.0,0.0,0.0,0.0,2.2609,2.2495,2.2783,2.2797,2.248,2.2783,2.303,2.3281,2.3209,2.314,2.314,2.2886,2.2949,2.314,2.314,2.3203,2.3203,2.2886,2.2793,2.2845,2.2811,2.3175,2.3837,2.3951,2.4458,2.5119,2.5119,2.5119,2.5119,0.0,0.0,0.0,0.0,0.0,0.0,0.0,0.0,0.6991,0.6896,0.0,0.0,0.0,0.0,0.6756,0.6709,0.6519,0.645,0.645,0.6593,0.0,0.0,0.0,0.0,0.0,0.6957,0.6957,0.7098,0.7591,0.7768,0.7651,0.9276,0.9722,0.9164,0.954,0.9788,0.9979,0.8934,0.0,0.8418,0.8418,0.8548,0.8686,0.8284,0.8269,0.8445,0.0,0.0,0.0,0.0,0.0,0.0,0.7446,0.7265,0.7143,0.7489,0.7735,0.0,0.9563,0.0,0.0,0.0,0.0,0.0,0.0,0.0,0.0,0.0,0.0,0.0,0.0,0.0,0.0,0.0,0.0,0.0,0.0,0.0,0.0,0.0,0.0,0.0,0.0,0.0,0.0,0.0,0.0,0.0,2.223,2.248,2.2543,2.2418,2.2543,2.2731,2.2918,2.2731,2.2543,2.2418,2.223,2.223,2.2418,2.2543,2.2731,2.2918,2.2793,2.2786,2.2849,2.2897,2.3252,2.388,2.398,2.4424,2.5119,2.5119,2.5119,2.5119,0.0,0.0,0.0,0.0,0.0,0.0,0.0,0.0,0.6896,0.6896,0.0,0.0,0.0,0.0,0.0,0.6798,0.6743,0.6743,0.6743,0.6702,0.0,0.0,0.0,0.0,0.7092,0.6964,0.6957,0.7098,0.6957,0.7156,0.7584,0.759,0.7828,0.8286,0.7943,0.8505,0.9758,0.9758,0.9662,0.9567,0.0,0.9567,0.954,0.0,0.8675,0.0,0.8598,0.8567,0.0,0.7992,0.0,0.0,0.0,0.7265,0.7312,0.8237,0.8552,0.0,0.0,0.0,0.0,0.0,0.0,0.0,0.0,0.0,0.0,0.0,0.0,0.0,0.0,0.0,0.0,0.0,0.0,0.0,0.0,0.0,0.0,0.0,0.0,0.0,0.0,0.0,0.0,0.0,2.1915,2.223,2.2543,2.2543,2.2731,2.3043,2.2731,2.2606,2.2606,2.2606,2.2418,2.2118,2.2104,2.2104,2.2104,2.2418,2.2606,2.2606,2.2918,2.2918,2.2572,2.2631,2.3006,2.3659,2.3894,2.4424,2.5119,2.5119,2.5119,2.5119,0.0,0.0,0.0,0.0,0.0,0.7522,0.7482,0.7346,0.7251,0.0,0.0,0.0,0.7105,0.7562,0.8119,0.8673,0.8082,0.772,0.7728,0.7182,0.6842,0.6883,0.6984,0.7058,0.7098,0.7058,0.7058,0.7098,0.7058,0.7098,0.7227,0.738,0.7549,0.7671,0.7753,0.7945,0.8213,0.8213,0.0,0.865,0.8478,0.9193,0.0,0.0,0.0,0.0,0.0,1.1558,1.1539,0.0,0.9788,0.9278,0.0,0.0,0.8149,0.8412,0.9214,0.0,1.1149,0.0,0.0,0.0,0.0,0.0,0.0,0.0,0.0,0.0,0.0,0.0,0.0,0.0,0.0,0.0,0.0,0.0,0.0,0.0,0.0,0.0,0.0,0.0,0.0,0.0,0.0,0.0,2.1551,2.1677,2.1551,2.1727,2.1915,2.1992,2.2167,2.223,2.223,2.1978,2.1866,2.174,2.1488,2.1488,2.1727,2.1866,2.1992,2.223,2.2606,2.2668,2.262,2.2832,2.3383,2.3956,2.4043,2.4488,2.5119,2.5119,2.5119,2.5119,0.0,0.0,0.0,0.7868,0.7828,0.7807,0.7868,0.7645,0.7489,0.0,0.0,0.0,0.8538,0.8909,0.932,0.98,0.8861,0.8269,0.8277,0.7483,0.697,0.697,0.7051,0.7268,0.7665,0.7665,0.7885,0.8273,0.8273,0.8053,0.7709,0.8205,0.829,0.8004,0.849,0.8706,0.8746,0.8597,0.0,0.0,0.9456,0.0,0.0,1.1353,1.1855,0.0,0.0,0.0,1.2144,1.1726,1.1168,0.0,0.0,0.0,0.0,0.9639,1.0346,0.0,0.0,0.0,0.0,0.0,0.0,0.0,0.0,1.5318,0.0,0.0,0.0,0.0,0.0,0.0,0.0,0.0,0.0,0.0,0.0,0.0,0.0,0.0,0.0,0.0,0.0,2.1109,2.1109,2.1109,2.1299,2.1425,2.1488,2.1677,2.1929,2.223,2.1992,2.1992,2.2104,2.179,2.1551,2.1425,2.1172,2.1172,2.1425,2.1551,2.174,2.1929,2.223,2.248,2.2606,2.2793,2.3286,2.3896,2.4027,2.4393,2.4943,2.5075,2.5119,2.5119,0.0,0.0,0.7929,0.8221,0.816,0.8113,0.8248,0.8077,0.7896,0.0,0.8629,0.954,1.075,1.0613,1.0532,1.0641,0.9411,0.8684,0.87,0.768,0.7098,0.7098,0.7098,0.7489,0.8324,0.8456,0.893,0.9749,0.9749,0.9323,0.85,0.9366,0.9411,0.8808,0.9569,1.0086,1.0333,1.0086,0.0,1.1038,1.1246,1.2152,0.0,0.0,1.2683,1.3118,1.3333,1.2738,1.1907,1.2595,1.2196,0.0,0.0,0.0,0.0,0.0,1.1673,0.0,1.2916,1.3206,0.0,0.0,0.0,0.0,1.4823,1.5197,0.0,0.0,0.0,0.0,0.0,0.0,0.0,0.0,0.0,0.0,0.0,0.0,0.0,0.0,0.0,0.0,2.1109,2.1109,2.1109,2.1109,2.1109,2.1425,2.1978,2.2104,2.2418,2.2918,2.2104,2.1727,2.1992,2.1664,2.1425,2.1109,2.1109,2.1109,2.1109,2.1425,2.1551,2.1551,2.1915,2.223,2.2543,2.2606,2.2995,2.3618,2.391,2.4232,2.4621,2.4943,2.5075,2.5075,0.0,0.7834,0.8052,0.8241,0.8248,0.8235,0.832,0.8989,0.9426,0.9132,0.9809,1.076,1.1864,1.1657,1.1802,1.2779,1.0902,0.9735,0.9955,0.8182,0.7098,0.7098,0.7098,0.718,0.7356,0.8105,0.8588,0.8755,0.8755,0.8675,0.85,0.8675,0.8692,0.8593,0.9506,0.9926,1.002,1.0319,0.0,1.1744,1.0266,0.0,1.2348,1.1402,1.2562,1.4734,1.4772,1.542,1.6032,1.4755,1.3355,1.209,0.0,0.0,0.0,1.2027,1.2801,1.3731,1.351,0.0,0.0,0.0,0.0,0.0,1.4208,1.4521,1.4883,0.0,0.0,0.0,0.0,0.0,0.0,0.0,0.0,0.0,0.0,0.0,0.0,0.0,0.0,0.0,2.1136,2.1109,2.1109,2.1109,2.1362,2.1551,2.1664,2.223,2.2292,2.1929,2.1978,2.179,2.1299,2.1235,2.1172,2.1109,2.1109,2.1109,2.1109,2.1172,2.1172,2.1235,2.1551,2.1915,2.223,2.248,2.2995,2.3603,2.3662,2.3896,2.4218,2.454,2.4723,2.4767,0.7787,0.7767,0.7965,0.8418,0.8536,0.8657,0.8891,0.9587,1.0062,0.983,1.0894,1.2094,1.3174,1.2997,1.3054,1.3655,1.2057,1.0815,1.0343,0.8857,0.7923,0.7804,0.7356,0.7533,0.8492,0.8973,0.941,0.9889,1.0366,1.0366,0.9889,1.0366,1.0512,1.0348,1.1154,1.1554,1.1718,0.0,1.2215,1.2734,1.1754,0.0,1.3142,1.3527,1.4427,1.5455,1.611,1.6751,1.7004,1.5155,1.4299,0.0,0.0,1.3462,1.3745,0.0,1.3696,1.4208,1.3821,0.0,0.0,1.4111,0.0,0.0,0.0,0.0,1.4714,0.0,0.0,0.0,0.0,0.0,0.0,0.0,0.0,0.0,0.0,0.0,0.0,0.0,0.0,0.0,2.1109,2.1109,2.1172,2.1362,2.1677,2.1915,2.2104,2.2418,2.2543,2.2355,2.2041,2.179,2.1614,2.1299,2.1109,2.1109,2.1109,2.1109,2.1109,2.1109,2.1109,2.1109,2.1299,2.1614,2.2104,2.2292,2.2769,2.3369,2.353,2.3691,2.3881,2.4203,2.4437,2.4598,0.8241,0.8077,0.8189,0.9007,0.9189,0.9399,0.9873,1.0613,1.1129,1.1148,1.233,1.3482,1.4377,1.4183,1.4099,1.4255,1.2972,1.1819,1.0948,0.9867,0.9148,0.8916,0.8167,0.8408,0.9945,1.0115,1.0539,1.1284,1.2057,1.2057,1.1327,1.21,1.2247,1.2004,1.2812,1.325,0.0,0.0,0.0,1.3656,0.0,1.3797,1.4019,1.5443,1.5818,1.5686,1.7091,1.7462,1.7023,1.5355,1.5175,1.5572,1.5161,1.4956,0.0,0.0,0.0,0.0,0.0,0.0,0.0,0.0,0.0,1.4485,0.0,0.0,0.0,1.4642,0.0,0.0,0.0,0.0,0.0,0.0,0.0,0.0,0.0,0.0,0.0,0.0,0.0,0.0,0.0,2.0895,2.102,2.1456,2.1777,2.2089,2.2457,2.264,2.2793,2.2981,2.2167,2.1803,2.1978,2.1425,2.1109,2.1109,2.1109,2.1109,2.1109,2.1109,2.1109,2.1109,2.1109,2.1425,2.1992,2.2041,2.248,2.301,2.3398,2.3501,2.3545,2.3866,2.4159,2.4393,0.9904,0.948,0.9418,1.0448,1.0614,1.0801,1.1333,1.2974,1.4236,1.4503,1.4715,1.49,1.4998,1.4777,1.491,1.5589,1.3685,1.2617,1.2959,0.0,1.0462,1.0444,1.0129,1.0037,1.026,1.0814,1.1187,1.1284,1.1413,1.1413,1.1284,1.1413,1.1424,1.1456,1.2834,0.0,0.0,0.0,1.3967,0.0,1.4459,1.4066,0.0,1.3461,1.4249,1.5511,1.731,1.7948,1.7683,0.0,1.6126,1.6018,0.0,1.5216,1.5626,0.0,0.0,0.0,0.0,0.0,0.0,0.0,1.4871,0.0,0.0,0.0,1.4642,1.4401,0.0,0.0,0.0,0.0,0.0,0.0,0.0,0.0,0.0,0.0,0.0,0.0,0.0,0.0,0.0,2.0107,2.0281,2.1101,2.1263,2.154,2.2115,2.2697,2.2918,2.2668,2.223,2.1915,2.1677,2.1299,2.1109,2.1109,2.1109,2.1109,2.1109,2.1109,2.1109,2.1109,2.1109,2.1299,2.1677,2.1978,2.2292,2.2668,2.3024,2.3164,2.3208,2.353,2.3676,2.3749,1.0573,1.0175,1.025,1.1096,1.1442,1.1757,1.2145,1.3624,1.4859,1.5294,1.5481,1.5695,1.5859,0.0,0.0,0.0,0.0,1.417,0.0,0.0,1.1848,1.1533,1.0882,1.0729,1.1093,1.1398,1.1456,1.1284,1.1843,1.21,1.21,1.2272,1.2608,1.3069,1.3649,0.0,1.449,0.0,1.4289,0.0,0.0,0.0,0.0,1.5101,1.6135,1.7165,1.7931,1.8135,1.7931,0.0,1.6703,0.0,0.0,0.0,0.0,0.0,0.0,0.0,0.0,0.0,0.0,0.0,0.0,0.0,1.463,0.0,1.4437,0.0,0.0,0.0,0.0,0.0,0.0,0.0,0.0,0.0,0.0,0.0,0.0,0.0,0.0,0.0,0.0,0.0,0.0,0.0,2.0916,2.1318,2.2119,2.257,2.2853,2.2918,2.2355,2.2041,2.1915,2.1362,2.1109,2.1109,2.1109,2.1109,2.1109,2.1109,2.1109,2.1109,2.1109,2.1425,2.1915,2.2041,2.2418,2.2918,2.3043,2.3106,2.312,2.3267,2.3427,2.3618,1.1619,1.1178,1.1274,1.1969,1.245,1.2914,1.3531,1.4457,1.5221,1.5552,1.5894,0.0,1.6716,1.6484,0.0,0.0,1.6527,1.5658,0.0,0.0,1.3314,1.2955,1.2045,1.1851,1.2382,1.2294,1.2059,1.1771,1.2475,1.2783,1.2711,1.2966,1.3392,1.4002,1.4216,1.4669,1.5261,0.0,1.4854,1.4894,1.5213,1.5441,1.5733,1.6867,1.7868,1.8661,1.859,1.8428,1.8177,1.7723,1.7156,0.0,1.6975,0.0,0.0,0.0,0.0,0.0,1.5831,0.0,0.0,0.0,0.0,0.0,0.0,0.0,0.0,0.0,0.0,0.0,0.0,0.0,0.0,0.0,0.0,0.0,0.0,0.0,0.0,0.0,0.0,0.0,0.0,0.0,0.0,0.0,0.0,2.0878,2.1982,2.2352,2.2602,2.285,2.2375,2.2041,2.1978,2.1425,2.1109,2.1109,2.1109,2.1109,2.1109,2.1109,2.1109,2.1109,2.1109,2.1425,2.1978,2.2041,2.2418,2.2981,2.3043,2.3106,2.3106,2.3106,2.3252,2.3457,1.3574,1.2936,1.2595,1.3502,1.3778,1.4452,1.5972,1.5936,1.5808,1.5878,0.0,0.0,0.0,0.0,0.0,0.0,0.0,1.675,1.6671,0.0,1.5026,1.5002,1.4208,1.3908,0.0,0.0,1.333,1.3021,1.3065,1.2976,1.2711,1.2966,1.3107,1.3187,1.4153,1.4657,1.4769,1.5261,1.5761,1.624,1.6049,1.6742,1.7861,0.0,1.8374,1.9314,1.8997,0.0,0.0,1.7892,1.7588,0.0,0.0,0.0,0.0,0.0,0.0,0.0,0.0,0.0,0.0,1.5285,0.0,0.0,0.0,0.0,1.5004,0.0,0.0,0.0,0.0,0.0,0.0,0.0,0.0,0.0,0.0,0.0,0.0,0.0,0.0,0.0,0.0,0.0,0.0,0.0,0.0,0.0,2.1628,2.1999,2.2209,2.2148,2.2137,2.1915,2.1614,2.1299,2.1109,2.1109,2.1109,2.1109,2.1109,2.1109,2.1109,2.1109,2.1109,2.1299,2.1677,2.1978,2.2292,2.2668,2.2981,2.3106,2.3106,2.3106,2.312,2.312,0.0,1.3758,0.0,0.0,0.0,1.4976,1.5838,1.6219,1.653,0.0,0.0,0.0,0.0,1.8797,1.8876,0.0,0.0,1.8148,1.7376,1.6638,0.0,0.0,0.0,1.4666,0.0,0.0,0.0,0.0,0.0,0.0,0.0,0.0,1.3773,1.4141,1.4647,1.5199,0.0,0.0,0.0,0.0,0.0,1.7108,1.8324,0.0,0.0,1.9372,1.9243,1.9113,0.0,1.8845,1.8403,1.7909,1.8131,1.7846,1.7477,1.7568,1.7661,0.0,0.0,0.0,1.7453,1.6489,0.0,0.0,0.0,0.0,0.0,0.0,0.0,0.0,0.0,0.0,0.0,0.0,0.0,0.0,0.0,0.0,0.0,0.0,0.0,0.0,0.0,0.0,0.0,0.0,1.9192,0.0,0.0,2.1403,2.1704,2.2058,2.1864,2.1721,2.1601,2.1299,2.1109,2.1109,2.1109,2.1109,2.1109,2.1109,2.1109,2.1109,2.1109,2.1425,2.1915,2.2041,2.2418,2.2918,2.3043,2.3106,2.3106,2.3106,2.3106,2.3106,1.3999,0.0,0.0,0.0,0.0,1.5284,1.5704,0.0,0.0,0.0,1.8036,0.0,1.984,0.0,1.9679,0.0,1.9773,1.9103,1.7961,1.7609,0.0,1.6216,1.5875,0.0,0.0,0.0,0.0,0.0,0.0,1.393,0.0,0.0,0.0,0.0,0.0,1.5437,1.6126,0.0,1.6663,0.0,0.0,1.7755,0.0,0.0,1.9105,1.943,0.0,1.9243,1.9127,1.9301,1.899,1.8599,1.8968,1.8611,1.8103,1.8249,1.8277,1.8129,1.7869,1.802,0.0,1.7162,1.6889,0.0,1.596,0.0,0.0,0.0,0.0,0.0,0.0,0.0,0.0,0.0,0.0,0.0,0.0,0.0,0.0,0.0,0.0,0.0,0.0,0.0,1.8023,1.8737,0.0,0.0,0.0,0.0,2.127,2.1744,2.1652,2.1555,2.145,2.1182,2.1109,2.1109,2.1109,2.1109,2.1109,2.1109,2.1109,2.1109,2.1109,2.1488,2.2104,2.2104,2.248,2.3106,2.3106,2.3106,2.3106,2.3106,2.3106,2.3106,0.0,0.0,0.0,0.0,1.5057,0.0,0.0,0.0,1.7313,0.0,1.841,1.9305,2.0127,2.0027,2.0094,2.0655,2.0209,1.9501,1.8651,1.8558,0.0,0.0,1.685,1.6592,1.5987,0.0,0.0,0.0,0.0,0.0,0.0,0.0,0.0,0.0,1.4754,0.0,1.5798,1.6446,1.7221,1.8022,1.8357,1.8651,1.8918,1.8918,1.9105,1.943,1.943,1.943,1.943,1.943,1.943,1.943,1.943,1.9172,1.8945,1.8931,1.8744,1.8475,1.8226,1.8171,1.8007,1.7434,0.0,0.0,0.0,0.0,1.7146,0.0,0.0,0.0,0.0,0.0,0.0,0.0,0.0,0.0,0.0,0.0,0.0,0.0,0.0,0.0,0.0,0.0,1.7551,1.84,1.8198,0.0,0.0,0.0,2.0895,2.1172,2.1427,2.1368,2.1087,2.1074,2.1096,2.1109,2.1109,2.1109,2.1109,2.1109,2.1109,2.1109,2.1109,2.1488,2.2104,2.2104,2.248,2.3106,2.3106,2.3106,2.3106,2.3106,2.3106,2.3106,1.4914,1.5257,1.5658,0.0,1.5765,1.5818,0.0,0.0,0.0,0.0,1.9025,1.9907,2.0788,2.0815,2.0828,2.0989,2.0873,0.0,0.0,0.0,0.0,1.8369,1.7964,1.7553,1.7164,1.6474,0.0,1.5544,0.0,0.0,1.5076,0.0,0.0,0.0,0.0,0.0,1.5565,1.6366,1.7221,1.7995,1.8075,1.8408,0.0,0.0,1.9105,1.943,1.943,1.943,1.943,1.943,1.943,1.943,1.943,1.9319,1.9212,1.8985,1.9025,1.9092,1.8751,1.8858,1.8951,1.8546,1.8308,1.8057,0.0,0.0,0.0,0.0,0.0,0.0,0.0,0.0,0.0,0.0,0.0,0.0,0.0,0.0,0.0,0.0,0.0,0.0,0.0,0.0,1.7353,1.7781,0.0,0.0,0.0,0.0,0.0,2.0496,2.0589,2.0711,2.0792,2.081,2.0895,2.1109,2.1109,2.1109,2.1109,2.1109,2.1109,2.1109,2.1109,2.1488,2.2104,2.2104,2.248,2.3106,2.3106,2.3106,2.3106,2.3106,2.3106,2.3106,1.5364,0.0,0.0,1.6656,0.0,0.0,1.6834,0.0,0.0,1.8384,1.9252,0.0,2.0481,2.0882,2.1109,2.1109,2.1109,0.0,2.0262,0.0,0.0,1.9099,1.8965,1.8551,1.8027,1.7245,0.0,1.6139,0.0,0.0,1.5486,0.0,0.0,0.0,0.0,1.5169,0.0,1.6607,1.7448,1.7995,1.8262,0.0,0.0,1.9118,1.9225,1.943,1.943,1.943,1.943,1.943,1.943,1.943,1.943,1.943,1.9332,1.9172,1.9239,1.939,1.9158,1.9239,1.9332,1.9158,1.8998,1.8798,1.849,1.839,1.8345,0.0,0.0,0.0,0.0,0.0,0.0,0.0,0.0,0.0,0.0,0.0,0.0,0.0,0.0,0.0,0.0,0.0,0.0,0.0,0.0,0.0,0.0,0.0,0.0,2.0095,2.0241,2.0378,2.0524,2.0671,2.0762,2.0922,2.1042,2.1109,2.1109,2.1109,2.1109,2.1109,2.1109,2.1488,2.2104,2.2104,2.248,2.3106,2.3106,2.3106,2.3106,2.3106,2.3106,2.3106,0.0,0.0,0.0,0.0,0.0,0.0,0.0,1.7849,0.0,1.8597,0.0,1.9973,1.9973,2.0655,2.1109,2.1109,0.0,2.0895,2.0326,2.0828,2.0624,1.9501,1.9737,1.9546,1.8667,1.802,0.0,0.0,0.0,0.0,0.0,0.0,0.0,0.0,0.0,0.0,0.0,1.6927,1.7702,0.0,1.8651,1.9065,1.943,1.943,1.943,1.943,1.943,1.943,1.943,1.943,1.943,1.943,1.943,1.943,1.943,1.943,1.943,1.943,1.943,1.943,1.943,1.943,1.943,1.9305,1.9038,1.8985,1.8985,1.8985,1.8784,1.8707,0.0,0.0,0.0,0.0,0.0,0.0,0.0,0.0,0.0,0.0,0.0,0.0,0.0,0.0,0.0,0.0,0.0,0.0,0.0,0.0,0.0,1.9921,2.0252,2.0351,2.0274,0.0,2.0641,2.0681,2.0975,2.1109,2.1109,2.1109,2.1109,2.1109,2.1172,2.1551,2.2104,2.2167,2.2543,2.3106,2.3106,2.3106,2.3106,2.3106,2.3106,2.3106,0.0,0.0,0.0,0.0,0.0,1.8557,1.9042,1.9265,1.9452,1.9559,2.0334,2.0882,2.0882,2.1015,2.1109,2.1109,2.1109,0.0,0.0,0.0,0.0,2.0473,2.0513,2.026,1.9615,1.8748,1.8006,0.0,0.0,0.0,0.0,0.0,0.0,0.0,0.0,0.0,1.65,1.6754,0.0,1.8424,1.8517,1.8891,1.943,1.943,1.943,1.943,1.943,1.943,1.943,1.943,1.943,1.943,1.943,1.943,1.943,1.943,1.943,1.943,1.943,1.943,1.943,1.943,1.943,1.9359,1.9305,1.9292,1.9292,1.9292,1.931,1.9421,1.9957,0.0,0.0,0.0,0.0,0.0,0.0,0.0,0.0,0.0,0.0,0.0,0.0,0.0,0.0,0.0,0.0,0.0,0.0,0.0,0.0,0.0,2.0829,0.0,0.0,0.0,2.0428,2.0681,2.0975,2.1109,2.1109,2.1109,2.1109,2.1109,2.1425,2.174,2.2104,2.2418,2.2731,2.3106,2.3106,2.3106,2.3106,2.3106,2.3106,2.3106,0.0,0.0,0.0,0.0,0.0,0.0,0.0,2.0187,0.0,1.9853,2.0174,2.0428,2.0428,2.0842,2.1109,2.1109,2.1109,2.1109,2.1109,2.1109,2.1042,2.0909,2.0762,0.0,2.0254,1.9399,1.8571,1.7809,0.0,0.0,0.0,0.0,0.0,0.0,0.0,1.5671,0.0,0.0,0.0,1.829,1.8597,1.8985,1.943,1.943,1.943,1.943,1.943,1.943,1.943,1.943,1.943,1.943,1.943,1.943,1.943,1.943,1.943,1.943,1.943,1.943,1.943,1.943,1.943,1.943,1.943,1.943,1.943,1.943,1.988,2.0473,2.1021,2.118,0.0,0.0,0.0,0.0,0.0,0.0,0.0,0.0,0.0,0.0,0.0,0.0,0.0,0.0,0.0,0.0,0.0,0.0,0.0,0.0,0.0,0.0,0.0,0.0,0.0,2.0454,2.0895,2.1109,2.1109,2.1109,2.1109,2.1109,2.1425,2.179,2.2167,2.2668,2.2918,2.3106,2.3106,2.3106,2.3106,2.3106,2.3106,2.3106,0.0,1.8637,0.0,0.0,1.9506,0.0,2.0201,2.0735,2.0855,2.0174,2.008,2.008,2.008,2.0695,2.1109,2.1109,2.1109,2.1109,2.1109,2.1109,2.1109,2.1109,2.0895,2.0735,2.0681,1.988,1.9025,0.0,0.0,0.0,0.0,0.0,0.0,0.0,0.0,0.0,0.0,0.0,1.7622,1.8222,1.8731,1.9105,1.943,1.943,1.943,1.943,1.943,1.943,1.943,1.943,1.943,1.943,1.943,1.943,1.943,1.943,1.943,1.943,1.943,1.943,1.943,1.943,1.943,1.943,1.943,1.943,1.943,1.943,2.0558,2.159,2.155,2.1953,0.0,0.0,0.0,0.0,0.0,0.0,0.0,0.0,0.0,0.0,0.0,0.0,0.0,0.0,0.0,0.0,2.1114,1.9613,1.9252,0.0,0.0,1.931,1.9265,0.0,2.0167,2.0241,2.0828,2.1109,2.1109,2.1109,2.1109,2.1109,2.1551,2.1929,2.2355,2.2856,2.3106,2.3106,2.3106,2.3106,2.3106,2.3106,2.3106,2.3106,0.0,0.0,0.0,0.0,0.0,0.0,2.0227,2.0735,2.1082,2.1002,2.0989,2.0989,2.0989,2.1056,2.1109,2.1109,2.1109,2.1109,2.1109,2.1109,2.1109,2.1109,2.1082,2.0949,2.0681,2.008,1.9332,0.0,0.0,0.0,0.0,0.0,0.0,0.0,0.0,0.0,0.0,1.7515,1.805,1.8851,1.8905,1.9105,1.943,1.943,1.943,1.943,1.943,1.943,1.943,1.943,1.943,1.943,1.943,1.943,1.943,1.943,1.943,1.943,1.943,1.943,1.943,1.943,1.943,1.943,1.943,1.943,1.943,1.943,2.1231,2.2321,2.0585,2.2855,2.4432,0.0,0.0,0.0,0.0,0.0,0.0,0.0,0.0,0.0,0.0,0.0,0.0,0.0,0.0,0.0,2.3732,2.2177,2.1207,2.1186,0.0,2.0033,1.8971,1.9813,2.0167,2.0241,2.0828,2.1109,2.1109,2.1109,2.1109,2.1109,2.1803,2.2418,2.2981,2.3043,2.3106,2.3106,2.3106,2.3106,2.3106,2.3106,2.3106,2.3106,0.0,0.0,0.0,0.0,0.0,0.0,0.0,2.0962,2.1109,2.1109,2.1109,2.1109,2.1109,2.1109,2.1109,2.1109,2.1109,2.1109,2.1109,2.1109,2.1109,2.1109,2.1109,2.1056,2.0935,2.0535,1.9893,0.0,0.0,0.0,0.0,0.0,0.0,0.0,0.0,1.7088,1.7876,1.805,1.8437,1.8945,1.9118,1.9265,1.943,1.943,1.9479,1.9626,1.9626,1.9733,1.988,1.988,1.9653,1.943,1.943,1.943,1.943,1.943,1.943,1.943,1.943,1.943,1.943,1.943,1.943,1.943,1.943,1.943,1.943,1.943,2.1345,2.2823,2.2323,2.3965,2.5003,0.0,0.0,0.0,0.0,0.0,0.0,0.0,0.0,0.0,0.0,0.0,0.0,0.0,0.0,0.0,0.0,2.2114,0.0,2.1281,0.0,2.0597,1.8918,2.0302,2.0759,2.0241,2.0655,2.1374,2.2278,2.1475,2.1299,2.174,2.1978,2.248,2.3106,2.3106,2.3106,2.3106,2.3106,2.3106,2.3106,2.3106,2.3106,2.3106,2.0347,0.0,2.0214,0.0,2.0628,2.0628,2.1042,2.1109,2.1109,2.1109,2.1109,2.1109,2.1109,2.1109,2.1109,2.1109,2.1109,2.1109,2.1109,2.1109,2.1109,2.1109,2.1109,0.0,2.1109,2.0828,2.0334,1.9626,1.9038,0.0,0.0,0.0,0.0,0.0,1.7422,1.7742,1.8275,1.8624,1.8918,1.9212,1.9506,1.9626,1.9626,1.9626,1.9746,1.992,1.992,2.0054,2.0167,2.0167,1.996,1.9626,1.9626,1.9626,1.9599,1.9519,1.9492,1.9479,1.9444,1.943,1.943,1.943,1.943,1.943,1.943,1.943,1.9488,1.988,2.1574,2.319,2.3654,2.4684,2.5194,2.4496,0.0,0.0,0.0,0.0,0.0,0.0,0.0,2.1739,2.1296,0.0,0.0,0.0,0.0,0.0,0.0,0.0,0.0,0.0,0.0,0.0,0.0,2.1047,2.1509,2.13,2.1257,2.192,2.3076,2.209,2.2041,2.2668,2.2668,2.2856,2.3106,2.3106,2.3106,2.3106,2.3106,2.3106,2.3106,2.3106,2.3106,2.3168,2.0615,2.0668,2.0762,2.1056,2.1096,2.1096,2.1109,2.1109,2.1109,2.1109,2.1109,2.1109,2.1109,2.1109,2.1109,2.1109,2.1109,2.1109,2.1109,2.1109,2.1109,0.0,0.0,2.1109,2.1109,2.0828,2.0535,2.0167,0.0,0.0,1.8464,0.0,1.7742,1.7982,1.7982,1.8302,1.8931,1.9225,1.9519,1.9813,2.0107,2.0167,2.0167,2.0167,2.0167,2.0227,2.0227,2.0227,2.0167,2.0167,2.0227,2.0167,2.0167,2.0167,2.016,1.988,1.98,1.9733,1.9452,1.943,1.943,1.943,1.943,1.943,1.943,1.943,1.9764,2.0945,2.2127,2.3254,2.4047,2.4863,2.5286,2.4849,0.0,0.0,0.0,0.0,0.0,0.0,2.2835,2.2296,2.3335,0.0,0.0,0.0,0.0,0.0,0.0,0.0,0.0,2.3478,2.2461,0.0,2.245,2.1895,2.2391,2.3948,2.3037,2.2754,2.3076,2.3076,2.345,2.407,2.407,2.3713,2.3106,2.3106,2.3106,2.3106,2.3106,2.3106,2.3106,2.3106,2.3106,2.3293,2.0949,2.0975,2.1002,2.1096,2.1109,2.1109,2.1109,2.1109,2.1109,2.1109,2.1109,2.1109,2.1109,2.1109,2.1109,0.0,2.1109,2.1109,0.0,2.1109,2.1109,2.1109,2.1109,2.1109,2.1109,2.1015,2.0828,2.0535,0.0,0.0,0.0,1.8948,1.8958,1.9239,1.9239,1.9452,1.9767,1.992,2.0013,2.0107,2.0201,2.0167,2.0167,2.0167,2.0361,2.0535,2.0535,2.0668,2.0828,2.0828,2.0828,2.0828,2.0828,2.0548,2.0153,2.012,2.0094,2.0067,1.9987,1.9813,1.9666,1.9666,1.9519,1.943,1.943,1.943,1.9764,2.0945,2.2127,2.3254,2.4047,2.5076,2.5598,2.4886,2.4666,0.0,0.0,0.0,0.0,0.0,0.0,2.3335,0.0,2.3019,0.0,0.0,0.0,0.0,0.0,0.0,0.0,0.0,2.4281,0.0,2.1289,2.2295,2.2332,2.1421,2.2204,2.3245,2.4379,2.4379,2.4317,2.407,2.3153,2.2856,2.3106,2.3106,2.3106,2.3106,2.3106,2.3106,2.3106,2.3106,2.3666,2.4517,2.1109,2.1109,2.1109,2.1109,2.1109,2.1109,2.1109,2.1109,2.1109,2.1109,2.1109,2.1109,2.1109,2.1109,0.0,2.1109,2.1109,2.1109,2.1109,2.1109,2.1109,2.1109,2.1109,2.1109,2.1109,2.1109,0.0,2.0842,2.0548,2.0214,1.9913,1.9746,1.9786,1.996,1.996,2.0067,2.0241,2.0347,2.0401,2.0414,2.0521,2.0561,2.0561,2.0561,2.0681,2.0842,2.0842,2.0949,2.1109,2.1109,2.1109,2.1109,2.1109,2.0855,2.0535,2.0428,2.0401,2.0374,2.0207,2.0094,1.9933,1.9826,1.9666,1.9506,1.9399,1.943,1.9764,2.0945,2.2127,2.3303,2.4234,2.529,2.58,2.5106,2.4886,2.4679,2.4356,0.0,0.0,0.0,0.0,0.0,0.0,2.3962,2.3972,0.0,0.0,0.0,0.0,0.0,0.0,2.4479,2.5443,0.0,2.2934,2.3723,2.3773,2.3062,2.3882,2.5016,2.6459,2.5607,2.5071,2.4764,2.3604,2.3043,2.3106,2.3106,2.3106,2.3106,2.3106,2.3106,2.3106,2.3106,2.3976,2.5194,2.1109,2.1109,0.0,0.0,2.1109,0.0,2.1109,2.1109,2.1109,2.1109,2.1109,2.1109,2.1109,2.1109,2.1109,2.1109,0.0,0.0,0.0,2.1109,2.1109,2.1109,2.1109,2.1109,2.1109,2.1109,2.1109,2.1109,2.0842,2.0708,2.0695,2.0428,2.0233,2.0233,2.0233,2.0233,2.0247,2.0588,2.0708,2.0735,2.1002,2.1109,2.1109,2.1109,2.1109,2.1109,2.1109,2.1109,2.1109,2.1109,2.1109,2.1109,2.1109,2.1109,2.1056,2.0788,2.0708,2.0641,2.0374,2.0281,2.0201,1.992,1.9826,1.9733,1.9452,1.9386,1.9764,2.0945,2.207,2.3255,2.4445,2.5342,2.5715,2.5331,2.5032,2.473,2.4535,0.0,0.0,0.0,0.0,0.0,0.0,2.4941,2.5039,0.0,0.0,0.0,0.0,0.0,2.5303,2.6121,2.6101,2.6188,2.6518,2.5807,2.6211,2.7742,2.7274,2.7744,2.8975,2.6658,2.5823,2.6067,2.498,2.3914,2.3106,2.3106,2.3106,2.3106,2.323,2.323,2.323,2.3355,2.4209,2.5562,0.0,0.0,2.1109,2.1109,2.1109,2.1109,2.1109,2.1109,2.1109,2.1109,2.1109,2.1109,2.1109,2.1109,2.1109,2.1109,2.1109,2.1109,2.1109,2.1109,2.1109,2.1109,2.1109,2.1109,2.1109,2.1109,2.1109,2.1109,2.1042,2.1002,2.1002,2.0935,2.0895,2.0895,2.0895,2.0895,2.0909,2.0975,2.1002,2.1015,2.1082,2.1109,2.1109,2.1109,2.1109,2.1109,2.1109,2.1109,2.1109,2.1109,2.1109,2.1109,2.1109,2.1109,2.1096,2.1029,2.1002,2.0989,2.0922,2.0735,2.0561,2.0481,2.0134,1.9786,1.972,1.9533,1.9764,2.0945,2.146,2.1972,2.3199,2.4069,2.4506,2.4087,2.4584,2.4894,2.4535,2.4824,0.0,0.0,2.5088,2.5137,2.4941,2.5088,2.532,0.0,0.0,0.0,0.0,2.5914,2.6077,2.6481,2.6486,2.6136,2.5533,2.5639,2.6196,2.7183,2.7339,2.8086,2.9331,2.6944,2.6095,2.6277,2.4023,2.3106,2.3106,2.3106,2.3106,2.323,2.4209,2.4641,2.4764,2.5745,2.6883,2.8026,2.1109,2.1109,2.1109,2.1109,2.1109,2.1109,2.1109,2.1109,2.1109,2.1109,2.1109,2.1109,2.1109,2.1109,2.1109,2.1109,2.1109,2.1109,2.1109,2.1109,2.1109,2.1109,2.1109,2.1109,2.1109,2.1109,2.1109,2.1109,2.1109,2.1109,2.1109,2.1109,2.1109,2.1109,2.1109,2.1109,2.1109,2.1109,2.1109,2.1109,2.1109,2.1109,2.1109,2.1109,2.1109,2.1109,2.1109,2.1109,2.1109,2.1109,2.1109,2.1109,2.1109,2.1109,2.1109,2.1109,2.1109,2.1109,2.1109,2.0989,2.0842,2.0708,2.0334,2.0,2.0,1.9773,1.9794,2.0422,2.0874,2.1402,2.2085,2.3298,2.413,2.3805,2.4515,2.5045,2.4899,2.5137,0.0,2.5284,2.5555,2.5739,2.5572,2.5894,2.6106,2.6237,2.6145,0.0,2.6458,2.6589,2.662,2.6602,2.6739,2.6646,2.6315,2.6861,2.7557,2.8343,2.8522,2.9016,2.9627,2.7907,2.6883,2.6399,2.4579,2.3479,2.3168,2.379,2.4023,2.4147,2.5439,2.5989,2.605,2.6719,2.7787,2.892,2.1109,2.1109,2.1109,2.1172,2.1172,2.1172,2.1235,2.1235,2.1235,2.1172,2.1172,2.1172,2.1109,2.1109,2.1109,2.1109,2.1109,2.1109,2.1109,2.1109,2.1109,2.1109,2.1109,2.1109,2.1109,2.1109,2.1109,2.1109,2.1109,2.1109,2.1109,2.1109,2.1109,2.1109,2.1109,2.1109,2.1109,2.1109,2.1109,2.1109,2.1109,2.1109,2.1109,2.1109,2.1109,2.1109,2.1109,2.1109,2.1109,2.1109,2.1109,2.1109,2.1109,2.1109,2.1109,2.1109,2.1109,2.1109,2.1109,2.1109,2.1056,2.0802,2.0521,2.0294,2.0294,2.008,1.9867,1.9867,2.0433,2.096,2.096,2.2561,2.3739,2.34,2.4307,2.507,2.4979,0.0,2.5469,2.5771,2.6172,2.6406,2.6484,2.6797,2.7051,2.7109,2.7051,2.7051,2.7109,2.7182,2.7135,2.6846,2.7066,2.738,2.7865,2.8538,2.9214,2.9922,2.9922,2.9981,2.9922,2.9016,2.7924,2.6823,2.579,2.4764,2.3775,2.4949,2.5378,2.5501,2.6762,2.7323,2.7323,2.7504,2.8265,2.9216,2.1109,2.1109,2.1172,2.1488,2.1551,2.1614,2.1915,2.1915,2.1853,2.1551,2.1551,2.1425,2.1109,2.1109,2.1109,2.1109,2.1109,2.1109,2.1109,2.1109,2.1109,2.1109,2.1109,2.1109,2.1109,2.1109,2.1109,2.1109,2.1109,2.1109,2.1109,2.1109,2.1109,2.1109,2.1109,2.1109,2.1109,2.1109,2.1109,2.1109,2.1109,2.1109,2.1109,2.1109,2.1109,2.1109,2.1109,2.1109,2.1109,2.1109,2.1109,2.1109,2.1109,2.1109,2.1109,2.1109,2.1109,2.1109,2.1109,2.1109,2.1096,2.1056,2.0828,2.0601,2.0601,2.0374,2.016,2.016,2.0053,2.0028,2.0028,2.1189,2.1881,2.0846,2.3083,2.4603,2.3701,0.0,2.583,2.625,2.6348,2.6523,2.6875,2.6973,2.7168,2.7539,2.7226,2.7168,2.7539,2.7617,2.774,2.8033,2.7978,2.8275,2.9031,2.9164,2.9428,2.9922,3.0216,3.0333,3.0274,2.9294,2.8742,2.8444,2.7228,2.6564,2.6399,2.6598,2.6719,2.6823,2.8086,2.8623,2.8742,2.9844,3.0411,3.0587,2.1362,2.1235,2.1235,2.1803,2.1992,2.2118,2.2104,2.2104,2.1978,2.1677,2.1614,2.1488,2.1109,2.1109,2.1109,2.1109,2.1109,2.1109,2.1109,2.1109,2.1109,2.1109,2.1109,2.1109,2.1109,2.1109,2.1109,2.1109,2.1109,2.1109,2.1109,2.1109,2.1109,2.1109,2.1109,2.1109,2.1109,2.1109,2.1109,2.1109,2.1109,2.1109,2.1109,2.1109,2.1109,2.1109,2.1109,2.1109,2.1109,2.1109,2.1109,2.1109,2.1109,2.1109,2.1109,2.1109,2.1109,2.1109,2.1109,2.1109,2.1109,2.1109,2.1002,2.0909,2.0909,2.0681,2.0468,2.0468,2.0241,1.9987,1.9826,2.0687,2.1481,2.1721,2.3167,0.0,0.0,2.563,2.6172,2.6367,2.6797,2.7148,2.7344,2.7578,2.7793,2.7988,2.7812,2.7793,2.7988,2.8223,2.8437,2.8633,2.8889,2.9202,2.9585,2.9795,3.0083,3.047,3.0587,3.0704,3.0645,3.0216,2.9589,2.8861,2.8247,2.7667,2.7082,2.7727,2.8026,2.8146,2.9471,2.9962,3.002,3.0645,3.0898,3.0898,2.1677,2.1488,2.1551,2.2104,2.2369,2.2495,2.2355,2.2355,2.223,2.1866,2.1866,2.1677,2.1235,2.1235,2.1172,2.1109,2.1109,2.1109,2.1109,2.1109,2.1109,2.1109,2.1109,2.1109,2.1109,2.1109,2.1109,2.1109,2.1109,2.1109,2.1109,2.1109,2.1109,2.1109,2.1109,2.1109,2.1109,2.1109,2.1109,2.1109,2.1109,2.1109,2.1109,2.1109,2.1109,2.1109,2.1109,2.1109,2.1109,2.1109,2.1109,2.1109,2.1109,2.1109,2.1109,2.1109,2.1109,2.1109,2.1109,2.1109,2.1109,2.1109,2.1109,2.1109,2.1109,2.0935,2.0775,2.0775,2.0548,2.0267,2.004,2.062,2.143,2.2553,0.0,0.0,0.0,2.6272,2.6562,2.668,2.7266,2.7767,2.7865,2.8105,2.8301,2.8301,2.8301,2.834,2.8437,2.875,2.9004,2.9219,2.9637,2.993,3.0026,3.0354,3.0645,3.0898,3.0898,3.0898,3.0898,3.0898,3.0333,2.9353,2.9353,2.882,2.7984,2.8938,2.9353,2.9471,3.0528,3.0898,3.0898,3.0898,3.0898,3.0898,2.1978,2.2041,2.2167,2.248,2.2606,2.2668,2.2981,2.3043,2.2918,2.2543,2.2543,2.2292,2.1614,2.1551,2.1425,2.1109,2.1109,2.1109,2.1109,2.1109,2.1109,2.1109,2.1109,2.1109,2.1109,2.1109,2.1109,2.1109,2.1109,2.1109,2.1109,2.1109,2.1109,2.1109,2.1109,2.1109,2.1109,2.1109,2.1109,2.1109,2.1109,2.1109,2.1109,2.1109,2.1109,2.1109,2.1109,2.1109,2.1109,2.1109,2.1109,2.1109,2.1109,2.1109,2.1109,2.1109,2.1109,2.1109,2.1109,2.1109,2.1109,2.1109,2.1109,2.1109,2.1109,2.1096,2.1082,2.1082,2.0842,2.0641,2.0615,2.1036,2.1394,2.136,0.0,0.0,2.463,2.5961,2.7109,2.7519,2.7669,2.7865,2.8203,2.8281,2.8301,2.8301,2.8301,2.8457,2.8848,2.8906,2.9277,3.0078,3.0176,3.041,3.084,3.0879,3.0898,3.0898,3.0898,3.0898,3.0898,3.0898,3.082,3.0762,3.0762,3.0704,3.0645,3.0704,3.0762,3.0762,3.084,3.0898,3.0898,3.0898,3.0898,3.0898,2.2355,2.2369,2.2495,2.2856,2.2918,2.2918,2.3106,2.3106,2.2981,2.2668,2.2418,2.2104,2.1677,2.1425,2.1235,2.1109,2.1109,2.1172,2.1425,2.1425,2.1425,2.1425,2.1425,2.1425,2.1425,2.1425,2.1299,2.1109,2.1109,2.1109,2.1109,2.1109,2.1109,2.1109,2.1109,2.1109,2.1109,2.1109,2.1109,2.1109,2.1109,2.1109,2.1109,2.1109,2.1109,2.1109,2.1109,2.1109,2.1109,2.1109,2.1109,2.1109,2.1109,2.1109,2.1109,2.1109,2.1109,2.1109,2.1109,2.1109,2.1109,2.1109,2.1109,2.1109,2.1109,2.1109,2.1109,2.1109,2.1029,2.0895,2.0708,2.0849,2.1124,2.1641,0.0,2.4094,2.4969,2.627,2.7253,2.7637,2.7891,2.8125,2.8281,2.8301,2.8301,2.8301,2.8535,2.875,2.8906,2.9414,3.0,3.0605,3.0625,3.0703,3.0898,3.0898,3.0898,3.0898,3.0898,3.0898,3.0898,3.0898,3.0898,3.0898,3.0898,3.0898,3.0898,3.0898,3.0898,3.0898,3.0898,3.0898,3.0898,3.0898,3.0898,3.0898,2.2668,2.2745,2.2808,2.3043,2.3106,2.3106,2.3106,2.3106,2.3043,2.2793,2.2543,2.223,2.1803,2.1551,2.1362,2.1109,2.1316,2.1497,2.1751,2.1961,2.1997,2.174,2.174,2.174,2.174,2.1677,2.1488,2.1235,2.1172,2.1109,2.1109,2.1109,2.1109,2.1109,2.1109,2.1348,2.1727,2.1299,2.1348,2.1664,2.1299,2.1109,2.1109,2.1109,2.1109,2.1109,2.1109,2.1109,2.1109,2.1109,2.1109,2.1109,2.1109,2.1109,2.1109,2.1109,2.1109,2.1109,2.1109,2.1109,2.1109,2.1109,2.1109,2.1109,2.1109,2.1109,2.1109,2.1109,2.1411,2.1658,2.1514,2.1782,2.2335,2.3235,2.3982,2.4935,2.6245,2.7292,2.8028,2.8262,2.8516,2.8691,2.8691,2.8691,2.8691,2.8691,2.8965,2.918,2.9316,3.0019,3.0566,3.0879,3.0898,3.0898,3.0898,3.0898,3.0898,3.0898,3.0898,3.0898,3.0898,3.0898,3.0898,3.0898,3.0898,3.0898,3.0898,3.0898,3.0898,3.0898,3.0898,3.0898,3.0898,3.0898,3.0976,3.1094,2.3043,2.3106,2.3106,2.3106,2.3106,2.3106,2.3106,2.3106,2.3106,2.3106,2.3106,2.2856,2.2167,2.2104,2.1866,2.1172,2.1696,2.213,2.213,2.2744,2.2827,2.2146,2.2118,2.2104,2.2104,2.1803,2.1614,2.1614,2.1299,2.1109,2.1109,2.1109,2.1109,2.1109,2.1109,2.1839,2.3014,2.1664,2.1915,2.3014,2.1664,2.1109,2.1109,2.1109,2.1109,2.1109,2.1109,2.1109,2.1109,2.1109,2.1109,2.1109,2.1109,2.1109,2.1109,2.1109,2.1109,2.1109,2.1109,2.1109,2.1109,2.1109,2.1109,2.1109,2.1109,2.1109,2.1109,2.1109,2.2153,2.3076,2.3076,2.4131,2.5294,2.6253,2.6894,2.7629,2.854,2.9234,2.9626,2.9626,2.9626,2.9626,2.9626,2.9626,2.9626,2.9626,2.957,2.9766,3.0176,3.0644,3.0898,3.0898,3.0898,3.0898,3.0898,3.0898,3.0898,3.0898,3.0898,3.0898,3.0898,3.0898,3.0898,3.0898,3.0898,3.0898,3.0898,3.0898,3.0898,3.0898,3.0898,3.0898,3.0898,3.0898,3.1152,3.1523,2.3106,2.3106,2.3106,2.3106,2.3106,2.3106,2.3106,2.3106,2.3106,2.3106,2.2918,2.2606,2.2167,2.1915,2.1696,2.1467,2.1818,2.2406,2.3083,2.3573,2.3739,2.3536,2.3064,2.2708,2.2495,2.2355,2.2167,2.1915,2.1853,2.1677,2.1425,2.1425,2.1362,2.1109,2.1109,2.1839,2.3014,2.1664,2.2404,2.4317,2.3014,2.2529,2.2529,2.2529,2.1902,2.1109,2.1109,2.1109,2.1235,2.2215,2.2054,2.1416,2.1416,2.1269,2.1109,2.1109,2.1109,2.1109,2.1109,2.1109,2.1109,2.1109,2.1109,2.1109,2.1109,2.1109,2.1109,2.1109,2.2153,2.3076,2.3076,2.4301,2.5416,2.5479,2.654,2.7454,2.7651,2.8597,2.9346,2.957,2.9626,2.9626,2.9626,2.9626,2.9626,2.9626,2.9844,3.0215,3.0664,3.082,3.0898,3.0898,3.0898,3.0898,3.0898,3.0898,3.0898,3.0898,3.0898,3.0898,3.0898,3.0898,3.0898,3.0898,3.0898,3.0898,3.0898,3.0898,3.0898,3.0898,3.0898,3.0898,3.0898,3.0898,3.1152,3.1523,2.323,2.3106,2.3106,2.3106,2.3106,2.3106,2.3106,2.3106,2.3106,2.3106,2.2918,2.2606,2.2167,2.2026,2.1924,2.1795,2.248,2.3224,2.3934,2.4327,2.4349,2.4101,2.3818,2.3443,2.2995,2.2855,2.2609,2.2292,2.2167,2.1978,2.179,2.1677,2.1488,2.1299,2.1172,2.209,2.376,2.2466,2.3387,2.5668,2.4379,2.396,2.4081,2.3518,2.2849,2.2212,2.1649,2.1828,2.2404,2.3203,2.3092,2.2619,2.2619,2.2042,2.1456,2.1456,2.1376,2.1283,2.1283,2.1203,2.1109,2.1109,2.1109,2.1109,2.1109,2.1109,2.1109,2.1109,2.2591,2.3884,2.3884,2.5652,2.7039,2.6875,2.7848,2.8597,2.8512,2.926,2.987,3.0098,3.0098,3.0098,3.0098,3.0098,3.0098,3.0098,3.0332,3.0586,3.0879,3.0898,3.0898,3.0898,3.0898,3.0898,3.0898,3.0898,3.0898,3.0898,3.0898,3.0898,3.0898,3.0898,3.0898,3.0898,3.0898,3.0898,3.0898,3.0898,3.0898,3.0898,3.0898,3.0898,3.0918,3.1074,3.1406,3.1797,2.3542,2.3293,2.323,2.3106,2.3106,2.3106,2.3106,2.3106,2.3106,2.3106,2.3106,2.287,2.2272,2.2462,2.253,2.2263,2.3408,2.428,2.4613,2.4958,2.4855,2.4203,2.4452,2.432,2.3691,2.3299,2.3013,2.2711,2.2369,2.2167,2.2104,2.1803,2.1614,2.1614,2.1348,2.2654,2.4933,2.379,2.4841,2.7133,2.5811,2.5528,2.5753,2.4414,2.3971,2.3912,2.2635,2.3014,2.4122,2.4266,2.4331,2.4251,2.4151,2.3173,2.1991,2.1991,2.1804,2.1655,2.1628,2.1363,2.1149,2.1122,2.1109,2.1109,2.1109,2.1109,2.1109,2.1235,2.3263,2.5056,2.5178,2.7607,2.9568,2.9568,3.0098,3.045,3.045,3.0704,3.0898,3.0898,3.0898,3.0898,3.0898,3.0898,3.0898,3.0898,3.0898,3.0898,3.0898,3.0898,3.0898,3.0898,3.0898,3.0898,3.0898,3.0898,3.0898,3.0898,3.0898,3.0898,3.0898,3.0898,3.0898,3.0898,3.0898,3.0898,3.0898,3.0898,3.0898,3.0898,3.0898,3.0898,3.0937,3.1367,3.1797,3.2226,2.4949,2.4641,2.4332,2.3293,2.3106,2.3106,2.3106,2.3106,2.3106,2.3106,2.3106,2.302,2.2886,2.2986,2.302,2.3186,2.3912,2.4612,2.4949,2.509,2.5061,2.4914,2.4987,2.4826,2.4364,2.3787,2.3432,2.3359,2.3049,2.2731,2.248,2.2167,2.1853,2.1614,2.2341,2.3512,2.501,2.5093,2.6649,2.8967,2.7916,2.757,2.7638,2.7323,2.5913,2.4042,2.3732,2.3862,2.4281,2.5693,2.5923,2.551,2.4743,2.3342,2.1991,2.1991,2.1937,2.1844,2.1681,2.1574,2.1403,2.1162,2.1109,2.1109,2.1109,2.1109,2.1425,2.2466,2.4116,2.5713,2.6745,2.876,3.0216,3.0216,3.0509,3.0762,3.0762,3.082,3.0898,3.0898,3.0898,3.0898,3.0898,3.0898,3.0898,3.0898,3.0898,3.0898,3.0898,3.0898,3.0898,3.0898,3.0898,3.0898,3.0898,3.0898,3.0898,3.0898,3.0898,3.0898,3.0898,3.0898,3.0898,3.0898,3.0898,3.0898,3.0898,3.0898,3.0898,3.0898,3.0898,3.0898,3.0937,3.1367,3.1797,3.2285,2.6294,2.5989,2.5623,2.427,2.4023,2.3852,2.3168,2.3106,2.3106,2.3106,2.3106,2.3112,2.3113,2.3221,2.35,2.3927,2.4477,2.4849,2.5119,2.5119,2.5119,2.5119,2.5119,2.5301,2.5774,2.5336,2.4604,2.3588,2.3427,2.3204,2.2856,2.248,2.2251,2.2137,2.3136,2.4343,2.5564,2.651,2.8047,2.9831,2.935,2.9279,2.9375,2.8852,2.7936,2.6711,2.5993,2.614,2.6808,2.8435,2.7897,2.6482,2.5947,2.4242,2.2405,2.2405,2.2298,2.2284,2.2859,2.2902,2.2706,2.2398,2.2314,2.2096,2.1262,2.1109,2.1475,2.2827,2.4363,2.5879,2.7228,2.9116,3.0392,3.0392,3.0704,3.0898,3.0898,3.0898,3.0898,3.0898,3.0898,3.0898,3.0898,3.0898,3.0898,3.0898,3.0898,3.0898,3.0898,3.0898,3.0898,3.0898,3.0898,3.0898,3.0898,3.0898,3.0898,3.0898,3.0898,3.0898,3.0898,3.0898,3.0898,3.0898,3.0898,3.0898,3.0898,3.0898,3.0898,3.0898,3.0898,3.0898,3.0937,3.1367,3.1914,3.2559,2.7547,2.7306,2.6944,2.5684,2.5439,2.5071,2.3961,2.3604,2.3417,2.3417,2.323,2.3126,2.3249,2.3558,2.3989,2.452,2.4916,2.5119,2.5119,2.5119,2.5119,2.5119,2.5119,2.5712,2.7086,2.6867,2.5903,2.4134,2.4074,2.3784,2.3267,2.2826,2.2652,2.2714,2.3981,2.5136,2.6216,2.7887,2.9341,3.0376,3.045,3.0733,3.0946,3.0102,2.9831,2.9705,2.8443,2.8526,2.9543,3.0926,2.9509,2.7121,2.7187,2.5263,2.2996,2.3065,2.2821,2.2875,2.4289,2.4466,2.4187,2.4232,2.403,2.351,2.2054,2.1389,2.1664,2.3559,2.484,2.6062,2.7709,2.9353,3.0509,3.0509,3.0704,3.0898,3.0898,3.0898,3.0898,3.0898,3.0898,3.0898,3.0898,3.0898,3.0898,3.0898,3.0898,3.0898,3.0898,3.0898,3.0898,3.0898,3.0898,3.0898,3.0898,3.0898,3.0898,3.0898,3.0898,3.0898,3.0898,3.0898,3.0898,3.0898,3.0898,3.0898,3.0898,3.0898,3.0898,3.0898,3.0898,3.0898,3.0957,3.1445,3.2168,3.2949,2.892,2.8623,2.8265,2.6961,2.6719,2.6658,2.652,2.5562,2.4826,2.4826,2.3852,2.334,2.389,2.4488,2.4897,2.4984,2.5052,2.5119,2.5119,2.5119,2.5119,2.5119,2.5119,2.5712,2.7086,2.7039,2.6817,2.6306,2.5991,2.5193,2.3954,2.3292,2.293,2.3023,2.5001,2.5929,2.6312,2.9193,3.0699,3.1176,3.1548,3.1843,3.2155,3.2008,3.124,3.0142,2.9705,2.9395,2.9543,3.0926,2.9509,2.7187,2.7519,2.5667,2.3406,2.3747,2.3584,2.3555,2.4679,2.476,2.4839,2.6088,2.545,2.449,2.4257,2.2602,2.2278,2.6503,2.6608,2.6772,2.953,3.045,3.082,3.082,3.0879,3.0898,3.0898,3.0898,3.0898,3.0898,3.0898,3.0898,3.0898,3.0898,3.0898,3.0898,3.0898,3.0898,3.0898,3.0898,3.0898,3.0898,3.0898,3.0898,3.0898,3.0898,3.0898,3.0898,3.0898,3.0898,3.0898,3.0898,3.0898,3.0898,3.0898,3.0898,3.0898,3.0898,3.0898,3.0898,3.0898,3.0898,3.0996,3.1777,3.2617,3.334,3.0138,3.002,2.9608,2.8265,2.8086,2.7787,2.7142,2.5928,2.5071,2.5071,2.3914,2.3281,2.3764,2.4393,2.4929,2.5105,2.5119,2.5457,2.6167,2.6234,2.6568,2.7352,2.7419,2.8065,2.9426,2.9426,2.9405,2.925,2.7408,2.5665,2.4086,2.3551,2.3702,2.4532,2.6066,2.7149,2.8058,3.0391,3.1522,3.1649,3.2027,3.2294,3.2422,3.2613,3.2275,3.1726,3.1598,3.123,3.0861,3.1699,2.9965,2.7652,2.8772,2.6655,2.4088,2.5801,2.5465,2.5046,2.7144,2.7622,2.7605,2.8064,2.734,2.66,2.7303,2.5125,2.3735,2.6371,2.7151,2.7991,3.002,3.0704,3.0898,3.0898,3.0898,3.0898,3.0898,3.0898,3.0898,3.0898,3.0898,3.0898,3.0898,3.0898,3.0898,3.0898,3.0898,3.0898,3.0898,3.0898,3.0898,3.0898,3.0898,3.0898,3.0898,3.0898,3.0898,3.0898,3.0898,3.0898,3.0898,3.0898,3.0898,3.0898,3.0898,3.0898,3.0898,3.0898,3.0898,3.0898,3.0898,3.1035,3.1348,3.2207,3.2754,3.3105]}]]